[[{"header":{"parameterUnit":"m.s-1","parameterCategory":1,"la1":30.6,"la2":29.2853,"lo1":-89.7004,"lo2":-87.6739,"dy":0.0162,"dx":0.0183,"nx":112,"ny":82,"refTime":"2023-10-02T12:00:00:Z","depth":0,"parameterNumber":2,"parameterNumberName":"U-component_of_WINDS"},"data":[0.0,0.0,0.0,0.0,0.0,0.0,0.0,0.0,0.0,0.0,0.0,0.0,0.0,0.0,0.0,0.0,0.0,0.0,0.0,0.0,0.0,0.0,0.0,0.0,0.0,0.0,0.0,0.0,0.0,0.0,0.0,0.0,0.0,0.0,0.0,0.0,0.0,0.0,0.0,0.0,0.0,0.0,0.0,0.0,0.0,0.0,0.0,0.0,0.0,0.0,0.0,0.0,0.0,0.0,0.0,0.0,0.0,0.0,0.0,0.0,0.0,0.0,0.0,0.0,0.0,0.0,0.0,0.0,0.0,0.0,0.0,0.0,0.0,0.0,0.0,0.0,0.0,0.0,0.0,0.0,0.0,0.0,0.0,0.0,0.0,0.0,0.0,0.0,0.0,0.0,-0.2858,-0.2388,-0.2465,-0.256,-0.2747,-0.2647,-0.258,-0.2529,0.0,0.0,0.0,0.0,0.0,0.0,0.0,0.0,0.0,0.0,0.0,0.0,0.0,0.0,0.0,0.0,0.0,0.0,0.0,0.0,0.0,0.0,0.0,0.0,0.0,0.0,0.0,0.0,0.0,0.0,0.0,0.0,0.0,0.0,0.0,0.0,0.0,0.0,0.0,0.0,0.0,0.0,0.0,0.0,0.0,0.0,0.0,0.0,0.0,0.0,0.0,0.0,0.0,0.0,0.0,0.0,0.0,0.0,0.0,0.0,0.0,0.0,0.0,0.0,0.0,0.0,0.0,0.0,0.0,0.0,0.0,0.0,0.0,0.0,0.0,0.0,0.0,0.0,0.0,0.0,0.0,0.0,0.0,0.0,0.0,0.0,0.0,0.0,0.0,0.0,0.0,0.0,0.0,0.0,0.0,0.0,0.0,0.0,0.0,0.0,0.0,0.0,0.0,0.0,-0.2665,-0.2575,-0.2559,-0.2567,-0.2554,-0.2567,-0.2597,-0.2589,0.0,0.0,0.0,0.0,0.0,0.0,0.0,0.0,0.0,0.0,0.0,0.0,0.0,0.0,0.0,0.0,0.0,0.0,0.0,0.0,0.0,0.0,0.0,0.0,0.0,0.0,0.0,0.0,0.0,0.0,0.0,0.0,0.0,0.0,0.0,0.0,0.0,0.0,0.0,0.0,0.0,0.0,0.0,0.0,0.0,0.0,0.0,0.0,0.0,0.0,0.0,0.0,0.0,0.0,0.0,0.0,0.0,0.0,0.0,0.0,0.0,0.0,0.0,0.0,0.0,0.0,0.0,0.0,0.0,0.0,0.0,0.0,0.0,0.0,0.0,0.0,0.0,0.0,0.0,0.0,0.0,0.0,0.0,0.0,0.0,0.0,0.0,0.0,0.0,0.0,0.0,0.0,0.0,0.0,0.0,0.0,0.0,0.0,0.0,0.0,0.0,0.0,0.0,-0.2695,-0.2654,-0.3306,-0.2874,-0.2619,-0.2829,-0.2687,-0.2643,-0.2805,-0.2773,0.0,0.0,0.0,0.0,0.0,0.0,0.0,0.0,0.0,0.0,0.0,0.0,0.0,0.0,0.0,0.0,0.0,0.0,0.0,0.0,0.0,0.0,0.0,0.0,0.0,0.0,0.0,0.0,0.0,0.0,0.0,0.0,0.0,0.0,0.0,0.0,0.0,0.0,0.0,0.0,0.0,0.0,0.0,0.0,0.0,0.0,0.0,0.0,0.0,0.0,0.0,0.0,0.0,0.0,0.0,0.0,0.0,0.0,0.0,0.0,0.0,0.0,0.0,0.0,0.0,0.0,0.0,0.0,0.0,0.0,0.0,0.0,0.0,0.0,0.0,0.0,0.0,0.0,0.0,0.0,0.0,0.0,0.0,0.0,0.0,0.0,0.0,0.0,0.0,0.0,0.0,0.0,0.0,0.0,0.0,0.0,0.0,0.0,0.0,0.0,0.0,0.0,-0.2796,-0.2896,-0.3748,-0.3154,-0.2762,-0.3064,-0.2875,-0.2834,-0.3071,-0.3004,0.0,0.0,0.0,0.0,0.0,0.0,0.0,0.0,0.0,0.0,0.0,0.0,0.0,0.0,0.0,0.0,0.0,0.0,0.0,0.0,0.0,0.0,0.0,0.0,0.0,0.0,0.0,0.0,0.0,0.0,0.0,0.0,0.0,0.0,0.0,0.0,0.0,0.0,0.0,0.0,0.0,0.0,0.0,0.0,0.0,0.0,0.0,0.0,0.0,0.0,0.0,0.0,0.0,0.0,0.0,0.0,0.0,0.0,0.0,0.0,0.0,0.0,0.0,0.0,0.0,0.0,0.0,0.0,0.0,0.0,0.0,0.0,0.0,0.0,0.0,0.0,0.0,0.0,0.0,0.0,0.0,0.0,0.0,0.0,0.0,0.0,0.0,0.0,0.0,0.0,0.0,0.0,0.0,0.0,0.0,0.0,0.0,0.0,0.0,0.0,0.0,0.0,-0.3086,-0.3405,-0.335,-0.3248,-0.3137,-0.3107,-0.3067,-0.3167,-0.3343,-0.3364,0.0,0.0,0.0,0.0,0.0,0.0,0.0,0.0,0.0,0.0,0.0,0.0,0.0,0.0,0.0,0.0,0.0,0.0,0.0,0.0,0.0,0.0,0.0,0.0,0.0,0.0,0.0,0.0,0.0,0.0,0.0,0.0,0.0,0.0,0.0,0.0,0.0,0.0,0.0,0.0,0.0,0.0,0.0,0.0,0.0,0.0,0.0,0.0,0.0,0.0,0.0,0.0,0.0,0.0,0.0,0.0,0.0,0.0,0.0,0.0,0.0,0.0,0.0,0.0,0.0,0.0,0.0,0.0,0.0,0.0,0.0,0.0,0.0,0.0,0.0,0.0,0.0,0.0,0.0,0.0,0.0,0.0,0.0,0.0,0.0,0.0,0.0,0.0,0.0,0.0,0.0,0.0,0.0,0.0,0.0,0.0,0.0,0.0,0.0,0.0,0.0,0.0,-0.2771,-0.308,0.0,-0.3318,-0.3209,-0.3335,-0.3178,-0.3223,-0.349,0.0,0.0,0.0,0.0,0.0,0.0,0.0,0.0,0.0,0.0,0.0,0.0,0.0,0.0,0.0,0.0,0.0,0.0,0.0,0.0,0.0,0.0,0.0,0.0,0.0,0.0,0.0,0.0,0.0,0.0,0.0,0.0,0.0,0.0,0.0,0.0,0.0,0.0,0.0,0.0,0.0,0.0,0.0,0.0,0.0,0.0,0.0,0.0,0.0,0.0,0.0,0.0,0.0,0.0,0.0,0.0,0.0,0.0,0.0,0.0,0.0,0.0,0.0,0.0,0.0,0.0,0.0,0.0,0.0,0.0,0.0,0.0,0.0,0.0,0.0,0.0,0.0,0.0,0.0,0.0,0.0,0.0,0.0,0.0,0.0,0.0,0.0,0.0,0.0,0.0,0.0,0.0,0.0,0.0,0.0,0.0,0.0,0.0,0.0,0.0,0.0,0.0,-0.2471,-0.2793,-0.3167,0.0,-0.3494,-0.3403,-0.3569,-0.3413,-0.3446,-0.3689,0.0,0.0,0.0,0.0,0.0,0.0,0.0,0.0,0.0,0.0,0.0,0.0,0.0,0.0,0.0,0.0,0.0,0.0,0.0,0.0,0.0,0.0,0.0,0.0,0.0,0.0,0.0,0.0,0.0,0.0,0.0,0.0,0.0,0.0,0.0,0.0,0.0,0.0,0.0,0.0,0.0,0.0,0.0,0.0,0.0,0.0,0.0,0.0,0.0,0.0,0.0,0.0,0.0,0.0,0.0,0.0,0.0,0.0,0.0,0.0,0.0,0.0,0.0,0.0,0.0,0.0,0.0,0.0,0.0,0.0,0.0,0.0,0.0,0.0,0.0,0.0,0.0,0.0,0.0,0.0,0.0,0.0,0.0,0.0,0.0,0.0,0.0,0.0,0.0,0.0,0.0,0.0,0.0,0.0,0.0,0.0,0.0,0.0,0.0,0.0,0.0,0.0,-0.2558,-0.3259,-0.3789,-0.3707,-0.3829,-0.3863,-0.3812,-0.3804,-0.3845,0.0,0.0,0.0,0.0,0.0,0.0,0.0,0.0,0.0,0.0,0.0,0.0,0.0,0.0,0.0,0.0,0.0,0.0,0.0,0.0,0.0,0.0,0.0,0.0,0.0,0.0,0.0,0.0,0.0,0.0,0.0,0.0,0.0,0.0,0.0,0.0,0.0,0.0,0.0,0.0,0.0,0.0,0.0,0.0,0.0,0.0,0.0,0.0,0.0,0.0,0.0,0.0,0.0,0.0,0.0,0.0,0.0,0.0,0.0,0.0,0.0,0.0,0.0,0.0,0.0,0.0,0.0,0.0,0.0,0.0,0.0,0.0,0.0,0.0,0.0,0.0,0.0,0.0,0.0,0.0,0.0,0.0,0.0,0.0,0.0,0.0,0.0,0.0,0.0,0.0,0.0,0.0,0.0,0.0,0.0,0.0,0.0,0.0,0.0,0.0,0.0,0.0,0.0,-0.2254,-0.3039,-0.3595,-0.3571,-0.3962,-0.4188,-0.3957,-0.4117,-0.414,-0.3903,0.0,0.0,0.0,0.0,0.0,0.0,0.0,0.0,0.0,0.0,0.0,0.0,0.0,0.0,0.0,0.0,0.0,0.0,0.0,0.0,0.0,0.0,0.0,0.0,0.0,0.0,0.0,0.0,0.0,0.0,0.0,0.0,0.0,0.0,0.0,0.0,0.0,0.0,0.0,0.0,0.0,0.0,0.0,0.0,0.0,0.0,0.0,0.0,0.0,0.0,0.0,0.0,0.0,0.0,0.0,0.0,0.0,0.0,0.0,0.0,0.0,0.0,0.0,0.0,0.0,0.0,0.0,0.0,0.0,0.0,0.0,0.0,0.0,0.0,0.0,0.0,0.0,0.0,0.0,0.0,0.0,0.0,0.0,0.0,0.0,0.0,0.0,0.0,0.0,0.0,0.0,0.0,0.0,0.0,0.0,0.0,0.0,0.0,0.0,0.0,0.0,0.0,-0.2132,-0.2787,-0.3341,-0.3473,-0.3913,-0.4167,-0.4091,-0.4248,-0.4287,-0.4063,0.0,0.0,0.0,0.0,0.0,0.0,0.0,0.0,0.0,0.0,0.0,0.0,0.0,0.0,0.0,0.0,0.0,0.0,0.0,0.0,0.0,0.0,0.0,0.0,0.0,0.0,0.0,0.0,0.0,0.0,0.0,0.0,0.0,0.0,0.0,0.0,0.0,0.0,0.0,0.0,0.0,0.0,0.0,0.0,0.0,0.0,0.0,0.0,0.0,0.0,0.0,0.0,0.0,0.0,0.0,0.0,0.0,0.0,0.0,0.0,0.0,0.0,0.0,0.0,0.0,0.0,0.0,0.0,0.0,0.0,0.0,0.0,0.0,0.0,0.0,0.0,0.0,0.0,0.0,0.0,0.0,0.0,0.0,0.0,0.0,0.0,0.0,0.0,0.0,0.0,0.0,0.0,0.0,0.0,0.0,0.0,0.0,0.0,0.0,0.0,0.0,0.0,-0.2206,-0.259,-0.3054,-0.3454,-0.3767,-0.4009,-0.4158,-0.4267,-0.4357,-0.4312,0.0,0.0,0.0,0.0,0.0,0.0,0.0,0.0,0.0,0.0,0.0,0.0,0.0,0.0,0.0,0.0,0.0,0.0,0.0,0.0,0.0,0.0,0.0,0.0,0.0,0.0,0.0,0.0,0.0,0.0,0.0,0.0,0.0,0.0,0.0,0.0,0.0,0.0,0.0,0.0,0.0,0.0,0.0,0.0,0.0,0.0,0.0,0.0,0.0,0.0,0.0,0.0,0.0,0.0,0.0,0.0,0.0,0.0,0.0,0.0,-0.6483,0.0,0.0,0.0,0.0,0.0,0.0,0.0,0.0,0.0,0.0,0.0,0.0,0.0,0.0,0.0,0.0,0.0,0.0,0.0,0.0,0.0,0.0,0.0,0.0,0.0,0.0,0.0,0.0,0.0,0.0,0.0,0.0,0.0,0.0,0.0,0.0,0.0,0.0,0.0,0.0,0.0,-0.2212,-0.26,-0.3012,-0.3233,-0.3853,-0.4185,-0.4146,-0.4489,-0.4593,-0.4406,-0.4158,0.0,0.0,0.0,0.0,0.0,0.0,0.0,0.0,0.0,0.0,0.0,0.0,0.0,0.0,0.0,0.0,0.0,0.0,0.0,0.0,0.0,0.0,0.0,0.0,0.0,0.0,0.0,0.0,0.0,0.0,0.0,0.0,0.0,0.0,0.0,0.0,0.0,0.0,0.0,0.0,0.0,0.0,0.0,0.0,0.0,0.0,0.0,0.0,0.0,0.0,0.0,0.0,0.0,0.0,0.0,0.0,0.0,0.0,0.0,0.0,-0.6224,0.0,0.0,0.0,0.0,0.0,0.0,0.0,0.0,0.0,0.0,0.0,0.0,0.0,0.0,0.0,0.0,0.0,0.0,0.0,0.0,0.0,0.0,0.0,0.0,0.0,0.0,0.0,0.0,0.0,0.0,0.0,0.0,0.0,0.0,0.0,0.0,0.0,0.0,0.0,0.0,-0.2245,-0.2465,-0.2775,-0.3233,-0.3648,-0.3985,-0.4122,-0.4439,-0.4582,-0.4578,-0.4261,0.0,0.0,0.0,0.0,0.0,0.0,0.0,0.0,0.0,0.0,0.0,0.0,0.0,0.0,0.0,0.0,0.0,0.0,0.0,0.0,0.0,0.0,0.0,0.0,0.0,0.0,0.0,0.0,0.0,0.0,0.0,0.0,0.0,0.0,0.0,0.0,0.0,0.0,0.0,0.0,0.0,0.0,0.0,0.0,0.0,0.0,0.0,0.0,0.0,0.0,0.0,0.0,0.0,-0.8243,-0.8142,-0.8199,-0.8037,-0.7797,-0.7476,-0.679,-0.6511,-0.6515,0.0,0.0,0.0,0.0,0.0,0.0,0.0,0.0,0.0,0.0,0.0,0.0,0.0,0.0,0.0,0.0,0.0,0.0,0.0,0.0,0.0,0.0,0.0,0.0,0.0,-0.2478,-0.2113,0.0,0.0,0.0,0.0,0.0,0.0,0.0,0.0,0.0,0.0,0.0,0.0,-0.2187,-0.219,-0.244,-0.3175,-0.332,-0.3559,-0.4047,-0.4268,-0.4457,-0.4634,-0.4354,-0.4068,0.0,0.0,0.0,0.0,0.0,0.0,0.0,0.0,0.0,0.0,0.0,0.0,0.0,0.0,0.0,0.0,0.0,0.0,0.0,0.0,0.0,0.0,0.0,0.0,0.0,0.0,0.0,0.0,0.0,0.0,0.0,0.0,-0.8776,-0.8754,0.0,0.0,0.0,0.0,0.0,0.0,0.0,0.0,0.0,0.0,0.0,0.0,0.0,-0.8765,-0.8571,-0.895,-0.9087,-0.8928,-0.8726,-0.8779,-0.9018,-0.8238,-0.8066,-0.8317,-0.7359,0.0,-0.705,-0.6454,0.0,0.0,0.0,0.0,0.0,0.0,0.0,0.0,0.0,0.0,0.0,0.0,0.0,0.0,0.0,0.0,0.0,0.0,0.0,0.0,0.0,0.0,-0.2488,-0.2547,-0.2341,-0.2022,0.0,-0.1589,-0.1317,-0.098,0.0,0.0,0.0,0.0,0.0,0.0,0.0,0.0,-0.1582,-0.1791,-0.212,-0.2658,-0.288,-0.3132,-0.3569,-0.397,-0.4186,-0.4124,-0.4064,-0.391,-0.3673,-0.3413,0.0,0.0,0.0,0.0,0.0,0.0,0.0,0.0,0.0,0.0,0.0,0.0,0.0,0.0,0.0,0.0,0.0,0.0,0.0,0.0,0.0,0.0,0.0,0.0,0.0,0.0,0.0,0.0,0.0,-0.8721,-0.8917,-0.8426,-0.8655,-0.8699,0.0,0.0,0.0,0.0,0.0,0.0,0.0,0.0,0.0,-0.866,-0.8538,-0.8453,-0.8415,-0.8259,-0.8314,-0.8578,-0.8114,-0.8007,-0.8259,-0.7775,-0.7561,-0.7603,-0.7031,-0.6823,-0.6839,-0.6367,-0.6073,-0.5886,0.0,0.0,0.0,0.0,-0.4593,-0.4302,-0.4189,-0.3954,0.0,0.0,0.0,0.0,0.0,0.0,0.0,0.0,0.0,0.0,0.0,0.0,0.0,-0.2003,-0.1738,-0.1411,-0.1297,-0.1016,-0.0778,0.0,-0.0474,-0.0368,-0.0251,0.0,0.0,0.0,0.0,-0.113,-0.1527,-0.1624,-0.1896,-0.2548,-0.2709,-0.2975,-0.3439,-0.372,-0.3934,-0.4038,-0.3856,-0.3736,-0.3584,-0.3516,-0.3417,0.0,0.0,0.0,0.0,0.0,0.0,0.0,0.0,0.0,0.0,0.0,0.0,0.0,0.0,0.0,0.0,0.0,0.0,0.0,0.0,0.0,0.0,0.0,0.0,0.0,0.0,0.0,0.0,-0.8675,-0.8795,-0.8144,-0.8435,-0.8395,0.0,0.0,0.0,0.0,0.0,0.0,-0.8268,-0.8328,-0.833,-0.8202,-0.7981,-0.7969,-0.8106,-0.7561,-0.7641,-0.8153,-0.7605,-0.7392,-0.7513,-0.7214,-0.7052,-0.6851,-0.6494,-0.6327,-0.6323,-0.6088,-0.5911,-0.5764,-0.5471,-0.5265,-0.504,-0.4777,-0.4569,-0.4315,-0.408,-0.3906,-0.3728,-0.3744,0.0,-0.3457,-0.3024,0.0,0.0,0.0,0.0,-0.2148,-0.2385,-0.1892,-0.1389,-0.1562,-0.1227,-0.0883,-0.0762,-0.0585,-0.0403,0.0,-0.0324,-0.0322,-0.0308,0.0,0.0,0.0,0.0,-0.0851,-0.132,-0.1402,-0.1718,-0.2452,-0.2575,-0.2796,-0.3338,-0.3446,-0.3612,-0.3885,-0.3651,-0.3534,-0.3534,-0.3578,-0.3529,-0.3278,0.0,0.0,0.0,0.0,0.0,0.0,0.0,0.0,0.0,0.0,0.0,0.0,0.0,0.0,0.0,0.0,0.0,0.0,0.0,0.0,0.0,0.0,0.0,0.0,0.0,0.0,0.0,0.0,0.0,-0.7999,-0.8249,0.0,0.0,0.0,0.0,-0.7541,-0.7362,-0.7301,-0.7468,-0.7263,-0.7241,-0.7345,-0.745,-0.7555,-0.7655,-0.7655,-0.7703,-0.7807,-0.7802,-0.759,-0.7239,-0.6986,-0.6769,-0.6423,-0.5866,-0.5713,-0.5708,-0.5683,-0.5597,-0.546,-0.515,-0.4915,-0.4855,-0.4932,-0.4726,-0.4426,-0.4437,-0.4195,-0.3861,-0.3918,-0.3615,-0.323,-0.2643,-0.2356,0.0,0.0,-0.1836,-0.1844,-0.1932,-0.1646,-0.1412,-0.1412,-0.1178,-0.0821,-0.052,-0.0403,-0.0404,0.0,-0.0174,0.0,0.0,0.0,0.0,-0.0053,-0.0262,-0.0518,-0.083,-0.1072,-0.1502,-0.2257,-0.2302,-0.2549,-0.309,-0.3196,-0.3256,-0.3316,-0.3368,-0.3398,-0.3403,-0.3406,-0.3406,-0.3403,-0.3143,0.0,0.0,0.0,0.0,0.0,0.0,0.0,0.0,0.0,0.0,0.0,0.0,0.0,0.0,0.0,0.0,0.0,0.0,0.0,0.0,0.0,0.0,0.0,0.0,0.0,0.0,0.0,0.0,-0.7544,-0.7822,0.0,-0.7049,-0.724,-0.7261,-0.6822,-0.6905,-0.6949,-0.6788,-0.67,-0.666,-0.6753,-0.6598,-0.6492,-0.6582,-0.6326,-0.6369,-0.6717,-0.6452,-0.636,-0.6425,-0.6145,-0.5978,-0.5726,-0.5379,-0.5253,-0.5205,-0.4978,-0.4939,-0.4991,-0.4862,-0.4564,-0.425,-0.4104,-0.3956,-0.3813,-0.3611,-0.3458,-0.3307,-0.3079,-0.2859,-0.2629,-0.1974,-0.1721,-0.1649,-0.1303,-0.1255,-0.1267,-0.1335,-0.1101,-0.0798,-0.0842,-0.0547,-0.0245,0.0119,0.0179,0.0241,0.0419,0.0174,0.0056,0.0222,0.0275,0.0326,0.0535,0.0318,-0.0053,-0.0468,-0.0775,-0.122,-0.197,-0.2084,-0.2248,-0.2598,-0.2693,-0.2796,-0.2847,-0.2815,-0.2824,-0.2824,-0.2855,-0.2873,-0.2873,-0.2631,-0.2467,0.0,0.0,0.0,0.0,0.0,0.0,0.0,0.0,0.0,0.0,0.0,0.0,0.0,0.0,0.0,0.0,0.0,0.0,0.0,0.0,0.0,0.0,0.0,0.0,0.0,0.0,-0.7676,-0.7135,-0.7306,-0.7184,-0.6567,-0.6613,-0.6519,-0.6102,-0.6356,-0.6337,-0.6066,-0.6138,-0.6149,-0.6172,-0.5915,-0.579,-0.587,-0.559,-0.5632,-0.5989,-0.5705,-0.5612,-0.5705,-0.55,-0.5276,-0.5049,-0.4724,-0.4594,-0.4594,-0.4265,-0.4047,-0.4049,-0.4356,-0.4214,-0.3907,-0.3572,-0.3415,-0.3344,-0.2981,-0.2841,-0.2777,-0.2334,-0.2123,-0.1974,-0.142,-0.1235,-0.1173,-0.0803,-0.0746,-0.0752,-0.0689,-0.0379,-0.0127,-0.0124,0.0125,0.0376,0.0611,0.0672,0.0732,0.0901,0.0527,0.0228,0.0503,0.0501,0.0498,0.0707,0.0537,0.0212,-0.0315,-0.057,-0.0968,-0.174,-0.1857,-0.2026,-0.2392,-0.2382,-0.2426,-0.2578,-0.2486,-0.244,-0.2548,-0.2633,-0.265,-0.265,-0.2356,-0.215,-0.1924,0.0,0.0,0.0,0.0,0.0,0.0,0.0,0.0,0.0,0.0,0.0,0.0,0.0,0.0,0.0,0.0,0.0,0.0,0.0,0.0,0.0,0.0,0.0,-0.6274,-0.6588,-0.6822,-0.6872,-0.6714,-0.6523,-0.6301,-0.5982,-0.568,-0.5488,-0.5566,-0.5543,-0.54,-0.546,-0.5504,-0.5502,-0.5498,-0.5529,-0.5597,-0.5532,-0.55,-0.5642,-0.5568,-0.5434,-0.5146,-0.5014,-0.4782,-0.4418,-0.4016,-0.3856,-0.3861,-0.3492,-0.3044,-0.2777,-0.354,-0.3853,-0.3769,-0.3329,-0.3161,-0.3086,-0.2714,-0.257,-0.2437,-0.1778,-0.15,-0.1418,-0.1031,-0.0967,-0.0838,-0.0451,-0.0322,-0.0258,0.0064,0.0387,0.0645,0.0644,0.0829,0.1006,0.1052,0.1037,0.1021,0.1065,0.0776,0.0657,0.0867,0.0632,0.0457,0.045,0.0437,0.0,-0.0321,-0.0363,-0.071,-0.147,-0.157,-0.1837,-0.2388,-0.2218,-0.2202,-0.2518,-0.2336,-0.2304,-0.2644,-0.2642,-0.2642,-0.2644,-0.2401,-0.199,-0.1389,0.0,0.0,0.0,0.0,0.0,0.0,0.0,0.0,0.0,0.0,0.0,0.0,0.0,0.0,0.0,0.0,0.0,0.0,0.0,0.0,0.0,0.0,-0.5367,-0.6048,-0.6189,-0.6214,-0.6116,-0.6097,-0.5996,-0.5644,-0.5633,-0.5471,-0.5077,-0.4935,-0.4838,-0.485,-0.4561,-0.4477,-0.4739,-0.4806,-0.4794,-0.4698,-0.4794,-0.4639,-0.4432,-0.4416,-0.4297,-0.3989,-0.3961,-0.383,-0.3805,-0.3646,-0.3567,-0.3569,-0.3508,-0.3207,-0.2816,-0.273,-0.2474,-0.2177,-0.1755,-0.1604,-0.1587,-0.1499,-0.1428,-0.1298,-0.0649,-0.0582,-0.058,0.0258,0.0322,0.0258,0.058,0.0709,0.0709,0.0774,0.0838,0.0898,0.0879,0.0943,0.1129,0.165,0.1708,0.183,0.2282,0.2123,0.1815,0.1333,0.1207,0.1205,0.1371,0.126,0.0,0.0339,0.0056,-0.0277,-0.0929,-0.1025,-0.1078,-0.1261,-0.1254,-0.1374,-0.1642,-0.1652,-0.179,-0.2129,-0.1873,-0.1637,-0.1419,-0.1322,-0.1095,0.0,0.0,0.0,0.0,0.0,0.0,0.0,0.0,0.0,0.0,0.0,0.0,0.0,0.0,0.0,0.0,0.0,0.0,0.0,0.0,0.0,0.0,-0.415,-0.4333,-0.4816,-0.536,-0.5631,-0.5268,-0.5221,-0.5098,-0.4857,-0.469,-0.4502,-0.4292,-0.4138,-0.4102,-0.4039,-0.3822,-0.3808,-0.3993,-0.3993,-0.3981,-0.3949,-0.3978,-0.3881,-0.372,-0.3698,-0.3642,-0.3471,-0.3453,-0.3397,0.0,-0.3072,-0.2999,-0.3,-0.265,-0.2346,0.0,0.0,0.0,0.0,0.0,-0.1013,-0.1004,-0.0858,-0.0725,-0.0464,0.0066,0.0199,0.0331,0.0921,0.0989,0.0926,0.1447,0.1576,0.1639,0.189,0.1822,0.1683,0.1645,0.1512,0.1573,0.2116,0.2239,0.2426,0.2917,0.0,0.0,0.1984,0.1766,0.1627,0.1627,0.1505,0.1154,0.0575,0.0341,0.0056,-0.0561,-0.0608,-0.0663,-0.0848,-0.0905,0.0,0.0,0.0,-0.1255,-0.1461,-0.1321,0.0,0.0,0.0,-0.0635,-0.0194,0.0,0.0,0.0,0.0388,0.0773,0.0,0.0,0.0,0.0,0.0,0.0,0.0,0.0,0.0,0.0,0.0,0.0,0.0,0.0,0.0,0.0,-0.3136,-0.2994,-0.3004,-0.4208,-0.4879,-0.4327,-0.4195,-0.408,-0.3851,-0.3505,-0.3295,-0.3295,-0.3264,-0.3272,-0.3163,0.0,0.0,0.0,0.0,-0.3239,-0.3239,-0.3309,-0.3329,-0.3295,-0.3186,-0.3187,-0.3152,-0.3115,-0.312,-0.3088,-0.2369,-0.2154,-0.2156,-0.1455,-0.108,-0.1056,-0.1777,-0.1884,-0.1474,-0.1053,-0.0896,-0.0756,-0.0408,0.0,0.0,0.0551,0.0896,0.1168,0.1222,0.1228,0.1375,0.2036,0.2232,0.2294,0.2865,0.2785,0.2575,0.2542,0.2245,0.21,0.2515,0.2621,0.2667,0.3025,0.3128,0.2973,0.2657,0.2262,0.1841,0.1544,0.1451,0.1261,0.0696,0.0624,0.0392,-0.017,0.0,0.0,-0.0697,-0.0766,-0.0836,-0.0852,-0.0867,-0.0875,-0.0873,-0.0865,-0.0813,-0.0714,-0.0716,-0.0398,0.0207,0.0276,0.0765,0.1689,0.1015,0.1346,0.0,0.0,0.0,0.0,0.0,0.0,0.0,0.0,0.0,0.0,0.0,0.0,0.0,0.0,0.0,-0.1892,-0.2105,-0.2121,-0.155,-0.2245,-0.3023,-0.3556,-0.3281,-0.3004,-0.2943,-0.2663,-0.2453,-0.2453,-0.2199,-0.2142,-0.2422,-0.2164,-0.2177,-0.2387,-0.275,-0.2967,-0.2895,-0.3256,-0.3116,-0.2542,0.0,0.0,-0.1599,-0.1595,-0.1604,-0.1623,-0.1475,-0.1401,-0.1401,-0.1257,-0.0802,-0.0285,-0.0706,-0.0644,-0.0292,0.0141,0.028,0.0279,0.0697,0.09,0.0964,0.1323,0.1537,0.1606,0.1881,0.1953,0.0,0.2159,0.2228,0.2226,0.2359,0.2338,0.2249,0.2244,0.2199,0.2158,0.2493,0.2597,0.27,0.3031,0.3089,0.3021,0.2634,0.2527,0.2304,0.1931,0.1941,0.1817,0.1366,0.1296,0.1169,0.0741,0.0487,0.0306,0.0252,0.0,-0.0311,-0.0582,-0.0864,-0.0871,-0.0596,-0.0608,-0.0273,0.0272,0.0343,0.0555,0.0978,0.1342,0.1573,0.1808,0.1546,0.2086,0.0,0.0,0.0,0.0,0.0,0.0,0.0,0.0,0.0,0.0,0.0,-0.2401,-0.2157,0.0,-0.1632,-0.1353,-0.13,-0.124,-0.1041,-0.1193,-0.1553,-0.2175,-0.2186,-0.2118,-0.1895,-0.1763,-0.1629,-0.1629,-0.1496,-0.1506,-0.1661,-0.1526,-0.1532,-0.1678,-0.1896,-0.2042,-0.1969,-0.2261,-0.2115,-0.1751,-0.1751,-0.1537,-0.1178,-0.1178,-0.1186,-0.12,-0.0969,-0.0892,-0.0892,-0.0665,-0.0367,0.0,0.0072,0.0287,0.065,0.0861,0.0859,0.0858,0.1136,0.127,0.1404,0.1627,0.1842,0.2052,0.2179,0.2256,0.2262,0.2441,0.2442,0.2517,0.269,0.2542,0.2471,0.2656,0.2409,0.2316,0.3088,0.2912,0.2752,0.3388,0.3311,0.3097,0.2899,0.2882,0.2725,0.211,0.2041,0.1913,0.1594,0.1521,0.1392,0.1084,0.0882,0.0693,0.0516,0.0387,0.0197,0.0068,0.0068,0.0206,0.0344,0.0344,0.0486,0.0921,0.0845,0.1208,0.1824,0.2042,0.2349,0.2747,0.2713,0.2988,0.0,0.0,0.0,0.0,0.0,0.0,0.0,-0.3291,-0.2849,-0.2257,-0.205,-0.178,-0.1305,-0.1273,-0.1169,-0.0918,-0.0572,-0.0431,-0.0718,-0.0435,-0.0289,-0.0638,-0.107,-0.1215,-0.0778,-0.0714,-0.0718,-0.079,-0.079,-0.0794,-0.0948,-0.0949,-0.095,-0.0952,-0.1025,-0.1099,-0.1099,-0.1172,-0.1171,-0.1095,-0.1095,-0.1027,-0.0963,-0.0963,-0.0968,-0.0977,-0.0596,-0.0519,-0.0444,-0.0147,0.0073,0.0148,0.0588,0.0944,0.1295,0.1308,0.1311,0.1308,0.1368,0.1578,0.179,0.1795,0.2011,0.2294,0.227,0.2279,0.236,0.266,0.2803,0.2882,0.3094,0.2965,0.2914,0.3084,0.2775,0.2628,0.3583,0.3261,0.2954,0.3627,0.3471,0.3238,0.323,0.3228,0.3003,0.2415,0.2189,0.2052,0.1811,0.173,0.16,0.1364,0.1224,0.1031,0.0656,0.0672,0.0688,0.0703,0.1048,0.1188,0.1202,0.1176,0.1259,0.1463,0.1435,0.1885,0.2727,0.2705,0.3084,0.3797,0.3881,0.3877,-0.4399,-0.4064,-0.3886,-0.3996,-0.3743,-0.3469,0.0,-0.2956,-0.2176,-0.2059,-0.1322,-0.0683,-0.0624,-0.0352,-0.0143,-0.0147,0.022,0.0437,0.0437,0.0729,0.1021,0.0945,0.0291,0.0,0.0363,0.0727,0.0801,0.0437,0.0437,0.0219,-0.0146,-0.0146,-0.0147,-0.0148,-0.0445,-0.0668,-0.0668,-0.1039,-0.1033,-0.0657,-0.0657,-0.0511,-0.0146,-0.0146,-0.0146,-0.0147,-0.0073,-0.0073,-0.0073,0.0,0.0219,0.0586,0.096,0.1398,0.1746,0.1749,0.1665,0.1724,0.203,0.2168,0.2223,0.2248,0.2256,0.2327,0.2324,0.2326,0.24,0.2755,0.29,0.2902,0.2893,0.3184,0.3333,0.3036,0.3149,0.3406,0.3487,0.3448,0.3332,0.337,0.3291,0.3275,0.3234,0.3228,0.3159,0.3082,0.2811,0.2598,0.2503,0.2232,0.2044,0.2075,0.174,0.1419,0.1179,0.1128,0.1139,0.1143,0.1153,0.1234,0.1235,0.1448,0.1821,0.2224,0.2588,0.3053,0.3557,0.3591,0.3765,0.4232,0.4665,0.4634,-0.3842,-0.3305,-0.2885,-0.3028,-0.2523,-0.2052,-0.2336,-0.192,-0.1412,-0.1206,-0.0825,-0.0352,0.0071,0.0287,0.0437,0.0,0.1036,0.1254,0.0959,0.1328,0.1544,0.1533,0.1239,0.1021,0.0948,0.1094,0.1095,0.0949,0.0949,0.0876,0.073,0.073,0.0734,0.0669,0.052,0.0372,0.0074,-0.0075,-0.0149,-0.0221,-0.0221,-0.0148,0.0,0.0,0.0,0.0,0.0221,0.0221,0.0,0.0221,0.0443,0.0665,0.1335,0.1481,0.1474,0.199,0.2121,0.2099,0.2256,0.2324,0.2318,0.2548,0.2478,0.2405,0.2844,0.2697,0.2401,0.3034,0.3045,0.2985,0.3179,0.3409,0.35,0.3571,0.3537,0.3655,0.4114,0.3772,0.3437,0.3656,0.3494,0.34,0.3588,0.3445,0.3377,0.3583,0.3082,0.2721,0.2638,0.2383,0.2193,0.2206,0.1862,0.1598,0.1488,0.1712,0.1722,0.1591,0.1964,0.2115,0.1824,0.2171,0.2474,0.2749,0.3099,0.3576,0.4056,0.4076,0.4488,0.5142,0.5245,0.5367,-0.3007,-0.2394,-0.1893,-0.2009,-0.1542,-0.1045,-0.1115,-0.094,-0.0617,-0.0276,-0.0071,0.0144,0.0648,0.0729,0.0887,0.1118,0.1568,0.1716,0.1412,0.1709,0.1923,0.197,0.1962,0.1816,0.1532,0.1532,0.1459,0.1386,0.1386,0.1313,0.1241,0.1168,0.1174,0.1188,0.1118,0.0896,0.0598,0.0454,0.0378,0.0149,0.0149,0.0149,0.0151,0.0149,0.0148,0.0222,0.0594,0.0592,0.0367,0.0669,0.0746,0.0818,0.156,0.1631,0.1478,0.2144,0.2278,0.2188,0.2269,0.2339,0.2333,0.2771,0.2697,0.2551,0.3136,0.2917,0.2619,0.3173,0.3112,0.2983,0.3243,0.3403,0.3573,0.3862,0.3763,0.3819,0.4436,0.4021,0.3621,0.3787,0.3619,0.345,0.3717,0.3505,0.3505,0.3855,0.3349,0.2916,0.2905,0.2728,0.254,0.254,0.2264,0.2065,0.2156,0.2229,0.2237,0.2113,0.2624,0.2771,0.2478,0.2972,0.3287,0.336,0.3716,0.4061,0.4492,0.465,0.5128,0.578,0.5877,0.6149,-0.1625,-0.131,-0.1064,-0.1059,-0.1075,-0.1012,-0.0615,-0.028,0.0071,0.0492,0.094,0.1257,0.1169,0.119,0.121,0.1211,0.1513,0.1809,0.1786,0.2155,0.2367,0.2264,0.2308,0.2303,0.0,0.226,0.2114,0.1822,0.175,0.1604,0.1241,0.1168,0.1174,0.1188,0.0827,0.0605,0.0605,0.023,0.023,0.0605,0.0598,0.0595,0.0595,0.0588,0.0584,0.0585,0.1035,0.1188,0.1189,0.128,0.1277,0.1189,0.1635,0.177,0.1824,0.2188,0.2114,0.1899,0.2293,0.2357,0.2333,0.2771,0.2917,0.2917,0.2917,0.2917,0.2915,0.2915,0.2915,0.2915,0.2915,0.3209,0.35,0.35,0.3789,0.4078,0.408,0.4078,0.3916,0.3512,0.3432,0.3416,0.3303,0.3295,0.3435,0.3855,0.3614,0.3412,0.3369,0.3402,0.343,0.343,0.3108,0.2986,0.3425,0.2768,0.2477,0.2844,0.2917,0.2917,0.2917,0.3686,0.418,0.4235,0.467,0.4882,0.5016,0.5332,0.577,0.6095,0.6633,0.6972,-0.0629,-0.0255,0.0065,0.0066,0.0201,0.0406,0.0554,0.0706,0.0857,0.0996,0.1092,0.1329,0.1518,0.1534,0.1624,0.192,0.2067,0.2132,0.2107,0.2264,0.233,0.2209,0.2301,0.0,0.0,0.0,0.0,0.2113,0.2114,0.2123,0.1993,0.1979,0.1914,0.203,0.1888,0.1666,0.1363,0.1314,0.1159,0.0984,0.0972,0.0962,0.1028,0.1242,0.124,0.1022,0.1392,0.1467,0.1249,0.1488,0.1641,0.1636,0.2026,0.2027,0.1869,0.2243,0.2157,0.1845,0.2205,0.2342,0.2333,0.2771,0.2697,0.2624,0.3136,0.2917,0.2624,0.3136,0.3136,0.299,0.3209,0.3573,0.3862,0.3573,0.401,0.4444,0.4153,0.4299,0.4439,0.4276,0.4273,0.4266,0.4248,0.4028,0.3669,0.3311,0.3299,0.3295,0.3094,0.289,0.2679,0.2679,0.2618,0.2697,0.3063,0.2866,0.2944,0.3283,0.3308,0.3312,0.3283,0.3912,0.4243,0.426,0.4654,0.4946,0.4965,0.5352,0.5748,0.6237,0.6678,0.7022,0.0383,0.0647,0.0787,0.0933,0.1007,0.1151,0.1316,0.1408,0.1421,0.1563,0.1445,0.1528,0.1843,0.1789,0.1878,0.2217,0.2304,0.2311,0.2293,0.2307,0.2308,0.2208,0.2309,0.2326,0.0,0.0,0.0,0.2333,0.2343,0.2353,0.2361,0.2343,0.2361,0.2421,0.2272,0.2053,0.1842,0.1714,0.1629,0.1439,0.1426,0.1409,0.1459,0.1677,0.1677,0.146,0.1832,0.1835,0.1618,0.1945,0.2028,0.2022,0.2352,0.228,0.2043,0.2336,0.2246,0.2078,0.2282,0.2342,0.2333,0.2771,0.2698,0.2624,0.3136,0.299,0.2771,0.3209,0.3063,0.299,0.3209,0.3512,0.3665,0.3504,0.3878,0.425,0.3939,0.401,0.401,0.3862,0.3862,0.3862,0.3862,0.3732,0.3522,0.3011,0.3209,0.3341,0.2915,0.2781,0.2711,0.2698,0.2709,0.2857,0.3281,0.3246,0.3333,0.3747,0.379,0.3803,0.3771,0.419,0.4517,0.4667,0.4992,0.5277,0.5432,0.5816,0.6136,0.6467,0.691,0.7176,0.1434,0.1436,0.124,0.1564,0.136,0.1284,0.1646,0.1738,0.1823,0.2102,0.1984,0.1843,0.2136,0.1964,0.1913,0.2141,0.2251,0.2292,0.2293,0.2293,0.2303,0.0,0.0,0.0,0.0,0.0,0.0,0.2335,0.0,0.2365,0.2337,0.2334,0.2361,0.2421,0.2044,0.1839,0.1962,0.1569,0.1549,0.1815,0.1814,0.1791,0.1822,0.1822,0.1822,0.1824,0.2217,0.2378,0.238,0.244,0.2447,0.2424,0.2453,0.2448,0.2423,0.2391,0.2382,0.2383,0.238,0.236,0.2333,0.2771,0.2844,0.2844,0.2844,0.3137,0.3358,0.2993,0.2847,0.2849,0.2849,0.2949,0.3041,0.3368,0.3537,0.3557,0.351,0.3209,0.2844,0.2405,0.2333,0.2333,0.2407,0.2728,0.3048,0.3051,0.3348,0.3407,0.3,0.3246,0.3477,0.3512,0.3471,0.3699,0.4092,0.3771,0.3797,0.4238,0.4289,0.4318,0.4391,0.4749,0.5166,0.5627,0.5693,0.5883,0.6275,0.6662,0.6859,0.6788,0.7247,0.7431,0.1905,0.212,0.2271,0.2093,0.1957,0.1966,0.2083,0.21,0.2099,0.2217,0.1956,0.1807,0.2052,0.1896,0.1802,0.2134,0.2251,0.2298,0.2319,0.2322,0.2318,0.2303,0.232,0.2324,0.2304,0.2348,0.0,0.0,0.2361,0.2375,0.2367,0.2345,0.2361,0.2421,0.2272,0.2289,0.2325,0.2228,0.2199,0.2239,0.2219,0.2201,0.2187,0.2187,0.2187,0.2188,0.2365,0.2365,0.2348,0.2386,0.2397,0.239,0.2398,0.2424,0.2454,0.2423,0.2427,0.2443,0.242,0.2378,0.2333,0.2405,0.2478,0.2478,0.2478,0.2569,0.2662,0.2588,0.2532,0.2551,0.2551,0.2782,0.2931,0.2746,0.3115,0.3407,0.3145,0.3209,0.3281,0.3209,0.3209,0.3291,0.369,0.3559,0.358,0.3913,0.3767,0.361,0.345,0.3477,0.3539,0.3667,0.3582,0.3727,0.4197,0.3868,0.3957,0.46,0.4421,0.4586,0.5147,0.5361,0.5627,0.6012,0.6082,0.6196,0.6275,0.6685,0.6833,0.687,0.7289,0.7594,0.2793,0.2744,0.2697,0.2713,0.2434,0.2231,0.2198,0.2206,0.2193,0.215,0.1885,0.1742,0.2076,0.1861,0.1843,0.2129,0.2251,0.2305,0.2346,0.2341,0.2331,0.233,0.2354,0.2356,0.2313,0.2363,0.238,0.0,0.2361,0.2372,0.2358,0.2342,0.2354,0.2402,0.2403,0.2431,0.2488,0.2446,0.2421,0.2417,0.2373,0.2346,0.2333,0.2333,0.2333,0.2334,0.0,0.2349,0.2335,0.2365,0.2378,0.2379,0.2393,0.2418,0.2447,0.2429,0.2435,0.2447,0.2429,0.2401,0.2372,0.2372,0.2372,0.2372,0.2372,0.2459,0.2698,0.2698,0.2636,0.2651,0.2651,0.2889,0.2969,0.2707,0.3011,0.3238,0.2975,0.2966,0.3115,0.3263,0.3337,0.3493,0.3889,0.3763,0.3711,0.3964,0.3968,0.3975,0.392,0.3706,0.3525,0.348,0.3706,0.3931,0.4011,0.4362,0.4688,0.5114,0.5171,0.5343,0.5842,0.5881,0.6058,0.6527,0.6566,0.6666,0.6822,0.7011,0.7247,0.7451,0.7631,0.8024,0.3643,0.3234,0.2836,0.3135,0.2709,0.2214,0.221,0.2207,0.2189,0.2138,0.1802,0.1672,0.1993,0.1847,0.1758,0.2121,0.2245,0.2233,0.2364,0.2346,0.2338,0.2368,0.2399,0.2395,0.2338,0.2384,0.2395,0.2343,0.2363,0.2365,0.2334,0.2333,0.2346,0.2378,0.2382,0.242,0.2495,0.2444,0.2429,0.245,0.2398,0.2358,0.2333,0.2333,0.2333,0.2333,0.0,0.0,0.2335,0.2365,0.2378,0.238,0.2402,0.2417,0.2423,0.2418,0.242,0.2424,0.2428,0.2429,0.2429,0.2425,0.2424,0.2424,0.2424,0.2654,0.2962,0.2962,0.2965,0.2969,0.2969,0.2994,0.3007,0.297,0.2985,0.2999,0.2962,0.2651,0.2575,0.3029,0.3105,0.3258,0.3717,0.3827,0.3779,0.3863,0.4174,0.4422,0.4469,0.411,0.3682,0.3351,0.3988,0.4225,0.3881,0.4913,0.564,0.564,0.6004,0.6275,0.6275,0.6353,0.6587,0.6982,0.706,0.7217,0.7603,0.7681,0.792,0.8315,0.8315,0.8471,0.349,0.3257,0.3021,0.2794,0.2386,0.211,0.2086,0.206,0.2046,0.2061,0.1788,0.1646,0.1963,0.1573,0.1415,0.2095,0.2006,0.1919,0.226,0.2316,0.2308,0.2337,0.2367,0.2372,0.2337,0.2365,0.0,0.0,0.0,0.2365,0.2334,0.2333,0.2346,0.2378,0.2402,0.2412,0.2402,0.2391,0.2376,0.2356,0.2346,0.2338,0.2333,0.2333,0.2333,0.2334,0.236,0.0,0.2335,0.2365,0.2378,0.2376,0.2356,0.2379,0.242,0.2395,0.2402,0.2427,0.2453,0.2461,0.2457,0.2432,0.2424,0.2424,0.2424,0.2518,0.2614,0.2614,0.2557,0.2577,0.2577,0.2581,0.2577,0.2623,0.2619,0.2614,0.2507,0.2424,0.2575,0.3029,0.3105,0.3343,0.4144,0.4312,0.441,0.4686,0.4849,0.4852,0.4863,0.4696,0.4588,0.467,0.4725,0.4951,0.53,0.5549,0.5633,0.5633,0.6033,0.6275,0.6275,0.6587,0.6978,0.7369,0.7764,0.8002,0.808,0.8388,0.8622,0.87,0.87,0.8934,0.3888,0.3652,0.3425,0.3003,0.2651,0.2293,0.2114,0.2029,0.2019,0.2019,0.1756,0.1629,0.1973,0.1558,0.1327,0.2103,0.1789,0.1623,0.2291,0.2207,0.2126,0.2302,0.2393,0.239,0.236,0.2369,0.2384,0.0,0.0,0.2388,0.2358,0.2342,0.22,0.2079,0.2079,0.2018,0.1818,0.202,0.2089,0.2028,0.2223,0.2348,0.2333,0.2333,0.2333,0.2334,0.2348,0.0,0.2334,0.2349,0.2354,0.2353,0.2338,0.236,0.2398,0.2383,0.2398,0.2428,0.2458,0.2469,0.2469,0.247,0.247,0.247,0.247,0.2481,0.2492,0.2492,0.2503,0.2514,0.2514,0.2671,0.2823,0.2806,0.3035,0.3032,0.2552,0.2779,0.3165,0.3396,0.3627,0.3944,0.4587,0.4745,0.4756,0.4938,0.5022,0.5022,0.5022,0.4973,0.4882,0.4703,0.4841,0.507,0.5332,0.5727,0.6118,0.6278,0.6666,0.69,0.69,0.7135,0.7451,0.7842,0.808,0.8315,0.8549,0.87,0.8934,0.909,0.909,0.9324,0.4333,0.4037,0.3696,0.3272,0.2911,0.2473,0.2078,0.1994,0.1988,0.1916,0.172,0.1668,0.1851,0.1477,0.1366,0.1963,0.1635,0.1533,0.2301,0.2004,0.1925,0.2326,0.234,0.2336,0.238,0.2384,0.0,0.0,0.0,0.0,0.239,0.2358,0.2132,0.1782,0.1834,0.1701,0.1447,0.157,0.172,0.1906,0.2167,0.2209,0.2187,0.226,0.226,0.2187,0.226,0.0,0.0,0.2333,0.2333,0.2333,0.2333,0.2352,0.2378,0.2378,0.2398,0.2428,0.2458,0.2469,0.2474,0.2504,0.2514,0.2514,0.2514,0.2514,0.2514,0.2357,0.2357,0.2357,0.2278,0.2512,0.2905,0.306,0.3376,0.3454,0.2749,0.314,0.3689,0.3768,0.4162,0.4554,0.4944,0.5022,0.5022,0.5022,0.5022,0.5022,0.5022,0.5022,0.4865,0.4554,0.4865,0.5179,0.5257,0.5962,0.6587,0.6904,0.7291,0.7447,0.7369,0.7447,0.7681,0.8076,0.8159,0.8393,0.8778,0.8856,0.9168,0.9558,0.9558,0.9708,0.4243,0.4037,0.3677,0.3195,0.2847,0.2494,0.202,0.1918,0.1853,0.1597,0.169,0.1681,0.1192,0.1328,0.1533,0.1646,0.1588,0.1756,0.2215,0.1941,0.1876,0.2265,0.2017,0.2035,0.238,0.2403,0.0,0.0,0.0,0.0,0.2421,0.239,0.2226,0.1783,0.1834,0.1753,0.1759,0.139,0.1609,0.2272,0.1974,0.1825,0.1822,0.2187,0.2114,0.1895,0.2187,0.0,0.0,0.2333,0.2333,0.2333,0.2333,0.2352,0.2378,0.2378,0.2398,0.2428,0.2458,0.2469,0.2474,0.2504,0.2514,0.2514,0.2514,0.2514,0.2435,0.2043,0.1964,0.1886,0.1493,0.1728,0.22,0.2903,0.3139,0.3139,0.3062,0.3139,0.3297,0.3689,0.4162,0.4554,0.4944,0.5022,0.5022,0.5022,0.5022,0.5022,0.5022,0.5022,0.5022,0.4944,0.5335,0.5808,0.6118,0.6587,0.6826,0.6904,0.7291,0.7369,0.6982,0.7291,0.7525,0.7525,0.7998,0.8393,0.8778,0.9168,0.9553,0.9942,0.9942,0.9942,0.4176,0.396,0.3598,0.317,0.28,0.2427,0.1979,0.188,0.1817,0.1754,0.1676,0.1614,0.1627,0.1378,0.1254,0.1472,0.123,0.1192,0.1874,0.1618,0.1644,0.2278,0.2233,0.2256,0.0,0.0,0.0,0.0,0.0,0.0,0.2478,0.2188,0.1864,0.1502,0.1253,0.1098,0.1107,0.1181,0.1475,0.1991,0.2139,0.213,0.2114,0.226,0.226,0.2114,0.226,0.0,0.0,0.2333,0.2333,0.2333,0.2333,0.2352,0.2376,0.2357,0.2382,0.2425,0.2438,0.2454,0.2474,0.2504,0.2514,0.2435,0.22,0.2111,0.2024,0.1646,0.1571,0.1493,0.1336,0.1807,0.2435,0.2983,0.3297,0.3376,0.2826,0.314,0.3611,0.3768,0.4162,0.4554,0.4944,0.5022,0.5022,0.5022,0.5022,0.51,0.5414,0.5179,0.5176,0.5724,0.5727,0.5883,0.6275,0.6666,0.6982,0.7213,0.7447,0.7447,0.7291,0.7447,0.7603,0.792,0.808,0.8549,0.9168,0.9324,0.9636,1.0019,1.0019,1.0019,0.3804,0.3744,0.3482,0.3031,0.2713,0.2389,0.1971,0.1869,0.1797,0.1788,0.1663,0.1552,0.1679,0.1492,0.1365,0.1447,0.1087,0.1049,0.1777,0.1466,0.15,0.2282,0.0,0.232,0.0,0.2458,0.0,0.0,0.0,0.0,0.0,0.1823,0.1576,0.1286,0.0813,0.066,0.074,0.0961,0.133,0.1921,0.1996,0.199,0.198,0.1972,0.1973,0.1979,0.0,0.0,0.0,0.2342,0.2341,0.2334,0.2342,0.236,0.2376,0.2354,0.2384,0.2436,0.2436,0.2457,0.2487,0.2507,0.243,0.2267,0.1962,0.1952,0.1943,0.1567,0.1414,0.1336,0.1414,0.1964,0.2592,0.2983,0.3376,0.3454,0.2828,0.314,0.3611,0.3611,0.4005,0.4476,0.4787,0.4944,0.5022,0.5022,0.5022,0.51,0.5414,0.5179,0.5254,0.588,0.5805,0.5883,0.6431,0.6822,0.7213,0.7447,0.7525,0.7525,0.7525,0.7525,0.7681,0.7998,0.8159,0.8544,0.9246,0.9354,0.9667,1.0019,1.0057,1.0074,0.3024,0.328,0.3415,0.2773,0.2523,0.2396,0.1998,0.1825,0.1733,0.1469,0.165,0.1726,0.1105,0.1544,0.1861,0.1573,0.1469,0.1637,0.2118,0.1548,0.1366,0.2184,0.1991,0.1932,0.2379,0.0,0.0,0.0,0.0,0.0,0.0,0.1296,0.1287,0.1287,0.0813,0.0803,0.1168,0.0803,0.1167,0.226,0.1533,0.1249,0.1188,0.1247,0.1175,0.0,0.0,0.0,0.0,0.2365,0.236,0.2335,0.2365,0.2378,0.2378,0.2378,0.2416,0.2469,0.2469,0.2488,0.2514,0.2514,0.2182,0.1856,0.1878,0.22,0.2435,0.2043,0.1571,0.1414,0.1807,0.22,0.2592,0.2983,0.3139,0.3139,0.306,0.3139,0.3139,0.3139,0.3768,0.4397,0.4397,0.4709,0.5022,0.5022,0.5022,0.5022,0.5022,0.5022,0.5022,0.5022,0.5335,0.5965,0.6826,0.7291,0.7525,0.7525,0.7525,0.7525,0.7525,0.7525,0.7525,0.7525,0.7998,0.8393,0.8778,0.9356,0.9745,1.0025,1.0144,1.0204,0.2997,0.2877,0.2737,0.2582,0.2107,0.1762,0.1812,0.1665,0.1477,0.1618,0.1813,0.1838,0.1635,0.1839,0.1861,0.1573,0.1546,0.165,0.1824,0.1652,0.1685,0.2227,0.2184,0.2209,0.0,0.0,0.0,0.0,0.0,0.0,0.0,0.1839,0.1358,0.0823,0.0442,0.0511,0.1168,0.081,0.103,0.1968,0.1472,0.1184,0.1188,0.1184,0.0,0.0,0.0,0.0,0.0,0.2365,0.2372,0.2367,0.2398,0.2409,0.2409,0.2409,0.2435,0.2469,0.2469,0.232,0.2172,0.2405,0.2001,0.1524,0.2066,0.1927,0.1552,0.1474,0.1327,0.1409,0.177,0.194,0.22,0.2592,0.2687,0.2784,0.2784,0.2941,0.3241,0.35,0.3981,0.4464,0.4738,0.4917,0.5022,0.5022,0.5022,0.51,0.5414,0.5179,0.5254,0.5805,0.5727,0.5883,0.6431,0.6822,0.7213,0.7447,0.7525,0.7525,0.7525,0.7525,0.7525,0.7525,0.7681,0.8076,0.8778,0.9041,0.9585,1.0269,1.0226,1.0248,0.244,0.2501,0.2367,0.2282,0.1884,0.1613,0.1797,0.1654,0.1522,0.1776,0.1865,0.1895,0.1925,0.1964,0.1936,0.17,0.1617,0.1656,0.1881,0.178,0.1817,0.2285,0.0,0.0,0.0,0.0,0.0,0.0,0.0,0.0,0.0,0.1909,0.1503,0.0813,0.0586,0.0657,0.1168,0.0957,0.1106,0.1542,0.1185,0.0971,0.0979,0.0821,0.0,0.0,0.0,0.0,0.0,0.2303,0.2388,0.2383,0.2424,0.2433,0.2424,0.2424,0.2443,0.2469,0.2469,0.2315,0.216,0.2392,0.2142,0.1741,0.2044,0.191,0.1696,0.1687,0.17,0.1786,0.198,0.2075,0.2185,0.2419,0.2529,0.264,0.264,0.2879,0.3262,0.3448,0.3997,0.4466,0.4665,0.4841,0.5022,0.5022,0.5022,0.51,0.5414,0.5179,0.5176,0.5724,0.5727,0.5805,0.6275,0.6666,0.706,0.7447,0.7525,0.7525,0.7525,0.7525,0.7525,0.7525,0.7838,0.8246,0.8914,0.9337,0.9848,1.0449,1.0373,1.0378,0.0,0.2032,0.2239,0.1911,0.1819,0.1786,0.187,0.1834,0.0,0.1776,0.1865,0.1895,0.1925,0.1979,0.2019,0.2022,0.1813,0.1791,0.2154,0.193,0.0,0.0,0.2308,0.0,0.0,0.0,0.0,0.0,0.0,0.0,0.0,0.1664,0.1646,0.1242,0.1241,0.1241,0.1241,0.1168,0.1175,0.1188,0.0744,0.0528,0.0539,0.0151,0.0,0.0,0.0,0.0,0.0,0.2248,0.2406,0.2387,0.2448,0.2455,0.2429,0.2429,0.2448,0.2472,0.2472,0.2469,0.2465,0.2384,0.2364,0.2342,0.1888,0.2134,0.2459,0.2429,0.2443,0.2458,0.2425,0.2442,0.2466,0.2469,0.2515,0.256,0.2562,0.2882,0.32,0.3276,0.3882,0.4402,0.4476,0.4789,0.5025,0.5022,0.5022,0.5022,0.5022,0.5022,0.5022,0.5022,0.5335,0.5805,0.6275,0.6666,0.706,0.7447,0.7525,0.7525,0.7525,0.7525,0.7525,0.7525,0.8393,0.8919,0.902,0.9928,1.0449,1.065,1.0558,1.0558,0.1067,0.0,0.1529,0.1459,0.1405,0.1463,0.0,0.1621,0.1466,0.1719,0.1865,0.1895,0.1925,0.1979,0.2089,0.2435,0.2236,0.2155,0.2527,0.227,0.0,0.2182,0.2241,0.0,0.0,0.0,0.0,0.0,0.0,0.0,0.0,0.2239,0.2076,0.1678,0.1895,0.1895,0.1677,0.1031,0.0886,0.1173,0.0449,0.0151,0.0152,0.0076,0.0,0.0,0.0,0.0,0.1826,0.2248,0.242,0.2418,0.248,0.2499,0.2493,0.2493,0.2497,0.2503,0.2503,0.2241,0.1896,0.1638,0.1845,0.2281,0.1912,0.2092,0.2428,0.2398,0.241,0.2421,0.2368,0.2394,0.244,0.2463,0.2515,0.2566,0.2587,0.2915,0.3311,0.3603,0.4068,0.4524,0.4795,0.4981,0.5074,0.5027,0.5022,0.5022,0.5022,0.5022,0.5022,0.5022,0.5414,0.5883,0.6275,0.6666,0.706,0.7447,0.7525,0.7525,0.7525,0.7525,0.7525,0.7525,0.8457,0.9024,0.905,0.9965,1.0492,1.0693,1.0601,1.0606,0.0615,0.0902,0.113,0.1278,0.1289,0.1412,0.1722,0.1672,0.1575,0.1759,0.1843,0.1874,0.1904,0.197,0.2092,0.2317,0.2247,0.2238,0.2423,0.0,0.2243,0.2175,0.2255,0.0,0.0,0.0,0.0,0.0,0.0,0.0,0.0,0.235,0.2197,0.1735,0.2108,0.1968,0.124,0.1028,0.0811,0.0663,0.0225,0.0,0.0,0.0,0.0154,0.0,0.0,0.0,0.1546,0.2178,0.2424,0.2429,0.2491,0.2514,0.2514,0.2514,0.2514,0.2514,0.2514,0.2329,0.2054,0.1855,0.1987,0.2277,0.2118,0.2209,0.2379,0.2363,0.2379,0.2391,0.2345,0.2368,0.2406,0.2423,0.2484,0.2547,0.2577,0.2905,0.3225,0.3465,0.4092,0.4539,0.4719,0.4936,0.5123,0.5033,0.5044,0.5052,0.5025,0.5022,0.51,0.5257,0.5727,0.6118,0.6509,0.6978,0.7291,0.7525,0.7525,0.7525,0.7525,0.7525,0.7603,0.7842,0.8609,0.9186,0.9411,1.0166,1.0612,1.0737,1.0672,1.0672,0.0225,0.0514,0.0806,0.1068,0.1191,0.1316,0.1627,0.1735,0.1742,0.1806,0.1834,0.1865,0.1899,0.1975,0.2041,0.2131,0.2249,0.231,0.23,0.2327,0.2335,0.2248,0.2285,0.0,0.0,0.0,0.0,0.0,0.0,0.0,0.0,0.2166,0.1953,0.1503,0.1883,0.1605,0.0511,0.0949,0.0807,0.0074,0.0,0.0,0.0,0.0,0.0,0.0,0.0,0.0,0.1268,0.2115,0.2431,0.2436,0.2492,0.2435,0.2435,0.2514,0.2435,0.2435,0.2508,0.2491,0.2459,0.2403,0.2382,0.2373,0.2348,0.2337,0.2333,0.2405,0.2425,0.2365,0.2339,0.2356,0.2379,0.2384,0.2451,0.2522,0.2553,0.2874,0.32,0.3325,0.3936,0.4443,0.4493,0.4875,0.5139,0.5036,0.5066,0.5079,0.5027,0.5022,0.5179,0.5573,0.604,0.6431,0.6904,0.7291,0.7533,0.7546,0.7533,0.7525,0.7525,0.7525,0.769,0.8102,0.8753,0.9335,0.9759,1.0381,1.0737,1.0737,1.0737,1.0737,-0.0285,-0.0059,0.0177,0.0446,0.0731,0.1027,0.1327,0.1388,0.147,0.1803,0.1896,0.1934,0.1988,0.2052,0.2162,0.2496,0.2796,0.2978,0.0,0.0,0.2536,0.224,0.0,0.0,0.0,0.0,0.0,0.0,0.0,0.0,0.0,0.1497,0.1147,0.0715,0.116,0.0949,0.0073,0.0803,0.095,0.0512,0.015,0.0,0.0,0.0,0.0,0.0,0.0,0.122,0.1285,0.2142,0.2462,0.2465,0.25,0.2278,0.2043,0.2357,0.2278,0.2039,0.2408,0.2473,0.2463,0.2428,0.2399,0.2378,0.2372,0.2353,0.2405,0.2697,0.2556,0.2338,0.2334,0.2356,0.2384,0.241,0.2466,0.2522,0.2553,0.2856,0.3248,0.3727,0.4121,0.4447,0.4923,0.4992,0.5041,0.5025,0.5027,0.503,0.5022,0.5022,0.5179,0.5651,0.604,0.6431,0.6904,0.7291,0.7558,0.7635,0.757,0.7525,0.7525,0.7525,0.7562,0.7798,0.8625,0.9212,0.9385,1.0257,1.0737,1.0737,1.0737,1.0737,-0.0283,-0.0173,-0.0175,0.0113,0.0409,0.0719,0.1035,0.1211,0.1404,0.1589,0.1791,0.1944,0.1988,0.2059,0.2252,0.2625,0.0,0.2638,0.2676,0.253,0.0,0.0,0.0,0.0,0.0,0.0,0.0,0.0,0.0,0.0,0.0,0.0,0.1065,0.0858,0.1072,0.0932,0.0361,0.0717,0.0648,0.0292,0.0298,0.0225,0.0,0.0,0.0154,0.0382,0.0,0.1357,0.1576,0.2204,0.2444,0.2448,0.2496,0.2357,0.2277,0.2418,0.2344,0.2275,0.2402,0.248,0.2488,0.2458,0.2439,0.2421,0.2388,0.2368,0.2354,0.2557,0.2478,0.2337,0.2647,0.2516,0.2386,0.2416,0.2458,0.2576,0.2843,0.298,0.3212,0.3769,0.4115,0.4454,0.466,0.4936,0.5098,0.503,0.5207,0.5376,0.5341,0.557,0.5883,0.6278,0.6513,0.6822,0.7213,0.7369,0.7542,0.7586,0.7595,0.7578,0.7529,0.7574,0.7777,0.8057,0.8769,0.9361,0.9655,1.0346,1.0737,1.0737,1.0737,1.0737,-0.0336,-0.0285,-0.0231,-0.0058,0.0179,0.0429,0.0831,0.113,0.1317,0.1484,0.1746,0.1959,0.1982,0.2119,0.2324,0.2646,0.2638,0.2636,0.2665,0.0,0.0,0.0,0.0,0.0,0.0,0.0,0.0,0.0,0.0,0.0,0.0,0.0,0.113,0.1073,0.1134,0.099,0.057,0.0707,0.0498,0.0145,0.044,0.0443,0.0222,0.0225,0.0453,0.0757,0.1199,0.1492,0.1867,0.2262,0.2352,0.2286,0.233,0.2352,0.2354,0.2255,0.2339,0.2511,0.2488,0.2495,0.251,0.2487,0.2474,0.2538,0.2564,0.247,0.2459,0.2581,0.2501,0.2432,0.2746,0.2682,0.2546,0.2427,0.2533,0.2718,0.3055,0.3189,0.3417,0.3884,0.4257,0.4544,0.4569,0.488,0.515,0.5136,0.5481,0.5728,0.5814,0.6118,0.6431,0.6826,0.6904,0.706,0.7447,0.7546,0.755,0.7525,0.7611,0.7623,0.7529,0.7615,0.7831,0.8171,0.8906,0.9424,0.9778,1.0361,1.0737,1.0737,1.0737,1.0737,-0.0837,-0.0459,0.0,0.0,0.0,0.0174,0.0764,0.0944,0.1185,0.1742,0.1911,0.2012,0.2015,0.2325,0.2573,0.2578,0.3206,0.3434,0.0,0.0,0.0,0.0,0.0,0.0,0.0,0.0,0.0,0.0,0.0,0.0,0.0,0.0,0.0,0.1073,0.1072,0.0924,0.0492,0.0924,0.0924,0.0492,0.0499,0.0722,0.1024,0.1036,0.1048,0.1211,0.1588,0.1739,0.1815,0.2271,0.2212,0.1849,0.1853,0.1867,0.1886,0.1491,0.1885,0.2514,0.2512,0.2512,0.2514,0.2512,0.2492,0.2546,0.2927,0.2748,0.2571,0.3323,0.2944,0.241,0.2459,0.2774,0.296,0.2612,0.2799,0.3058,0.306,0.342,0.3792,0.4236,0.4595,0.4901,0.5008,0.5112,0.5194,0.5587,0.567,0.5808,0.6206,0.6275,0.6431,0.6826,0.6904,0.706,0.7447,0.7603,0.7615,0.7529,0.7611,0.7623,0.7529,0.7615,0.7781,0.7867,0.878,0.938,0.9476,1.0315,1.0737,1.0737,1.0737,1.0737,-0.0496,-0.0283,-0.0233,-0.0059,0.0,0.0117,0.0536,0.085,0.111,0.155,0.2018,0.2438,0.2655,0.2704,0.2805,0.3206,0.3377,0.3467,0.0,0.0,0.0,0.0,0.0,0.0,0.0,0.0,0.0,0.0,0.0,0.0,0.0,0.0,0.0,0.1483,0.1252,0.1173,0.1247,0.1173,0.1168,0.1163,0.0979,0.085,0.0712,0.1011,0.1238,0.1536,0.1695,0.1923,0.2072,0.2014,0.1961,0.1757,0.1551,0.1643,0.1884,0.1713,0.1951,0.2508,0.2472,0.2482,0.2511,0.2492,0.2646,0.2881,0.3015,0.3152,0.3288,0.3565,0.3406,0.3181,0.2889,0.2979,0.3074,0.2878,0.2974,0.3219,0.3768,0.3811,0.3955,0.4665,0.4873,0.5027,0.5147,0.5411,0.5656,0.5817,0.6181,0.646,0.6346,0.6773,0.6978,0.6904,0.7138,0.7369,0.7525,0.7611,0.7623,0.7533,0.7611,0.7648,0.7611,0.7701,0.8033,0.8698,0.9127,0.9613,1.0237,1.057,1.0737,1.0737,1.0737,1.0737,-0.0331,-0.0226,-0.0233,-0.0059,0.0059,0.0239,0.0609,0.0806,0.1132,0.1585,0.2177,0.2718,0.3007,0.3037,0.3123,0.0,0.3575,0.0,0.0,0.0,0.0,0.0,0.0,0.0,0.0,0.0,0.0,0.0,0.0,0.0,0.0,0.0,0.0,0.0,0.1574,0.1494,0.1639,0.1427,0.1352,0.1414,0.1304,0.118,0.1046,0.1343,0.1568,0.1719,0.174,0.1822,0.197,0.1693,0.1567,0.1366,0.1007,0.125,0.1639,0.1632,0.2023,0.2495,0.2463,0.2557,0.2667,0.2723,0.2886,0.3133,0.3407,0.3479,0.3558,0.382,0.3816,0.3682,0.3405,0.3403,0.3483,0.3366,0.3454,0.3689,0.4241,0.4121,0.4115,0.4929,0.5079,0.5087,0.521,0.5494,0.5748,0.5887,0.6492,0.6766,0.6633,0.7133,0.7479,0.7138,0.7369,0.7525,0.7525,0.7582,0.7595,0.7529,0.7769,0.7886,0.7861,0.8054,0.8554,0.9193,0.9496,0.9903,1.0487,1.0654,1.0737,1.0737,1.0737,1.0737,-0.0447,-0.023,0.0,0.0,0.0241,0.0608,0.0941,0.0999,0.1246,0.1988,0.2386,0.271,0.3033,0.3353,0.0,0.3162,0.0,0.0,0.0,0.0,0.0,0.0,0.0,0.0,0.0,0.0,0.0,0.0,0.0,0.0,0.0,0.0,0.0,0.0,0.22,0.1981,0.1616,0.1638,0.1502,0.1077,0.1414,0.1831,0.22,0.2162,0.205,0.1719,0.1739,0.1604,0.1168,0.1168,0.0963,0.0531,0.0153,0.0463,0.1235,0.1251,0.1792,0.2473,0.2503,0.2748,0.3139,0.3139,0.3139,0.3288,0.4024,0.3733,0.3288,0.4101,0.4044,0.3768,0.3846,0.4124,0.4333,0.3914,0.4084,0.4397,0.4397,0.4357,0.4427,0.5008,0.5112,0.515,0.5273,0.5343,0.553,0.5878,0.6282,0.6724,0.697,0.7425,0.7627,0.7533,0.7525,0.7525,0.7525,0.7525,0.7525,0.7525,0.8006,0.8256,0.8241,0.8819,0.9088,0.9088,0.9793,1.007,1.007,1.0487,1.0737,1.0737,1.0737,1.0737,-0.0168,-0.0057,0.0059,0.0296,0.0426,0.0625,0.1197,0.1384,0.1701,0.2635,0.2667,0.2864,0.357,0.3711,0.0,0.0,0.0,0.0,0.0,0.0,0.0,0.0,0.0,0.0,0.0,0.0,0.0,0.0,0.0,0.0,0.0,0.0,0.0,0.0,0.2169,0.2163,0.2019,0.2028,0.1826,0.1481,0.1548,0.1687,0.1762,0.1855,0.1811,0.1695,0.1503,0.1302,0.1168,0.1179,0.0816,0.0225,0.0383,0.0767,0.122,0.1235,0.177,0.2515,0.2829,0.3004,0.3103,0.3103,0.3509,0.3922,0.3595,0.3679,0.4079,0.43,0.4307,0.4319,0.4552,0.4696,0.4688,0.4314,0.4319,0.4466,0.474,0.4515,0.4539,0.4962,0.5082,0.5136,0.5215,0.5775,0.6308,0.6368,0.7027,0.7541,0.7525,0.7346,0.7311,0.7455,0.7525,0.7525,0.7525,0.7525,0.7554,0.7619,0.8357,0.8711,0.8438,0.8964,0.9399,0.9803,1.0039,1.0237,1.0487,1.0654,1.0737,1.0737,1.0737,1.0737,-0.0058,0.0119,0.0243,0.043,0.0693,0.1094,0.1682,0.1869,0.2189,0.2988,0.3065,0.3189,0.3922,0.3961,0.0,0.0,0.0,0.0,0.0,0.0,0.0,0.0,0.0,0.0,0.0,0.0,0.0,0.0,0.0,0.0,0.0,0.0,0.0,0.0,0.2019,0.1952,0.1952,0.1818,0.1616,0.1414,0.1414,0.1414,0.1415,0.1434,0.1385,0.1194,0.0858,0.0797,0.0949,0.0809,0.0518,0.0298,0.0529,0.0832,0.1204,0.1372,0.1823,0.2483,0.2873,0.3197,0.3295,0.3311,0.3798,0.4211,0.3585,0.3753,0.4158,0.4137,0.4224,0.4476,0.4709,0.4865,0.4944,0.4709,0.463,0.4696,0.4871,0.4732,0.4686,0.4938,0.5049,0.5104,0.5188,0.5806,0.6335,0.6361,0.7106,0.7717,0.7738,0.7477,0.735,0.7459,0.7558,0.7566,0.7529,0.7558,0.7682,0.7894,0.8687,0.9083,0.9064,0.9539,0.9932,1.0252,1.0299,1.0487,1.0737,1.0737,1.0737,1.0737,1.0737,1.0737,0.0,0.025,0.0509,0.0587,0.1119,0.1723,0.2148,0.2467,0.2775,0.3105,0.3332,0.3634,0.4068,0.4058,0.4065,0.0,0.0,0.0,0.0,0.0,0.0,0.0,0.0,0.0,0.0,0.0,0.0,0.0,0.0,0.0,0.0,0.0,0.0,0.2223,0.1818,0.1683,0.1683,0.1346,0.1144,0.0,0.1077,0.101,0.101,0.1023,0.083,0.0422,0.0144,0.0219,0.0584,0.0219,0.0294,0.0668,0.0669,0.0966,0.1263,0.1655,0.2025,0.2453,0.2936,0.3328,0.3639,0.3686,0.4013,0.4246,0.3861,0.3813,0.3838,0.3719,0.4048,0.4397,0.4397,0.4709,0.5022,0.5022,0.5022,0.5003,0.4943,0.4937,0.4957,0.4997,0.5014,0.5055,0.5247,0.5596,0.595,0.6104,0.6862,0.7498,0.7742,0.7803,0.7729,0.7558,0.7607,0.7615,0.7533,0.7611,0.7823,0.8229,0.8892,0.9414,0.9835,1.0328,1.0574,1.0574,1.0683,1.0737,1.0737,1.0737,1.0737,1.0737,1.0737,1.0737,0.0307,0.0437,0.0632,0.1208,0.1699,0.208,0.2153,0.2685,0.3015,0.2816,0.3074,0.338,0.3704,0.3966,0.0,0.0,0.0,0.0,0.0,0.0,0.0,0.0,0.0,0.0,0.0,0.0,0.0,0.0,0.0,0.0,0.0,0.0,0.0,0.2223,0.2087,0.2087,0.2087,0.1683,0.1346,0.0,0.0808,0.0471,0.0269,0.054,0.0411,0.007,0.0,0.0219,0.0584,0.0876,0.1024,0.1101,0.1407,0.1624,0.1686,0.1782,0.1998,0.2419,0.3196,0.3529,0.3715,0.407,0.45,0.4691,0.3988,0.3997,0.4238,0.3834,0.4075,0.4397,0.4397,0.4709,0.5022,0.5022,0.5022,0.4992,0.4812,0.4937,0.4978,0.4899,0.4957,0.5109,0.5531,0.5976,0.6539,0.7334,0.7742,0.792,0.7917,0.7844,0.7754,0.7644,0.7586,0.7546,0.7529,0.7611,0.7772,0.7927,0.8444,0.8953,0.9452,1.0284,1.0699,1.0699,1.0721,1.0737,1.0737,1.0737,1.0737,1.0737,1.0737,1.0737,0.0684,0.0892,0.1174,0.1774,0.2018,0.2195,0.218,0.2571,0.2894,0.2694,0.3179,0.3637,0.3773,0.0,0.0,0.0,0.0,0.0,0.0,0.0,0.0,0.0,0.0,0.0,0.0,0.0,0.0,0.0,0.0,0.0,0.0,0.2223,0.2223,0.2223,0.2033,0.1966,0.1885,0.1364,0.1026,0.0816,0.0411,0.0137,0.0,0.0204,0.0137,0.0,0.0,0.0362,0.0868,0.0873,0.1167,0.1533,0.1689,0.1833,0.1824,0.1983,0.2273,0.2703,0.3331,0.3716,0.3954,0.4209,0.455,0.4794,0.399,0.4084,0.4241,0.3611,0.3768,0.4084,0.4084,0.4395,0.4787,0.4944,0.5,0.4957,0.4791,0.4817,0.4918,0.5083,0.5222,0.5456,0.5877,0.6446,0.7044,0.7749,0.8007,0.8032,0.7946,0.7893,0.7811,0.7676,0.7619,0.7591,0.7591,0.7676,0.7847,0.8182,0.8688,0.9183,0.9736,1.032,1.0737,1.0737,1.0737,1.0737,1.0737,1.0737,1.0737,1.0737,1.0737,1.0737,0.1062,0.1427,0.1818,0.2116,0.2219,0.2234,0.2262,0.2508,0.2687,0.2735,0.3371,0.392,0.3912,0.0,0.0,0.0,0.0,0.0,0.0,0.0,0.0,0.0,0.0,0.0,0.0,0.0,0.0,0.0,0.0,0.0,0.2223,0.2223,0.222,0.2214,0.19,0.1765,0.1677,0.1101,0.0693,0.0619,0.0209,0.0,0.0,0.0,0.0,0.0,0.0071,0.0502,0.115,0.087,0.1237,0.1895,0.1891,0.1892,0.1895,0.2187,0.2478,0.2849,0.3405,0.3768,0.4057,0.435,0.4601,0.4741,0.4213,0.4238,0.4319,0.3532,0.3611,0.3925,0.3925,0.4162,0.4473,0.4852,0.4962,0.4831,0.478,0.4769,0.492,0.5295,0.5587,0.5894,0.6342,0.6876,0.7413,0.7819,0.7999,0.8036,0.7966,0.7929,0.7852,0.7701,0.7672,0.7744,0.7819,0.7923,0.8178,0.8665,0.9179,0.9574,1.007,1.0404,1.0654,1.0737,1.0715,1.0715,1.0737,1.0715,1.0715,1.0737,1.082,1.082,0.1274,0.1711,0.2056,0.2153,0.2203,0.2293,0.2475,0.2872,0.3195,0.3337,0.352,0.3648,0.0,0.0,0.0,0.0,0.0,0.0,0.0,0.0,0.0,0.0,0.0,0.0,0.0,0.0,0.0,0.0,0.0,0.0,0.2223,0.2223,0.2143,0.2116,0.2054,0.2054,0.2048,0.1679,0.1293,0.1031,0.0348,0.0,0.0,0.0,0.0,0.0,0.0355,0.0792,0.1236,0.1441,0.1805,0.2257,0.2233,0.2239,0.226,0.226,0.2333,0.2483,0.3331,0.3663,0.3851,0.4604,0.4887,0.4922,0.486,0.4865,0.4787,0.4319,0.4241,0.4319,0.4319,0.4397,0.4464,0.4805,0.4826,0.478,0.4772,0.4769,0.4845,0.4845,0.5627,0.6339,0.6744,0.7358,0.7722,0.7815,0.7958,0.8056,0.8048,0.7913,0.7807,0.7782,0.7709,0.7819,0.8216,0.8383,0.8656,0.9163,0.9345,0.9574,1.007,1.0153,1.032,1.0654,1.0634,1.0634,1.0737,1.0628,1.0634,1.0737,1.1153,1.107,0.1988,0.2184,0.2377,0.2392,0.2448,0.2539,0.283,0.314,0.339,0.3492,0.3655,0.0,0.0,0.0,0.0,0.0,0.0,0.0,0.0,0.0,0.0,0.0,0.0,0.0,0.0,0.0,0.0,0.0,0.0,0.2223,0.2223,0.2223,0.214,0.211,0.2125,0.2119,0.2084,0.1798,0.1293,0.0765,0.0211,0.0,0.0,0.0,0.014,0.0347,0.05,0.0936,0.15,0.1657,0.1943,0.2212,0.2289,0.2298,0.2311,0.2327,0.2478,0.2705,0.3431,0.3825,0.4061,0.4709,0.4978,0.4978,0.5011,0.5022,0.4944,0.4476,0.4397,0.4397,0.4397,0.4397,0.4464,0.4797,0.4815,0.4837,0.4801,0.4768,0.4912,0.5434,0.6326,0.7072,0.7279,0.7633,0.7815,0.7868,0.7983,0.8044,0.7999,0.788,0.7799,0.7799,0.7717,0.7945,0.845,0.8539,0.8779,0.9331,0.9628,0.9903,1.007,1.032,1.0487,1.0737,1.0683,1.065,1.0634,1.065,1.065,1.0634,1.087,1.1031,0.2637,0.2644,0.2679,0.2698,0.2754,0.291,0.3189,0.3344,0.3511,0.0,0.3733,0.0,0.0,0.0,0.0,0.0,0.0,0.0,0.0,0.0,0.0,0.0,0.0,0.0,0.0,0.0,0.0,0.0,0.0,0.2286,0.221,0.2143,0.2125,0.2087,0.2116,0.2172,0.2053,0.1729,0.1304,0.0776,0.05,0.0287,0.0143,0.0284,0.0492,0.0765,0.0717,0.1151,0.1703,0.1874,0.2012,0.2198,0.2285,0.2294,0.2304,0.2398,0.2624,0.2999,0.3588,0.3975,0.4277,0.4797,0.4981,0.4965,0.5008,0.5022,0.4944,0.463,0.4476,0.4397,0.4554,0.4476,0.4464,0.4797,0.4826,0.4845,0.4752,0.4733,0.5052,0.5961,0.6729,0.7338,0.7619,0.7705,0.7787,0.7856,0.8041,0.8165,0.7913,0.7921,0.7952,0.7766,0.7725,0.7991,0.8702,0.8765,0.9073,0.9731,1.007,1.0237,1.0237,1.057,1.0737,1.0737,1.0737,1.0693,1.0601,1.0661,1.0645,1.0639,1.0733,1.0969,0.2859,0.2939,0.2993,0.3079,0.3133,0.3274,0.3505,0.3509,0.3587,0.3844,0.3892,0.0,0.0,0.0,0.0,0.0,0.0,0.0,0.0,0.0,0.0,0.0,0.0,0.0,0.0,0.0,0.0,0.0,0.0,0.2478,0.2113,0.2112,0.2084,0.2024,0.2053,0.2053,0.2022,0.1737,0.1601,0.1644,0.1305,0.0942,0.0573,0.0942,0.1157,0.1143,0.1145,0.1441,0.1817,0.2159,0.2307,0.2326,0.2301,0.2307,0.2331,0.2697,0.2917,0.2995,0.3849,0.4195,0.4396,0.4765,0.4976,0.5016,0.5019,0.5022,0.5022,0.4941,0.4709,0.4476,0.4865,0.4709,0.4464,0.4797,0.4935,0.4883,0.4706,0.4804,0.5137,0.5916,0.6308,0.6677,0.7389,0.7607,0.7672,0.7676,0.8233,0.8401,0.79,0.8203,0.8245,0.776,0.7742,0.8118,0.9012,0.9283,0.9731,1.057,1.0654,1.0654,1.0654,1.0654,1.0737,1.0737,1.0737,1.0732,1.0726,1.0617,1.0563,1.0639,1.0973,1.1213,0.3097,0.3125,0.3196,0.3293,0.3363,0.347,0.3716,0.3748,0.3789,0.3892,0.0,0.0,0.0,0.0,0.0,0.0,0.0,0.0,0.0,0.0,0.0,0.0,0.0,0.0,0.0,0.0,0.0,0.0,0.0,0.0,0.2471,0.2252,0.2099,0.2078,0.2068,0.2049,0.2019,0.1723,0.1643,0.1605,0.1367,0.1092,0.1015,0.1165,0.1305,0.1504,0.1804,0.2024,0.2163,0.2243,0.2301,0.2207,0.2288,0.2439,0.2739,0.2834,0.3063,0.336,0.3994,0.4245,0.4277,0.4749,0.5103,0.5361,0.5086,0.5179,0.5414,0.51,0.4865,0.4787,0.4944,0.4865,0.4774,0.4874,0.529,0.5616,0.5316,0.5468,0.5852,0.6132,0.6693,0.7169,0.7451,0.7603,0.7664,0.7664,0.8221,0.8448,0.813,0.8326,0.8428,0.8152,0.8182,0.8495,0.9196,0.9609,1.007,1.0654,1.0737,1.0737,1.0737,1.0737,1.0737,1.0737,1.0737,1.0699,1.0623,1.0655,1.0634,1.0639,1.0799,1.1123,0.3659,0.3632,0.3602,0.3719,0.3717,0.3766,0.4098,0.4057,0.3956,0.41,0.0,0.0,0.0,0.0,0.0,0.0,0.0,0.0,0.0,0.0,0.0,0.0,0.0,0.0,0.0,0.0,0.0,0.0,0.0,0.0,0.252,0.2247,0.2109,0.2109,0.2199,0.2177,0.2049,0.1854,0.183,0.1788,0.1647,0.1532,0.1386,0.1532,0.167,0.1945,0.2324,0.2533,0.2506,0.2467,0.2454,0.2419,0.2512,0.2664,0.2953,0.3197,0.35,0.3796,0.4194,0.4366,0.4473,0.4948,0.5225,0.5408,0.5393,0.5414,0.5414,0.5257,0.51,0.5022,0.5022,0.5022,0.5011,0.5131,0.5532,0.5869,0.5816,0.6032,0.6298,0.6371,0.687,0.735,0.7415,0.7558,0.7627,0.766,0.8276,0.8644,0.8313,0.854,0.8581,0.8353,0.8406,0.8739,0.9288,0.978,1.0237,1.0654,1.0737,1.0737,1.0737,1.0737,1.0737,1.0737,1.0737,1.0699,1.0617,1.0865,1.092,1.0803,1.1052,1.1458,0.0,0.0,0.0,0.4478,0.4235,0.4054,0.4686,0.4325,0.4024,0.4521,0.0,0.0,0.0,0.0,0.0,0.0,0.0,0.0,0.0,0.0,0.0,0.0,0.0,0.0,0.0,0.0,0.0,0.0,0.0,0.2815,0.2131,0.2093,0.2109,0.2109,0.2435,0.2431,0.2108,0.2206,0.2238,0.2202,0.229,0.2114,0.1822,0.2187,0.2333,0.2331,0.277,0.2895,0.2934,0.29,0.2917,0.2917,0.2917,0.2917,0.2992,0.3791,0.4083,0.4158,0.4595,0.4779,0.4914,0.535,0.5264,0.51,0.6017,0.5727,0.51,0.5573,0.5335,0.5022,0.5022,0.5022,0.51,0.5573,0.5599,0.5646,0.6176,0.6411,0.648,0.6705,0.6915,0.7134,0.7354,0.7464,0.7554,0.7644,0.8455,0.8884,0.8384,0.8781,0.8852,0.8342,0.8411,0.8689,0.9097,0.9695,1.032,1.0654,1.0737,1.0737,1.0737,1.0737,1.0737,1.0737,1.0737,1.0737,1.0737,1.1153,1.134,1.1213,1.1704,1.22,0.4114,0.0,0.0,0.0,0.0,0.0,0.0,0.0,0.4432,0.438,0.0,0.0,0.0,0.0,0.0,0.0,0.0,0.0,0.0,0.0,0.0,0.0,0.0,0.0,0.0,0.0,0.0,0.0,0.2798,0.2575,0.2488,0.2236,0.2241,0.244,0.2499,0.2484,0.2465,0.2462,0.2374,0.2202,0.229,0.226,0.2187,0.226,0.2467,0.2732,0.3123,0.3475,0.3651,0.3119,0.2917,0.2844,0.2551,0.2861,0.3401,0.3623,0.4089,0.4638,0.4744,0.4815,0.4914,0.535,0.5613,0.5806,0.5848,0.5883,0.5805,0.5335,0.51,0.5022,0.5022,0.5257,0.5573,0.5651,0.6105,0.6548,0.6667,0.7001,0.7208,0.6857,0.7003,0.7253,0.739,0.7411,0.746,0.755,0.8411,0.9021,0.8688,0.8894,0.9149,0.9252,0.9054,0.915,0.9798,1.0284,1.057,1.0654,1.0737,1.0737,1.0737,1.0737,1.0737,1.0737,1.0737,1.0737,1.0737,1.1153,1.1386,1.1351,1.2096,1.251,0.4148,0.4289,0.4385,0.4529,0.0,0.0,0.468,0.4753,0.4724,0.0,0.0,0.0,0.0,0.0,0.0,0.0,0.0,0.0,0.0,0.0,0.0,0.0,0.0,0.0,0.0,0.0,0.0,0.2874,0.2641,0.2485,0.2415,0.2353,0.2353,0.2418,0.249,0.247,0.2364,0.2501,0.2546,0.2366,0.262,0.2749,0.2749,0.2763,0.3048,0.3389,0.3633,0.3921,0.4256,0.3633,0.3425,0.3352,0.299,0.3233,0.3862,0.3842,0.4236,0.4798,0.4739,0.4864,0.5028,0.5569,0.5751,0.5853,0.6153,0.5962,0.5727,0.5414,0.5179,0.5022,0.5022,0.5335,0.573,0.5883,0.6407,0.6925,0.7065,0.7317,0.7464,0.7052,0.7205,0.7366,0.7341,0.7366,0.7496,0.7747,0.852,0.8978,0.8859,0.895,0.9167,0.9287,0.9196,0.9298,0.9917,1.0428,1.0737,1.0737,1.0737,1.0737,1.0737,1.0737,1.0737,1.0737,1.0737,1.0904,1.132,1.157,1.1902,1.2235,1.2733,1.2982,0.43,0.4247,0.4095,0.4428,0.0,0.0,0.4739,0.4829,0.4874,0.0,0.0,0.0,0.0,0.0,0.0,0.0,0.0,0.0,0.0,0.0,0.0,0.0,0.0,0.0,0.0,0.2901,0.2775,0.2467,0.2439,0.235,0.2127,0.2383,0.2448,0.2193,0.2475,0.2518,0.2145,0.2533,0.2704,0.2639,0.3134,0.3428,0.3435,0.3475,0.3712,0.4153,0.4153,0.4371,0.4738,0.4444,0.4226,0.408,0.3646,0.382,0.4228,0.4106,0.4417,0.4758,0.4695,0.4968,0.5281,0.5934,0.5827,0.5698,0.6541,0.604,0.5179,0.5495,0.5335,0.51,0.51,0.5414,0.5883,0.6275,0.6611,0.6965,0.7419,0.7395,0.7284,0.7268,0.7382,0.7435,0.7288,0.7325,0.7561,0.8128,0.8623,0.9005,0.8921,0.9005,0.9051,0.8963,0.9048,0.9335,0.9829,1.0359,1.0737,1.0737,1.0737,1.0737,1.0737,1.0737,1.0737,1.0737,1.0737,1.1153,1.2069,1.2069,1.2567,1.3403,1.3403,1.339,0.0,0.0,0.0,0.0,0.0,0.0,0.5048,0.5127,0.5122,0.0,0.0,0.0,0.0,0.0,0.0,0.0,0.0,0.0,0.0,0.0,0.0,0.0,0.0,0.0,0.0,0.2346,0.2162,0.2099,0.2128,0.2095,0.2127,0.2105,0.2358,0.2902,0.2892,0.2993,0.3219,0.3312,0.3294,0.3035,0.3241,0.3327,0.3432,0.3443,0.3826,0.4592,0.4592,0.481,0.5104,0.5392,0.4953,0.408,0.3646,0.382,0.4233,0.4221,0.4476,0.482,0.4758,0.5031,0.5339,0.5951,0.628,0.6456,0.6386,0.6275,0.5883,0.5335,0.5335,0.5573,0.5492,0.5805,0.6275,0.6666,0.6815,0.694,0.735,0.7448,0.7431,0.7288,0.7231,0.7215,0.7256,0.7276,0.7469,0.7949,0.8577,0.9055,0.9286,0.9435,0.956,0.9935,0.9732,0.985,1.0432,1.0573,1.0737,1.0737,1.0737,1.0737,1.0737,1.0737,1.0737,1.0737,1.0737,1.1153,1.2069,1.2069,1.2567,1.3403,1.3403,1.3336,0.0,0.0,0.0,0.4327,0.0,0.0,0.0,0.502,0.5131,0.485,0.4953,0.4975,0.0,0.0,0.0,0.0,0.0,0.0,0.0,0.0,0.0,0.0,0.0,0.0,0.0,0.2222,0.1977,0.1977,0.1989,0.2067,0.227,0.2254,0.2505,0.3028,0.3047,0.3096,0.3244,0.3468,0.3518,0.3328,0.3698,0.3937,0.3966,0.4162,0.4565,0.4956,0.5174,0.532,0.5538,0.568,0.5462,0.488,0.4517,0.4646,0.5089,0.4657,0.484,0.5362,0.4889,0.5223,0.5897,0.5972,0.6173,0.6301,0.6263,0.5932,0.5648,0.5414,0.5495,0.573,0.5883,0.6275,0.6666,0.6826,0.706,0.7291,0.7525,0.7525,0.7501,0.7411,0.7358,0.7297,0.7211,0.7456,0.7729,0.8156,0.8794,0.9228,0.9407,0.9448,0.9562,0.9798,0.9744,0.9913,1.0373,1.0541,1.0645,1.0645,1.087,1.107,1.107,1.107,1.107,1.107,1.107,1.1486,1.2401,1.2401,1.2733,1.3403,1.3403,1.3315,0.0,0.0,0.0,0.0,0.0,0.4309,0.0,0.0,0.0,0.4781,0.0,0.0,0.0,0.0,0.0,0.0,0.0,0.0,0.0,0.0,0.0,0.0,0.0,0.0,0.0,0.2231,0.2044,0.1977,0.2038,0.2222,0.2467,0.2529,0.2652,0.3086,0.3086,0.3147,0.3147,0.3495,0.3668,0.366,0.4203,0.445,0.4452,0.4932,0.521,0.5282,0.5742,0.5891,0.5881,0.5967,0.5974,0.5901,0.5462,0.5615,0.6016,0.5217,0.5397,0.5937,0.5217,0.5538,0.6352,0.6065,0.6002,0.5939,0.6089,0.5606,0.51,0.5648,0.5808,0.5886,0.6275,0.6744,0.6986,0.7079,0.7303,0.7554,0.7664,0.7694,0.7624,0.7607,0.7603,0.7521,0.7194,0.7619,0.8062,0.8493,0.9039,0.9402,0.9475,0.9475,0.9475,0.9475,0.9661,0.9808,1.0204,1.0422,1.0639,1.0639,1.1003,1.1237,1.1237,1.1237,1.132,1.157,1.1486,1.1819,1.2733,1.2733,1.2899,1.3403,1.337,1.3275,0.0,0.0,0.0,0.0,0.3853,0.0,0.0,0.0,0.503,0.5026,0.0,0.0,0.0,0.0,0.0,0.0,0.0,0.0,0.0,0.0,0.0,0.0,0.0,0.0,0.0,0.0,0.2317,0.204,0.2284,0.2467,0.2529,0.2529,0.2775,0.3394,0.3455,0.3579,0.3766,0.3939,0.4034,0.3983,0.4237,0.4327,0.4333,0.4869,0.528,0.5571,0.6134,0.6296,0.6305,0.6669,0.6627,0.6268,0.5901,0.588,0.6018,0.5786,0.5806,0.6015,0.5783,0.5974,0.6352,0.6065,0.581,0.5704,0.6163,0.5642,0.5179,0.5962,0.6196,0.6353,0.6747,0.7138,0.7467,0.7548,0.7586,0.7574,0.7746,0.8029,0.8177,0.8094,0.815,0.7929,0.7356,0.7774,0.8247,0.854,0.9089,0.9558,0.9864,0.9942,0.9942,0.9942,1.0049,1.0125,1.0204,1.0422,1.0639,1.0639,1.0672,1.082,1.082,1.082,1.1153,1.1986,1.157,1.1819,1.2733,1.2733,1.2899,1.3397,1.3261,1.3119,0.0,0.0,0.0,0.0,0.0,0.0,0.4431,0.0,0.4869,0.0,0.0,0.0,0.0,0.0,0.0,0.0,0.5366,0.0,0.0,0.0,0.0,0.0,0.0,0.0,0.0,0.0,0.0,0.0,0.0,0.258,0.2739,0.2946,0.3271,0.3704,0.3704,0.3766,0.3889,0.397,0.3997,0.3973,0.4185,0.4273,0.4311,0.5012,0.5428,0.5614,0.6361,0.6678,0.665,0.6881,0.6918,0.67,0.6555,0.6532,0.6596,0.6294,0.6389,0.6603,0.6051,0.6305,0.6724,0.6411,0.6153,0.5948,0.6251,0.604,0.5883,0.6509,0.6666,0.6744,0.7135,0.7369,0.755,0.764,0.7631,0.7735,0.8161,0.837,0.8433,0.8651,0.8725,0.8702,0.8153,0.8247,0.8442,0.8549,0.9248,0.9786,0.9942,1.0019,1.0019,1.0019,1.0068,1.0095,1.0095,1.0318,1.0454,1.0454,1.0881,1.1237,1.1486,1.1486,1.1819,1.2401,1.2235,1.2484,1.3148,1.3148,1.3191,1.3268,1.3445,1.3374,0.249,0.0,0.0,0.0,0.0,0.0,0.0,0.0,0.0,0.0,0.0,0.0,0.0,0.0,0.0,0.0,0.0,0.552,0.0,0.0,0.0,0.0,0.0,0.0,0.0,0.0,0.0,0.0,0.0,0.0,0.3015,0.3305,0.364,0.3889,0.3889,0.3889,0.3889,0.3943,0.3965,0.3951,0.4198,0.4338,0.4369,0.5188,0.5587,0.5628,0.6469,0.6807,0.679,0.6933,0.699,0.699,0.699,0.7031,0.7007,0.6724,0.6755,0.7047,0.6433,0.6547,0.6832,0.6683,0.6409,0.6183,0.641,0.6353,0.6431,0.6904,0.6982,0.6982,0.7369,0.7546,0.7586,0.7676,0.768,0.7877,0.8337,0.8431,0.8549,0.8903,0.9097,0.9169,0.8881,0.8867,0.8886,0.8823,0.9501,1.0019,1.0019,1.0019,1.0019,1.0019,1.0019,1.0036,1.0068,1.0264,1.0497,1.0639,1.1134,1.1653,1.2235,1.2152,1.2318,1.2899,1.2733,1.2982,1.3569,1.3439,1.3343,1.3355,1.3598,1.3618,0.0,0.0,0.0,0.2838,0.0,0.0,0.0,0.0,0.4837,0.0,0.0,0.0,0.0,0.0,0.5268,0.5448,0.5431,0.0,0.0,0.0,0.0,0.0,0.0,0.0,0.0,0.0,0.0,0.0,0.0,0.0,0.3377,0.3488,0.364,0.3889,0.3889,0.3889,0.3889,0.3943,0.3946,0.3892,0.4391,0.4549,0.4491,0.5404,0.5697,0.5641,0.6373,0.668,0.6619,0.688,0.699,0.699,0.699,0.699,0.6994,0.699,0.7047,0.7113,0.7023,0.6755,0.6541,0.6552,0.6409,0.626,0.6722,0.6587,0.6431,0.7291,0.7213,0.6982,0.7369,0.7591,0.768,0.7774,0.7725,0.7814,0.8082,0.8178,0.8406,0.8898,0.9088,0.9181,0.9354,0.9501,0.9572,0.9427,0.9708,1.0019,1.0019,1.0019,1.0019,1.0019,1.0019,1.0068,1.0188,1.0313,1.0644,1.1291,1.1397,1.1819,1.265,1.2318,1.2484,1.3403,1.2899,1.3155,1.4066,1.35,1.3341,1.3589,1.3596,1.3511,0.0,0.0,0.2726,0.2797,0.0,0.0,0.0,0.0,0.0,0.0,0.0,0.0,0.0,0.0,0.5107,0.5183,0.5173,0.5244,0.0,0.0,0.0,0.0,0.0,0.0,0.0,0.0,0.0,0.0,0.0,0.0,0.0,0.3595,0.383,0.3891,0.3929,0.4013,0.4256,0.4277,0.4339,0.4567,0.4736,0.4834,0.4853,0.5414,0.5646,0.5619,0.6309,0.6562,0.6607,0.6815,0.6933,0.699,0.699,0.699,0.699,0.699,0.7011,0.7039,0.7068,0.688,0.6774,0.7029,0.6945,0.6711,0.7205,0.7213,0.7135,0.7447,0.7369,0.7291,0.7447,0.7505,0.7505,0.7595,0.7877,0.8243,0.8581,0.8979,0.9327,0.9608,0.9729,0.9787,0.9712,0.9935,1.0008,0.9614,0.9761,1.0052,1.0134,1.0068,1.0019,1.0019,1.033,1.047,1.0199,1.0384,1.0814,1.1392,1.1403,1.1819,1.265,1.2567,1.2816,1.3403,1.3231,1.3486,1.4066,1.3739,1.3633,1.3739,1.409,1.3975,0.1792,0.2227,0.0,0.2675,0.3238,0.0,0.4147,0.0,0.0,0.0,0.0,0.0,0.0,0.0,0.505,0.509,0.5054,0.5059,0.0,0.5112,0.0,0.0,0.0,0.0,0.0,0.0,0.0,0.0,0.0,0.0,0.0,0.0,0.3952,0.4073,0.4052,0.4256,0.4564,0.4564,0.4697,0.4971,0.5067,0.5095,0.5227,0.5577,0.5722,0.572,0.6247,0.6455,0.6558,0.6836,0.6909,0.699,0.7131,0.7135,0.699,0.699,0.7083,0.7263,0.7105,0.7168,0.7241,0.739,0.7374,0.7373,0.7447,0.7603,0.7686,0.7525,0.7525,0.7525,0.7525,0.748,0.7452,0.7513,0.7884,0.8335,0.8683,0.9005,0.9371,0.9735,0.9818,0.9869,0.9791,1.0068,1.0152,0.9756,0.9949,1.0095,1.0134,1.0106,1.0068,1.0025,1.0364,1.0538,1.0264,1.065,1.1069,1.1647,1.1819,1.2152,1.2899,1.2982,1.3065,1.3403,1.3403,1.3728,1.4315,1.3984,1.3987,1.4305,1.4528,1.4392]},{"header":{"parameterUnit":"m.s-1","parameterCategory":1,"la1":30.6,"la2":29.2853,"lo1":-89.7004,"lo2":-87.6739,"dy":0.0162,"dx":0.0183,"nx":112,"ny":82,"refTime":"2023-10-02T12:00:00:Z","depth":0,"parameterNumber":3,"parameterNumberName":"V-component_of_WINDS"},"data":[0.0,0.0,0.0,0.0,0.0,0.0,0.0,0.0,0.0,0.0,0.0,0.0,0.0,0.0,0.0,0.0,0.0,0.0,0.0,0.0,0.0,0.0,0.0,0.0,0.0,0.0,0.0,0.0,0.0,0.0,0.0,0.0,0.0,0.0,0.0,0.0,0.0,0.0,0.0,0.0,0.0,0.0,0.0,0.0,0.0,0.0,0.0,0.0,0.0,0.0,0.0,0.0,0.0,0.0,0.0,0.0,0.0,0.0,0.0,0.0,0.0,0.0,0.0,0.0,0.0,0.0,0.0,0.0,0.0,0.0,0.0,0.0,0.0,0.0,0.0,0.0,0.0,0.0,0.0,0.0,0.0,0.0,0.0,0.0,0.0,0.0,0.0,0.0,0.0,0.0,3.9036,3.8363,3.6988,3.6042,3.5911,3.6701,3.6902,3.6162,0.0,0.0,0.0,0.0,0.0,0.0,0.0,0.0,0.0,0.0,0.0,0.0,0.0,0.0,0.0,0.0,0.0,0.0,0.0,0.0,0.0,0.0,0.0,0.0,0.0,0.0,0.0,0.0,0.0,0.0,0.0,0.0,0.0,0.0,0.0,0.0,0.0,0.0,0.0,0.0,0.0,0.0,0.0,0.0,0.0,0.0,0.0,0.0,0.0,0.0,0.0,0.0,0.0,0.0,0.0,0.0,0.0,0.0,0.0,0.0,0.0,0.0,0.0,0.0,0.0,0.0,0.0,0.0,0.0,0.0,0.0,0.0,0.0,0.0,0.0,0.0,0.0,0.0,0.0,0.0,0.0,0.0,0.0,0.0,0.0,0.0,0.0,0.0,0.0,0.0,0.0,0.0,0.0,0.0,0.0,0.0,0.0,0.0,0.0,0.0,0.0,0.0,0.0,0.0,3.7523,3.7411,3.7178,3.6707,3.5964,3.6707,3.7136,3.7019,0.0,0.0,0.0,0.0,0.0,0.0,0.0,0.0,0.0,0.0,0.0,0.0,0.0,0.0,0.0,0.0,0.0,0.0,0.0,0.0,0.0,0.0,0.0,0.0,0.0,0.0,0.0,0.0,0.0,0.0,0.0,0.0,0.0,0.0,0.0,0.0,0.0,0.0,0.0,0.0,0.0,0.0,0.0,0.0,0.0,0.0,0.0,0.0,0.0,0.0,0.0,0.0,0.0,0.0,0.0,0.0,0.0,0.0,0.0,0.0,0.0,0.0,0.0,0.0,0.0,0.0,0.0,0.0,0.0,0.0,0.0,0.0,0.0,0.0,0.0,0.0,0.0,0.0,0.0,0.0,0.0,0.0,0.0,0.0,0.0,0.0,0.0,0.0,0.0,0.0,0.0,0.0,0.0,0.0,0.0,0.0,0.0,0.0,0.0,0.0,0.0,0.0,0.0,3.8539,3.7367,3.7785,3.7037,3.6312,3.5943,3.6699,3.7211,3.7199,3.8455,0.0,0.0,0.0,0.0,0.0,0.0,0.0,0.0,0.0,0.0,0.0,0.0,0.0,0.0,0.0,0.0,0.0,0.0,0.0,0.0,0.0,0.0,0.0,0.0,0.0,0.0,0.0,0.0,0.0,0.0,0.0,0.0,0.0,0.0,0.0,0.0,0.0,0.0,0.0,0.0,0.0,0.0,0.0,0.0,0.0,0.0,0.0,0.0,0.0,0.0,0.0,0.0,0.0,0.0,0.0,0.0,0.0,0.0,0.0,0.0,0.0,0.0,0.0,0.0,0.0,0.0,0.0,0.0,0.0,0.0,0.0,0.0,0.0,0.0,0.0,0.0,0.0,0.0,0.0,0.0,0.0,0.0,0.0,0.0,0.0,0.0,0.0,0.0,0.0,0.0,0.0,0.0,0.0,0.0,0.0,0.0,0.0,0.0,0.0,0.0,0.0,0.0,3.8766,3.7858,3.8058,3.6975,3.6105,3.5924,3.6528,3.704,3.7452,3.8712,0.0,0.0,0.0,0.0,0.0,0.0,0.0,0.0,0.0,0.0,0.0,0.0,0.0,0.0,0.0,0.0,0.0,0.0,0.0,0.0,0.0,0.0,0.0,0.0,0.0,0.0,0.0,0.0,0.0,0.0,0.0,0.0,0.0,0.0,0.0,0.0,0.0,0.0,0.0,0.0,0.0,0.0,0.0,0.0,0.0,0.0,0.0,0.0,0.0,0.0,0.0,0.0,0.0,0.0,0.0,0.0,0.0,0.0,0.0,0.0,0.0,0.0,0.0,0.0,0.0,0.0,0.0,0.0,0.0,0.0,0.0,0.0,0.0,0.0,0.0,0.0,0.0,0.0,0.0,0.0,0.0,0.0,0.0,0.0,0.0,0.0,0.0,0.0,0.0,0.0,0.0,0.0,0.0,0.0,0.0,0.0,0.0,0.0,0.0,0.0,0.0,0.0,3.8666,3.8914,3.735,3.7124,3.678,3.596,3.5963,3.666,3.8213,3.8447,0.0,0.0,0.0,0.0,0.0,0.0,0.0,0.0,0.0,0.0,0.0,0.0,0.0,0.0,0.0,0.0,0.0,0.0,0.0,0.0,0.0,0.0,0.0,0.0,0.0,0.0,0.0,0.0,0.0,0.0,0.0,0.0,0.0,0.0,0.0,0.0,0.0,0.0,0.0,0.0,0.0,0.0,0.0,0.0,0.0,0.0,0.0,0.0,0.0,0.0,0.0,0.0,0.0,0.0,0.0,0.0,0.0,0.0,0.0,0.0,0.0,0.0,0.0,0.0,0.0,0.0,0.0,0.0,0.0,0.0,0.0,0.0,0.0,0.0,0.0,0.0,0.0,0.0,0.0,0.0,0.0,0.0,0.0,0.0,0.0,0.0,0.0,0.0,0.0,0.0,0.0,0.0,0.0,0.0,0.0,0.0,0.0,0.0,0.0,0.0,0.0,0.0,3.8416,3.8079,0.0,3.7,3.6225,3.5861,3.5875,3.6381,3.7533,0.0,0.0,0.0,0.0,0.0,0.0,0.0,0.0,0.0,0.0,0.0,0.0,0.0,0.0,0.0,0.0,0.0,0.0,0.0,0.0,0.0,0.0,0.0,0.0,0.0,0.0,0.0,0.0,0.0,0.0,0.0,0.0,0.0,0.0,0.0,0.0,0.0,0.0,0.0,0.0,0.0,0.0,0.0,0.0,0.0,0.0,0.0,0.0,0.0,0.0,0.0,0.0,0.0,0.0,0.0,0.0,0.0,0.0,0.0,0.0,0.0,0.0,0.0,0.0,0.0,0.0,0.0,0.0,0.0,0.0,0.0,0.0,0.0,0.0,0.0,0.0,0.0,0.0,0.0,0.0,0.0,0.0,0.0,0.0,0.0,0.0,0.0,0.0,0.0,0.0,0.0,0.0,0.0,0.0,0.0,0.0,0.0,0.0,0.0,0.0,0.0,0.0,3.9689,3.8727,3.8111,0.0,3.7141,3.6168,3.5838,3.5853,3.6203,3.7043,0.0,0.0,0.0,0.0,0.0,0.0,0.0,0.0,0.0,0.0,0.0,0.0,0.0,0.0,0.0,0.0,0.0,0.0,0.0,0.0,0.0,0.0,0.0,0.0,0.0,0.0,0.0,0.0,0.0,0.0,0.0,0.0,0.0,0.0,0.0,0.0,0.0,0.0,0.0,0.0,0.0,0.0,0.0,0.0,0.0,0.0,0.0,0.0,0.0,0.0,0.0,0.0,0.0,0.0,0.0,0.0,0.0,0.0,0.0,0.0,0.0,0.0,0.0,0.0,0.0,0.0,0.0,0.0,0.0,0.0,0.0,0.0,0.0,0.0,0.0,0.0,0.0,0.0,0.0,0.0,0.0,0.0,0.0,0.0,0.0,0.0,0.0,0.0,0.0,0.0,0.0,0.0,0.0,0.0,0.0,0.0,0.0,0.0,0.0,0.0,0.0,0.0,3.9683,3.9749,3.9349,3.8494,3.7618,3.6751,3.5892,3.5814,3.6203,0.0,0.0,0.0,0.0,0.0,0.0,0.0,0.0,0.0,0.0,0.0,0.0,0.0,0.0,0.0,0.0,0.0,0.0,0.0,0.0,0.0,0.0,0.0,0.0,0.0,0.0,0.0,0.0,0.0,0.0,0.0,0.0,0.0,0.0,0.0,0.0,0.0,0.0,0.0,0.0,0.0,0.0,0.0,0.0,0.0,0.0,0.0,0.0,0.0,0.0,0.0,0.0,0.0,0.0,0.0,0.0,0.0,0.0,0.0,0.0,0.0,0.0,0.0,0.0,0.0,0.0,0.0,0.0,0.0,0.0,0.0,0.0,0.0,0.0,0.0,0.0,0.0,0.0,0.0,0.0,0.0,0.0,0.0,0.0,0.0,0.0,0.0,0.0,0.0,0.0,0.0,0.0,0.0,0.0,0.0,0.0,0.0,0.0,0.0,0.0,0.0,0.0,0.0,3.9702,3.9728,3.9603,3.933,3.8508,3.7855,3.7644,3.7588,3.7428,3.7139,0.0,0.0,0.0,0.0,0.0,0.0,0.0,0.0,0.0,0.0,0.0,0.0,0.0,0.0,0.0,0.0,0.0,0.0,0.0,0.0,0.0,0.0,0.0,0.0,0.0,0.0,0.0,0.0,0.0,0.0,0.0,0.0,0.0,0.0,0.0,0.0,0.0,0.0,0.0,0.0,0.0,0.0,0.0,0.0,0.0,0.0,0.0,0.0,0.0,0.0,0.0,0.0,0.0,0.0,0.0,0.0,0.0,0.0,0.0,0.0,0.0,0.0,0.0,0.0,0.0,0.0,0.0,0.0,0.0,0.0,0.0,0.0,0.0,0.0,0.0,0.0,0.0,0.0,0.0,0.0,0.0,0.0,0.0,0.0,0.0,0.0,0.0,0.0,0.0,0.0,0.0,0.0,0.0,0.0,0.0,0.0,0.0,0.0,0.0,0.0,0.0,0.0,4.0686,4.049,4.0213,4.0202,3.973,3.9232,3.8926,3.9184,3.9141,3.8654,0.0,0.0,0.0,0.0,0.0,0.0,0.0,0.0,0.0,0.0,0.0,0.0,0.0,0.0,0.0,0.0,0.0,0.0,0.0,0.0,0.0,0.0,0.0,0.0,0.0,0.0,0.0,0.0,0.0,0.0,0.0,0.0,0.0,0.0,0.0,0.0,0.0,0.0,0.0,0.0,0.0,0.0,0.0,0.0,0.0,0.0,0.0,0.0,0.0,0.0,0.0,0.0,0.0,0.0,0.0,0.0,0.0,0.0,0.0,0.0,0.0,0.0,0.0,0.0,0.0,0.0,0.0,0.0,0.0,0.0,0.0,0.0,0.0,0.0,0.0,0.0,0.0,0.0,0.0,0.0,0.0,0.0,0.0,0.0,0.0,0.0,0.0,0.0,0.0,0.0,0.0,0.0,0.0,0.0,0.0,0.0,0.0,0.0,0.0,0.0,0.0,0.0,4.2091,4.1599,4.1098,4.1027,4.0999,4.0701,3.998,4.0597,4.1019,4.1024,0.0,0.0,0.0,0.0,0.0,0.0,0.0,0.0,0.0,0.0,0.0,0.0,0.0,0.0,0.0,0.0,0.0,0.0,0.0,0.0,0.0,0.0,0.0,0.0,0.0,0.0,0.0,0.0,0.0,0.0,0.0,0.0,0.0,0.0,0.0,0.0,0.0,0.0,0.0,0.0,0.0,0.0,0.0,0.0,0.0,0.0,0.0,0.0,0.0,0.0,0.0,0.0,0.0,0.0,0.0,0.0,0.0,0.0,0.0,0.0,4.4373,0.0,0.0,0.0,0.0,0.0,0.0,0.0,0.0,0.0,0.0,0.0,0.0,0.0,0.0,0.0,0.0,0.0,0.0,0.0,0.0,0.0,0.0,0.0,0.0,0.0,0.0,0.0,0.0,0.0,0.0,0.0,0.0,0.0,0.0,0.0,0.0,0.0,0.0,0.0,0.0,0.0,4.1347,4.1755,4.1766,4.1084,4.0952,4.1116,4.163,4.183,4.1937,4.1917,4.1746,0.0,0.0,0.0,0.0,0.0,0.0,0.0,0.0,0.0,0.0,0.0,0.0,0.0,0.0,0.0,0.0,0.0,0.0,0.0,0.0,0.0,0.0,0.0,0.0,0.0,0.0,0.0,0.0,0.0,0.0,0.0,0.0,0.0,0.0,0.0,0.0,0.0,0.0,0.0,0.0,0.0,0.0,0.0,0.0,0.0,0.0,0.0,0.0,0.0,0.0,0.0,0.0,0.0,0.0,0.0,0.0,0.0,0.0,0.0,0.0,4.5001,0.0,0.0,0.0,0.0,0.0,0.0,0.0,0.0,0.0,0.0,0.0,0.0,0.0,0.0,0.0,0.0,0.0,0.0,0.0,0.0,0.0,0.0,0.0,0.0,0.0,0.0,0.0,0.0,0.0,0.0,0.0,0.0,0.0,0.0,0.0,0.0,0.0,0.0,0.0,0.0,4.2832,4.2585,4.2331,4.2259,4.2225,4.2352,4.281,4.3603,4.4059,4.402,4.3267,0.0,0.0,0.0,0.0,0.0,0.0,0.0,0.0,0.0,0.0,0.0,0.0,0.0,0.0,0.0,0.0,0.0,0.0,0.0,0.0,0.0,0.0,0.0,0.0,0.0,0.0,0.0,0.0,0.0,0.0,0.0,0.0,0.0,0.0,0.0,0.0,0.0,0.0,0.0,0.0,0.0,0.0,0.0,0.0,0.0,0.0,0.0,0.0,0.0,0.0,0.0,0.0,0.0,5.2046,5.2141,5.2133,5.1842,5.1404,5.0781,4.8314,4.784,4.8667,0.0,0.0,0.0,0.0,0.0,0.0,0.0,0.0,0.0,0.0,0.0,0.0,0.0,0.0,0.0,0.0,0.0,0.0,0.0,0.0,0.0,0.0,0.0,0.0,0.0,4.8296,4.8391,0.0,0.0,0.0,0.0,0.0,0.0,0.0,0.0,0.0,0.0,0.0,0.0,4.4517,4.3617,4.2978,4.336,4.3389,4.3409,4.3523,4.4836,4.576,4.6017,4.471,4.4267,0.0,0.0,0.0,0.0,0.0,0.0,0.0,0.0,0.0,0.0,0.0,0.0,0.0,0.0,0.0,0.0,0.0,0.0,0.0,0.0,0.0,0.0,0.0,0.0,0.0,0.0,0.0,0.0,0.0,0.0,0.0,0.0,4.3379,4.4777,0.0,0.0,0.0,0.0,0.0,0.0,0.0,0.0,0.0,0.0,0.0,0.0,0.0,5.3822,5.3735,5.5335,5.6184,5.6368,5.711,5.7458,5.7342,5.5959,5.5629,5.6066,5.3638,0.0,5.0565,5.0291,0.0,0.0,0.0,0.0,0.0,0.0,0.0,0.0,0.0,0.0,0.0,0.0,0.0,0.0,0.0,0.0,0.0,0.0,0.0,0.0,0.0,0.0,4.8491,4.8605,4.8733,4.8747,0.0,4.8529,4.8263,4.7294,0.0,0.0,0.0,0.0,0.0,0.0,0.0,0.0,4.3917,4.4339,4.4129,4.2691,4.252,4.2776,4.3526,4.3726,4.4491,4.5987,4.5875,4.5849,4.6025,4.5928,0.0,0.0,0.0,0.0,0.0,0.0,0.0,0.0,0.0,0.0,0.0,0.0,0.0,0.0,0.0,0.0,0.0,0.0,0.0,0.0,0.0,0.0,0.0,0.0,0.0,0.0,0.0,0.0,0.0,4.4863,4.6417,4.631,4.6983,4.6935,0.0,0.0,0.0,0.0,0.0,0.0,0.0,0.0,0.0,5.5461,5.5875,5.6559,5.7592,5.7851,5.8237,5.8712,5.866,5.8359,5.7851,5.7602,5.7434,5.7271,5.6753,5.6071,5.5203,5.3293,5.1794,5.0675,0.0,0.0,0.0,0.0,4.9396,4.856,5.0412,5.0235,0.0,0.0,0.0,0.0,0.0,0.0,0.0,0.0,0.0,0.0,0.0,0.0,0.0,5.0976,5.1377,5.1738,5.1702,5.1748,5.0931,0.0,4.8318,4.8202,4.5937,0.0,0.0,0.0,0.0,4.5025,4.513,4.5088,4.453,4.3206,4.3509,4.3923,4.432,4.4767,4.5533,4.674,4.6402,4.6177,4.6189,4.6625,4.6672,0.0,0.0,0.0,0.0,0.0,0.0,0.0,0.0,0.0,0.0,0.0,0.0,0.0,0.0,0.0,0.0,0.0,0.0,0.0,0.0,0.0,0.0,0.0,0.0,0.0,0.0,0.0,0.0,4.7972,4.8942,4.8025,4.8768,4.8854,0.0,0.0,0.0,0.0,0.0,0.0,5.5323,5.6143,5.7012,5.7898,5.8166,5.9035,6.0553,5.9955,6.0063,6.0902,6.0303,5.9661,5.9055,5.9289,5.9033,5.8428,5.8704,5.8958,5.8919,5.6155,5.4524,5.3715,5.3746,5.2863,5.1747,5.3263,5.2889,5.193,5.4104,5.4156,5.3307,5.3541,0.0,5.1877,5.1278,0.0,0.0,0.0,0.0,5.1791,5.2016,5.2544,5.3029,5.3024,5.3541,5.3938,5.3705,5.3669,5.2772,0.0,4.9569,4.9179,4.6991,0.0,0.0,0.0,0.0,4.589,4.6544,4.5877,4.4967,4.4033,4.4496,4.4913,4.4915,4.569,4.654,4.738,4.7046,4.6859,4.6859,4.7443,4.7486,4.6878,0.0,0.0,0.0,0.0,0.0,0.0,0.0,0.0,0.0,0.0,0.0,0.0,0.0,0.0,0.0,0.0,0.0,0.0,0.0,0.0,0.0,0.0,0.0,0.0,0.0,0.0,0.0,0.0,0.0,5.0503,5.2085,0.0,0.0,0.0,0.0,5.452,5.5451,5.6404,5.721,5.8102,5.8971,5.9824,6.0677,6.153,6.2344,6.2344,6.2732,6.3585,6.3546,6.3532,6.3534,6.1912,6.1189,6.1109,5.9555,5.9335,5.9963,5.9024,5.8129,5.7358,5.7426,5.6897,5.6197,5.7092,5.6874,5.6232,5.7172,5.6446,5.5217,5.6035,5.5155,5.377,5.3802,5.2642,0.0,0.0,5.2585,5.2819,5.3637,5.3881,5.3927,5.3927,5.3971,5.3783,5.2927,5.2772,5.2967,0.0,5.3046,5.2187,5.125,0.0,4.9648,4.8828,4.8007,4.7497,4.7532,4.6784,4.5874,4.4943,4.4863,4.4889,4.4894,4.5709,4.6566,4.7423,4.8164,4.8592,4.867,4.8709,4.8709,4.867,4.8766,0.0,0.0,0.0,0.0,0.0,0.0,0.0,0.0,0.0,0.0,0.0,0.0,0.0,0.0,0.0,0.0,0.0,0.0,0.0,0.0,0.0,0.0,0.0,0.0,0.0,0.0,0.0,0.0,5.3257,5.4362,0.0,5.3995,5.5939,5.7079,5.6582,5.8343,5.9832,6.0755,6.0568,6.0808,6.1662,6.1483,6.1769,6.2624,6.214,6.2567,6.3906,6.3383,6.3157,6.3111,6.31,6.2802,6.2315,6.2268,6.2396,6.2636,6.238,6.105,5.9282,5.9293,5.8807,5.8048,5.7784,5.7481,5.7217,5.6995,5.6535,5.6074,5.64,5.5708,5.4741,5.4808,5.4387,5.3959,5.4281,5.479,5.5298,5.5609,5.6083,5.6244,5.5111,5.57,5.6132,5.4687,5.4804,5.5156,5.4881,5.3242,5.1601,5.0781,5.039,4.9882,4.902,4.8632,4.8242,4.7654,4.7337,4.6585,4.5113,4.546,4.5765,4.5747,4.6524,4.7418,4.8275,4.8629,4.8785,4.8785,4.9331,4.9643,4.9643,5.0204,5.0213,0.0,0.0,0.0,0.0,0.0,0.0,0.0,0.0,0.0,0.0,0.0,0.0,0.0,0.0,0.0,0.0,0.0,0.0,0.0,0.0,0.0,0.0,0.0,0.0,0.0,0.0,5.4619,5.5599,5.6443,5.6971,5.7084,5.8612,5.9527,5.9296,6.1116,6.2256,6.2283,6.2316,6.2432,6.2665,6.2141,6.227,6.3126,6.2328,6.2795,6.4409,6.3612,6.3346,6.3612,6.3669,6.3492,6.3275,6.3575,6.3702,6.3702,6.3999,6.2799,6.0764,6.133,6.1222,6.0616,5.9463,5.9003,5.8889,5.8087,5.7821,5.7824,5.7804,5.7226,5.6528,5.6584,5.6588,5.6589,5.6596,5.6987,5.7456,5.7457,5.7889,5.8008,5.6875,5.7265,5.7499,5.6051,5.5972,5.5894,5.5032,5.3708,5.2343,5.1247,5.1052,5.074,4.9878,4.9255,4.8671,4.8124,4.7536,4.6709,4.5553,4.5978,4.6401,4.6618,4.744,4.8298,4.919,4.9508,4.9667,4.9661,5.0243,5.0555,5.0555,5.1391,5.183,5.1839,0.0,0.0,0.0,0.0,0.0,0.0,0.0,0.0,0.0,0.0,0.0,0.0,0.0,0.0,0.0,0.0,0.0,0.0,0.0,0.0,0.0,0.0,0.0,5.2517,5.4643,5.6582,5.7521,5.8365,5.9566,6.1239,6.1428,6.181,6.2729,6.3624,6.3352,6.1717,6.3202,6.3708,6.2885,6.2846,6.3196,6.3974,6.3235,6.3669,6.5303,6.4447,6.4537,6.5384,6.3709,6.3414,6.4184,6.3388,6.3046,6.3124,6.3967,6.3364,6.2047,6.3573,6.4142,6.3912,6.2216,6.1598,6.1446,6.0642,6.0375,6.0341,6.0364,5.9786,5.9084,5.9092,5.9094,5.9095,5.91,5.9101,5.9101,5.9101,5.91,5.9098,5.902,5.8431,5.7647,5.6748,5.5928,5.5069,5.4208,5.4721,5.4762,5.3001,5.2691,5.242,5.156,5.0076,0.0,4.9022,4.7538,4.6479,4.6461,4.6419,4.6761,4.7557,4.8387,4.9208,5.0132,5.0962,5.1472,5.1534,5.1495,5.1495,5.1534,5.2367,5.3635,5.5334,0.0,0.0,0.0,0.0,0.0,0.0,0.0,0.0,0.0,0.0,0.0,0.0,0.0,0.0,0.0,0.0,0.0,0.0,0.0,0.0,0.0,0.0,5.6386,5.6945,5.7087,5.791,6.008,6.0553,6.0877,6.1421,6.2049,6.2534,6.2764,6.3598,6.4154,6.4309,6.4213,6.4023,6.3769,6.3725,6.3569,6.3224,6.3569,6.4325,6.5436,6.5202,6.5562,6.6404,6.5936,6.6178,6.7001,6.6775,6.6662,6.6701,6.6939,6.6759,6.6151,6.4121,6.2959,6.2345,6.185,6.1268,6.0604,5.9747,5.9475,5.9478,5.9449,5.9294,5.9099,5.9101,5.9101,5.9101,5.9099,5.9097,5.9097,5.9096,5.9095,5.8782,5.7571,5.7609,5.7489,5.5991,5.5911,5.5907,5.5031,5.5584,5.5439,5.3108,5.2681,5.2603,5.2365,5.2485,0.0,5.1757,5.125,5.0702,5.0069,4.9442,4.9402,5.0258,4.9984,5.0372,5.1888,5.22,5.2899,5.4177,5.3639,5.3569,5.42,5.5062,5.577,0.0,0.0,0.0,0.0,0.0,0.0,0.0,0.0,0.0,0.0,0.0,0.0,0.0,0.0,0.0,0.0,0.0,0.0,0.0,0.0,0.0,0.0,5.7546,5.9177,6.0355,5.976,5.9853,6.1768,6.2007,6.2174,6.2585,6.3107,6.3395,6.337,6.4203,6.4753,6.4874,6.4809,6.4575,6.4133,6.4133,6.3939,6.3432,6.39,6.461,6.5519,6.5129,6.5406,6.6237,6.5886,6.6202,0.0,6.7,6.7003,6.7042,6.7448,6.7185,0.0,0.0,0.0,0.0,0.0,6.1906,6.1359,6.0502,6.0425,6.074,6.0742,6.0742,6.0663,6.0305,6.0421,6.0657,6.0295,6.0175,6.0095,5.9736,5.962,5.9312,5.7984,5.7754,5.7674,5.7031,5.6987,5.698,5.6839,0.0,0.0,5.5081,5.3955,5.3256,5.3256,5.3064,5.2878,5.2731,5.2108,5.1601,5.1403,5.066,5.0621,5.1829,5.1828,0.0,0.0,0.0,5.479,5.5801,5.5023,0.0,0.0,0.0,5.82,5.9296,0.0,0.0,0.0,5.9217,5.9057,0.0,0.0,0.0,0.0,0.0,0.0,0.0,0.0,0.0,0.0,0.0,0.0,0.0,0.0,0.0,0.0,5.984,6.0942,6.2545,6.2123,6.1996,6.2859,6.2946,6.3306,6.4103,6.4201,6.4212,6.4212,6.4996,6.5152,6.4375,0.0,0.0,0.0,0.0,6.4489,6.4489,6.4485,6.4875,6.562,6.4844,6.4883,6.5627,6.4847,6.4964,6.5787,6.5778,6.5785,6.5863,6.6703,6.6007,6.4522,6.5132,6.6418,6.7562,6.4327,6.3158,6.3042,6.2264,0.0,0.0,6.3122,6.3158,6.2997,6.2214,6.2527,6.2993,6.2193,6.1991,6.1832,6.1026,6.0756,6.0492,5.9711,5.8785,5.8321,5.9087,5.8574,5.8181,5.8946,5.8471,5.7931,5.7947,5.6009,5.4422,5.4431,5.3183,5.2524,5.3198,5.1988,5.1327,5.207,0.0,0.0,5.3277,5.3979,5.4759,5.5814,5.679,5.7298,5.7181,5.6634,5.7338,5.9488,5.9644,6.0819,6.3164,6.3241,6.3745,6.4509,6.2023,6.1665,0.0,0.0,0.0,0.0,0.0,0.0,0.0,0.0,0.0,0.0,0.0,0.0,0.0,0.0,0.0,5.9775,6.0276,6.0744,6.1777,6.2342,6.2935,6.3846,6.3939,6.3992,6.419,6.4202,6.4211,6.4211,6.5002,6.5434,6.5267,6.6097,6.6488,6.6285,6.631,6.6301,6.6304,6.6287,6.6372,6.6553,0.0,0.0,6.6621,6.6465,6.6817,6.7598,6.7601,6.7603,6.7603,6.7801,6.687,6.5273,6.4762,6.5583,6.6874,6.4804,6.4062,6.4023,6.3863,6.3431,6.3117,6.3814,6.4044,6.4003,6.3839,6.3915,0.0,6.3831,6.3789,6.375,6.3589,6.3003,6.2459,6.2303,6.1054,5.9922,6.0104,5.9474,5.8883,5.9063,5.8942,5.8868,5.8847,5.7874,5.7063,5.7077,5.7389,5.7432,5.6898,5.6548,5.6394,5.6636,5.5857,5.6054,5.7812,5.6797,5.703,5.9255,6.0892,6.1439,6.0739,6.1911,6.246,6.2265,6.2929,6.3552,6.4055,6.4752,6.5528,6.6264,6.4395,6.3716,0.0,0.0,0.0,0.0,0.0,0.0,0.0,0.0,0.0,0.0,0.0,5.6394,5.8124,0.0,5.9821,6.2016,6.2721,6.3152,6.3585,6.4325,6.4708,6.4299,6.4611,6.4692,6.4308,6.4624,6.4901,6.4901,6.5295,6.5725,6.619,6.6623,6.6857,6.6854,6.6848,6.6844,6.6846,6.6837,6.6841,6.6852,6.6852,6.7092,6.749,6.749,6.7958,6.8739,6.8313,6.8158,6.8119,6.7692,6.7264,6.6797,6.5937,6.5859,6.6208,6.5775,6.5619,6.5541,6.5107,6.4675,6.436,6.4823,6.4935,6.485,6.4416,6.4609,6.4765,6.3899,6.3938,6.4052,6.3185,6.2956,6.2881,6.2404,6.132,6.062,6.1485,6.0633,6.0015,6.0843,6.0652,6.035,6.036,6.0009,5.943,5.8595,5.8441,5.8445,5.8455,5.8066,5.7991,5.8466,5.7767,5.7769,5.9099,5.9178,6.0078,6.2226,6.2773,6.3007,6.3007,6.3007,6.3592,6.4915,6.4526,6.5145,6.685,6.6844,6.7264,6.803,6.7172,6.6769,0.0,0.0,0.0,0.0,0.0,0.0,0.0,5.4784,5.5513,5.5892,5.6916,5.8254,5.9829,6.1393,6.3036,6.4759,6.5505,6.5858,6.5855,6.6405,6.6327,6.4958,6.5382,6.5496,6.4839,6.5426,6.5855,6.5854,6.5854,6.6167,6.6868,6.6907,6.6985,6.7142,6.714,6.7139,6.7139,6.7138,6.706,6.6905,6.6905,6.7258,6.7884,6.7884,6.8235,6.886,6.8239,6.7967,6.7889,6.7187,6.7304,6.789,6.7341,6.6595,6.5925,6.6628,6.6784,6.6589,6.6001,6.5723,6.5639,6.5796,6.5829,6.5702,6.4999,6.5273,6.5543,6.4124,6.4197,6.4389,6.2971,6.3172,6.3566,6.2776,6.2008,6.1741,6.3101,6.2219,6.1491,6.2668,6.2325,6.179,6.1634,6.1595,6.1137,5.9795,5.8983,5.8753,5.9269,5.8724,5.865,5.9515,5.905,5.9053,6.0113,6.1598,6.3043,6.4449,6.4054,6.4051,6.4793,6.3426,6.4089,6.7054,6.5765,6.6457,6.9399,6.8853,6.8915,6.9545,6.9697,6.9619,5.2942,5.3126,5.3883,5.6264,5.7104,5.7747,0.0,6.0162,6.0429,5.8948,6.0571,6.2574,6.3551,6.4491,6.5742,6.7461,6.7187,6.6756,6.6756,6.6832,6.6828,6.6634,6.6679,6.668,6.6522,6.6676,6.6753,6.6756,6.6756,6.6796,6.6875,6.6914,6.7265,6.8047,6.8045,6.8043,6.8043,6.8,6.7609,6.6911,6.6911,6.6951,6.7031,6.7031,6.7109,6.7187,6.707,6.7031,6.7031,6.6953,6.6953,6.7107,6.7727,6.7446,6.6696,6.6774,6.6346,6.5837,6.6453,6.6214,6.5704,6.6446,6.668,6.6639,6.6561,6.66,6.6636,6.6427,6.6421,6.646,6.6265,6.6291,6.6362,6.6219,6.5549,6.4989,6.518,6.4439,6.3584,6.2996,6.2804,6.2492,6.1712,6.1595,6.1559,6.1368,6.1303,6.1038,6.0339,6.0154,6.0434,6.1332,6.1342,6.1937,6.3583,6.4599,6.5263,6.5459,6.6084,6.6512,6.659,6.6351,6.6772,6.7932,6.7763,6.8213,6.9323,6.9986,7.0368,7.0459,7.1175,7.0707,5.4944,5.5018,5.5042,5.6599,5.7796,5.8753,5.9446,6.0673,6.1624,6.1433,6.3041,6.4608,6.5,6.578,6.6756,0.0,6.7843,6.7605,6.761,6.7604,6.7404,6.6896,6.6824,6.6867,6.6868,6.6866,6.6905,6.6907,6.6907,6.6908,6.691,6.691,6.7261,6.8122,6.8123,6.8163,6.8203,6.8633,6.8437,6.7656,6.7656,6.7929,6.8398,6.789,6.7656,6.7656,6.7656,6.7382,6.6953,6.746,6.7655,6.7692,6.7995,6.7874,6.7562,6.7549,6.7037,6.6334,6.668,6.6561,6.6366,6.6709,6.679,6.6792,6.6814,6.6781,6.6675,6.618,6.6414,6.6691,6.6174,6.6436,6.6783,6.674,6.6116,6.564,6.6083,6.5164,6.4244,6.4388,6.4006,6.3542,6.3179,6.3109,6.3113,6.3101,6.2737,6.2323,6.1975,6.2376,6.2813,6.3164,6.3215,6.3691,6.4944,6.5368,6.5759,6.627,6.6651,6.6841,6.685,6.6331,6.6673,6.8069,6.7585,6.8227,7.0078,7.0429,7.0834,7.1299,7.1644,7.1165,5.6209,5.6238,5.5944,5.7543,5.8886,5.9874,6.0107,6.1516,6.2887,6.328,6.4922,6.6211,6.6012,6.6832,6.7767,6.835,6.8458,6.8377,6.811,6.8103,6.7785,6.6885,6.6612,6.6577,6.6857,6.6857,6.6859,6.686,6.686,6.6862,6.6902,6.6904,6.7255,6.8075,6.8311,6.8471,6.8513,6.9334,6.9335,6.8515,6.832,6.8515,6.9101,6.8242,6.7851,6.7851,6.8083,6.781,6.7304,6.8161,6.8394,6.8159,6.8107,6.7949,6.7757,6.7739,6.7344,6.6839,6.7071,6.699,6.6795,6.6817,6.6781,6.6787,6.6801,6.6811,6.6667,6.6057,6.6294,6.6652,6.6014,6.6319,6.6779,6.6724,6.626,6.5983,6.6571,6.5736,6.5016,6.5437,6.4977,6.4478,6.4228,6.4201,6.4201,6.4181,6.3897,6.3605,6.3371,6.4082,6.4637,6.4637,6.4843,6.5241,6.5863,6.59,6.6134,6.6763,6.6784,6.6817,6.679,6.6418,6.6911,6.8394,6.8063,6.8865,7.0912,7.0941,7.1104,7.1446,7.1673,7.118,5.7282,5.7172,5.7373,6.0694,6.1592,6.1828,6.2692,6.4218,6.5234,6.4412,6.6282,6.7801,6.6982,6.8193,6.9325,6.9364,6.9358,6.9078,6.8219,6.8091,6.7771,6.6915,6.6092,6.5936,0.0,6.6798,6.6802,6.6811,6.6813,6.6817,6.6902,6.6904,6.7255,6.8075,6.8901,6.9372,6.9372,7.0234,7.0234,6.9333,6.8552,6.82,6.82,6.7341,6.695,6.6989,6.7765,6.8075,6.8114,6.9011,6.8855,6.8114,6.8105,6.7594,6.685,6.6839,6.6802,6.6926,6.7774,6.7498,6.6795,6.6817,6.6811,6.6811,6.6811,6.6811,6.6772,6.6772,6.6772,6.6772,6.6772,6.6798,6.6783,6.6783,6.6728,6.6672,6.6711,6.6672,6.6408,6.5648,6.5496,6.5184,6.4368,6.4212,6.4205,6.4181,6.4899,6.5106,6.4287,6.4911,6.5457,6.5457,6.6216,6.673,6.6748,6.6739,6.6751,6.6814,6.6811,6.6811,6.6811,6.7516,6.8349,6.9245,7.0079,7.0926,7.1739,7.1755,7.1329,7.0557,7.1333,7.079,5.7653,5.8437,5.9414,6.0547,6.1289,6.2069,6.3513,6.4762,6.5502,6.5227,6.6749,6.7682,6.6272,6.6935,6.7676,6.7668,6.7664,6.7388,6.6568,6.6915,6.6717,6.5314,6.5897,0.0,0.0,0.0,0.0,6.6763,6.6802,6.7076,6.7666,6.7158,6.7473,6.8915,6.9232,6.9394,6.9401,7.0847,7.0811,6.9407,6.8548,6.7845,6.7336,6.6981,6.6863,6.6906,6.7134,6.7249,6.7371,6.8187,6.8379,6.8144,6.8759,6.8798,6.8529,6.8518,6.8169,6.7631,6.7347,6.7068,6.6795,6.6817,6.6781,6.6784,6.6801,6.6811,6.6784,6.6801,6.6801,6.6808,6.6798,6.6779,6.6724,6.6779,6.6755,6.6688,6.6707,6.6697,6.661,6.6347,6.6308,6.6191,6.5918,6.5853,6.5874,6.5932,6.5698,6.562,6.5904,6.6187,6.6352,6.6352,6.6628,6.6781,6.6805,6.7322,6.7436,6.6833,6.7341,6.7419,6.6833,6.7582,6.8149,6.8422,6.9845,7.0726,7.0998,7.097,7.1057,7.129,7.0975,7.051,5.8475,5.9332,6.0151,6.1086,6.1515,6.2059,6.3502,6.4516,6.5141,6.5137,6.6234,6.6701,6.4974,6.56,6.6184,6.5548,6.5975,6.617,6.5663,6.6053,6.6092,6.5275,6.6131,6.66,0.0,0.0,0.0,6.6795,6.7107,6.7381,6.7615,6.7107,6.7615,6.9333,6.9416,6.9696,7.0327,7.1425,7.1114,6.9399,6.8813,6.7954,6.6859,6.6815,6.6815,6.6898,6.7162,6.728,6.7402,6.8566,6.8837,6.8642,6.953,6.965,6.9345,6.9062,6.8596,6.8015,6.7461,6.7068,6.6795,6.6817,6.682,6.6784,6.6801,6.6808,6.6817,6.6798,6.6805,6.6808,6.6798,6.7017,6.7126,6.6861,6.6997,6.7092,6.6798,6.6755,6.6755,6.6724,6.6724,6.6724,6.6724,6.7005,6.7212,6.7276,6.6798,6.6518,6.6772,6.7052,6.7133,6.682,6.7094,6.7127,6.6794,6.7578,6.7848,6.7278,6.8058,6.8292,6.7707,6.8505,6.8914,6.8904,7.0292,7.1015,7.1003,7.0934,7.1024,7.123,7.0953,7.0495,5.9748,5.9826,5.9831,6.2324,6.2329,6.194,6.2869,6.3726,6.4271,6.4223,6.493,6.4974,6.3128,6.4267,6.4933,6.3284,6.4453,6.5624,6.5663,6.5663,6.5936,0.0,0.0,0.0,0.0,0.0,0.0,6.6873,0.0,6.7732,6.6912,6.6834,6.7615,6.9333,6.9384,7.021,7.1926,7.1897,7.0999,6.9312,6.9273,6.8414,6.6811,6.6811,6.6811,6.685,6.7737,6.8083,6.8161,6.9879,7.0074,6.9411,7.023,7.0113,6.9372,6.8474,6.82,6.8239,6.8161,6.7576,6.6795,6.6817,6.6814,6.6814,6.6814,6.684,6.6869,6.6886,6.6892,6.6931,6.6931,6.7553,6.794,6.7064,6.7485,6.7875,6.6978,6.6798,6.6814,6.6792,6.6795,6.6795,6.6832,6.7562,6.8096,6.8174,6.816,6.7844,6.7042,6.7578,6.7762,6.7017,6.7645,6.7751,6.6906,6.7707,6.8175,6.8071,6.889,6.9358,6.9314,7.0113,7.0553,7.0518,7.1336,7.1751,7.1718,7.1644,7.1233,7.0494,7.1194,7.0704,6.0204,6.0705,6.1208,6.1879,6.1844,6.2117,6.3638,6.4145,6.4106,6.3477,6.4032,6.3685,6.0668,6.2041,6.3529,6.3089,6.4453,6.5819,6.6405,6.6483,6.6366,6.5936,6.6444,6.6561,6.5975,6.7224,0.0,0.0,6.7615,6.8005,6.7771,6.7146,6.7615,6.9333,6.9416,6.9923,7.1016,7.0394,6.9496,6.8401,6.7776,6.7229,6.68,6.68,6.68,6.6839,6.7732,6.7732,6.7224,6.8318,6.863,6.8435,6.8669,6.9411,7.027,6.9372,6.9489,6.9957,6.9294,6.8083,6.6795,6.6792,6.679,6.679,6.679,6.7255,6.776,6.7763,6.8234,6.8742,6.8742,6.8889,6.8844,6.7991,6.7936,6.7844,6.6996,6.6798,6.6794,6.6798,6.6798,6.6989,6.7594,6.7914,6.8305,6.8912,6.8999,6.889,6.8702,6.7762,6.7524,6.8535,6.8344,6.8258,6.8622,6.9463,6.9692,6.9026,6.9782,6.9967,6.9262,7.0069,7.0518,7.0486,7.1303,7.1725,7.1718,7.1053,7.0961,7.135,7.0837,7.0765,6.0912,6.1306,6.1777,6.2128,6.1944,6.1952,6.293,6.3164,6.2813,6.1564,6.169,6.142,5.9456,6.0909,6.2551,6.2933,6.4453,6.6014,6.7185,6.7029,6.6756,6.6717,6.742,6.7459,6.6249,6.7654,6.8161,0.0,6.7615,6.7927,6.7537,6.7068,6.742,6.8786,6.8825,6.9606,7.1245,7.0035,6.9333,6.9215,6.7966,6.7185,6.6795,6.6795,6.6795,6.6834,0.0,6.7264,6.6873,6.7732,6.8083,6.8122,6.8513,6.9255,7.0074,6.9567,6.9723,7.0074,6.9567,6.8747,6.7927,6.7927,6.7927,6.7927,6.7927,6.8276,6.8658,6.8658,6.9012,6.9402,6.9402,6.9667,6.9741,6.8892,6.8958,6.8986,6.8138,6.7943,6.7936,6.7929,6.7926,6.8074,6.8483,6.8921,6.9354,6.9809,6.9887,7.0004,7.0399,6.9276,6.8699,6.9288,6.9276,6.9224,6.9298,7.006,7.0352,6.9852,7.0631,7.0853,7.0304,7.0772,7.1031,7.1029,7.1457,7.1683,7.1668,7.1179,7.1194,7.1645,7.1115,7.1111,6.1768,6.1712,6.1849,6.2421,6.205,6.1483,6.1366,6.1288,6.0781,5.9375,5.8996,5.8921,5.8911,6.044,6.1967,6.2698,6.4297,6.6017,6.7693,6.7185,6.6951,6.781,6.8708,6.8591,6.6951,6.8279,6.8591,6.7107,6.7654,6.7732,6.6834,6.6795,6.7185,6.8083,6.82,6.9294,7.1441,6.9996,6.9567,7.0152,6.8669,6.7537,6.6795,6.6795,6.6795,6.6795,0.0,0.0,6.6873,6.7732,6.8083,6.8161,6.8786,6.9215,6.9372,6.9255,6.9294,6.9411,6.9528,6.9567,6.9567,6.945,6.9411,6.9411,6.9411,6.948,6.9585,6.9585,6.9663,6.9741,6.9741,7.0327,7.0639,6.978,7.0132,7.0444,6.9585,6.9402,6.9405,6.9387,6.9384,6.9416,6.9471,7.0091,7.0641,7.0754,7.0775,7.1034,7.1775,7.1014,7.0255,6.9763,7.0238,7.0342,6.9697,7.0258,7.0674,7.0674,7.131,7.1718,7.1718,7.1711,7.169,7.1692,7.1684,7.1669,7.1589,7.1581,7.1594,7.1589,7.1589,7.1571,6.2676,6.2141,6.1488,6.0951,6.0734,6.0432,5.9729,5.8987,5.8597,5.9026,5.8527,5.8023,5.8014,6.0057,6.1741,6.1918,6.3406,6.5128,6.6798,6.6327,6.6092,6.6912,6.7771,6.7927,6.6912,6.7732,0.0,0.0,0.0,6.7732,6.6834,6.6795,6.7185,6.8083,6.8786,6.9059,6.8786,6.8474,6.8044,6.7459,6.7185,6.6951,6.6795,6.6795,6.6795,6.6834,6.7576,0.0,6.6873,6.7732,6.8083,6.8044,6.7459,6.8122,6.9294,6.8591,6.8786,6.9489,7.023,7.0465,7.0348,6.9645,6.9411,6.9411,6.9411,6.9915,7.0459,7.0459,7.1008,7.1555,7.1555,7.1672,7.1555,7.0693,7.0576,7.0459,6.9603,6.9411,6.9405,6.9387,6.9384,6.9607,7.0268,7.0493,7.0839,7.1487,7.1594,7.1633,7.1788,7.0469,7.0006,7.1253,7.0897,7.0804,7.1327,7.1504,7.1575,7.1575,7.166,7.1718,7.1718,7.169,7.1653,7.1614,7.1611,7.1624,7.1616,7.1541,7.1513,7.1504,7.1504,7.1475,6.2457,6.1924,6.1506,6.1137,6.0723,6.0034,5.8712,5.8089,5.7816,5.7816,5.7473,5.7438,5.8326,5.9511,6.0806,6.2152,6.306,6.4667,6.7735,6.7425,6.7193,6.8047,6.8513,6.8435,6.7576,6.7849,6.8279,0.0,0.0,6.8396,6.7537,6.7068,6.719,6.8054,6.8054,6.8486,6.9429,6.8564,6.8366,6.8837,6.7893,6.7224,6.6795,6.6795,6.6795,6.6834,6.7224,0.0,6.6834,6.7264,6.742,6.7381,6.6951,6.7576,6.8669,6.8239,6.8669,6.9528,7.0387,7.0699,7.0699,7.0738,7.0738,7.0738,7.0738,7.105,7.1363,7.1363,7.1675,7.1987,7.1987,7.1982,7.1858,7.1429,7.1302,7.1224,7.0852,7.0727,7.071,7.07,7.0688,7.0828,7.118,7.1209,7.1365,7.1744,7.1817,7.1817,7.1817,7.1115,7.0926,7.176,7.1477,7.1383,7.1755,7.1764,7.1732,7.1757,7.1683,7.1661,7.1661,7.1638,7.1645,7.1603,7.1616,7.1589,7.1561,7.1504,7.1475,7.1455,7.1455,7.1425,6.1958,6.1586,6.153,6.1162,6.0594,5.9636,5.7697,5.7113,5.6918,5.6647,5.6302,5.6616,5.8486,5.8849,5.9633,6.2039,6.2439,6.3888,6.8008,6.8017,6.7863,6.875,6.9179,6.9062,6.8161,6.8279,0.0,0.0,0.0,0.0,6.8435,6.7537,6.7388,6.8062,6.724,6.7791,6.9829,6.8537,6.8533,6.9857,6.8481,6.7464,6.68,6.6798,6.6798,6.68,6.6798,0.0,0.0,6.6795,6.6795,6.6795,6.6795,6.7342,6.8083,6.8083,6.8669,6.9528,7.0387,7.0699,7.0855,7.1714,7.1987,7.1987,7.1987,7.1987,7.1987,7.1993,7.1993,7.1993,7.1995,7.1948,7.1933,7.1888,7.1913,7.1909,7.1979,7.1924,7.1897,7.1893,7.1911,7.1887,7.1822,7.1817,7.1817,7.1817,7.1817,7.1817,7.1817,7.1817,7.1827,7.1887,7.1827,7.1806,7.18,7.1745,7.169,7.1699,7.1622,7.1606,7.1614,7.1606,7.1581,7.1577,7.1607,7.158,7.1494,7.1485,7.1445,7.1394,7.1394,7.1334,6.1651,6.1586,6.1218,5.9719,5.9267,5.858,5.6096,5.4927,5.4773,5.6305,5.5326,5.5013,5.7527,5.7953,5.8534,6.0329,6.0643,6.1889,6.547,6.587,6.6145,6.6954,6.8447,6.9071,6.8161,6.8825,0.0,0.0,0.0,0.0,6.9333,6.8435,6.801,6.8101,6.724,6.693,6.7164,6.7056,6.7051,6.7149,6.7002,6.6889,6.6811,6.68,6.6802,6.6809,6.68,0.0,0.0,6.6795,6.6795,6.6795,6.6795,6.7342,6.8083,6.8083,6.8669,6.9528,7.0387,7.0699,7.0855,7.1714,7.1987,7.1987,7.1987,7.1987,7.199,7.2002,7.2004,7.2006,7.2016,7.201,7.1997,7.1894,7.1884,7.1884,7.1927,7.1884,7.1916,7.1897,7.1911,7.1887,7.1822,7.1817,7.1817,7.1817,7.1817,7.1817,7.1817,7.1817,7.1817,7.1822,7.1794,7.1797,7.1732,7.169,7.1707,7.1699,7.1622,7.1614,7.1692,7.1622,7.1598,7.1598,7.1586,7.158,7.1494,7.1445,7.1355,7.1302,7.1302,7.1302,6.0677,6.0417,5.9892,5.9251,5.8292,5.7019,5.4964,5.3834,5.3719,5.5441,5.4857,5.4781,5.736,5.7405,5.7447,5.8653,5.9323,6.0691,6.3605,6.4472,6.5526,6.7344,6.8205,6.8908,0.0,0.0,0.0,0.0,0.0,0.0,7.0972,6.9145,6.8334,6.8851,6.7566,6.71,6.7647,6.7646,6.7601,6.7588,6.7583,6.731,6.6802,6.6798,6.6798,6.6802,6.6798,0.0,0.0,6.6795,6.6795,6.6795,6.6795,6.7342,6.8044,6.7498,6.82,6.945,6.9801,7.027,7.0855,7.1714,7.1987,7.199,7.1997,7.1648,7.1338,7.1856,7.2014,7.2016,7.2019,7.2008,7.199,7.193,7.1916,7.1913,7.1937,7.1924,7.1901,7.1893,7.1911,7.1887,7.1822,7.1817,7.1817,7.1817,7.1817,7.1811,7.1788,7.1806,7.1767,7.1725,7.1764,7.1751,7.1718,7.1683,7.1692,7.163,7.1606,7.1606,7.1622,7.1606,7.1589,7.1594,7.1616,7.1561,7.1445,7.1425,7.1384,7.1291,7.1291,7.1291,5.9018,5.91,5.9038,5.9063,5.7788,5.6121,5.473,5.3522,5.3134,5.4619,5.4428,5.4704,5.7006,5.6973,5.6858,5.7677,5.8584,6.0069,6.2631,6.3967,6.5451,6.7461,0.0,6.8593,0.0,7.0387,0.0,0.0,0.0,0.0,0.0,6.9624,6.8771,6.9363,6.7768,6.7184,6.7808,6.7766,6.7721,6.7707,6.7744,6.7549,6.7197,6.6924,6.6963,6.7158,0.0,0.0,0.0,6.7068,6.7029,6.6834,6.7068,6.7576,6.8044,6.742,6.8279,6.9762,6.9762,7.0348,7.1206,7.1792,7.1834,7.1644,7.1926,7.1575,7.1223,7.1819,7.2017,7.2019,7.2017,7.2004,7.1984,7.193,7.1913,7.1909,7.1976,7.1924,7.1901,7.1901,7.192,7.1892,7.1833,7.1822,7.1817,7.1817,7.1817,7.1811,7.1788,7.1806,7.1761,7.1712,7.1758,7.1751,7.1704,7.1668,7.163,7.1606,7.1598,7.1598,7.1598,7.1598,7.1581,7.1586,7.1607,7.1523,7.1435,7.1657,7.1616,7.1291,7.1562,7.1678,5.6521,5.7758,5.9003,5.9075,5.7796,5.6277,5.5472,5.3953,5.294,5.3847,5.3998,5.4543,5.6278,5.6619,5.6844,5.7674,5.8536,6.0017,6.262,6.4473,6.5884,6.6722,6.7588,6.8097,6.8122,0.0,0.0,0.0,0.0,0.0,0.0,6.9871,6.9402,6.9402,6.7768,6.6909,6.6904,6.6909,6.6865,6.6798,6.6896,6.7332,6.8075,6.7254,6.7333,0.0,0.0,0.0,0.0,6.7732,6.7576,6.6873,6.7732,6.8083,6.8083,6.8083,6.9176,7.0699,7.0699,7.1245,7.1987,7.1987,7.1412,7.0874,7.1733,7.1997,7.199,7.2002,7.2014,7.2017,7.2008,7.1997,7.1984,7.193,7.1884,7.1884,7.1888,7.1884,7.1884,7.1884,7.1893,7.1897,7.1897,7.1838,7.1817,7.1817,7.1817,7.1817,7.1817,7.1817,7.1817,7.1817,7.1794,7.1784,7.1707,7.1622,7.1598,7.1598,7.1598,7.1598,7.1598,7.1598,7.1598,7.1598,7.1586,7.158,7.1494,7.2287,7.2197,7.133,7.2181,7.2607,5.6014,5.6059,5.5714,5.6308,5.5155,5.3838,5.3563,5.263,5.2049,5.2944,5.3602,5.4344,5.5484,5.6181,5.6844,5.7674,5.9042,6.0485,6.1926,6.3103,6.4353,6.5822,6.6722,6.7464,0.0,0.0,0.0,0.0,0.0,0.0,0.0,7.021,6.9166,6.8589,6.7498,6.6912,6.6904,6.7495,6.7453,6.6807,6.7445,6.7841,6.8075,6.7841,0.0,0.0,0.0,0.0,0.0,6.7732,6.7927,6.7771,6.8669,6.8981,6.8981,6.8981,6.9723,7.0699,7.0699,7.086,7.1099,7.1092,7.0518,6.9866,7.0126,7.0638,7.1116,7.1117,7.155,7.1744,7.0525,7.1106,7.1997,7.1984,7.2411,7.2876,7.2876,7.2831,7.2427,7.1242,7.1491,7.1697,7.1092,7.1432,7.1817,7.1817,7.1817,7.1811,7.1788,7.1806,7.1761,7.1758,7.1764,7.1751,7.1704,7.1668,7.163,7.1606,7.1598,7.1598,7.1598,7.1598,7.1598,7.1598,7.1581,7.1577,7.1494,7.2328,7.2809,7.3071,7.2761,7.2916,5.4516,5.4552,5.4206,5.5031,5.3951,5.2788,5.3134,5.2278,5.1657,5.2509,5.3405,5.4264,5.5123,5.6255,5.7233,5.7709,5.9275,6.0719,6.1573,6.2748,6.4037,6.5429,0.0,0.0,0.0,0.0,0.0,0.0,0.0,0.0,0.0,6.9974,6.889,6.7768,6.7185,6.6911,6.6904,6.7454,6.7569,6.7287,6.788,6.847,6.9055,6.8432,0.0,0.0,0.0,0.0,0.0,6.8086,6.8396,6.8239,6.9411,6.9684,6.9411,6.9411,6.9957,7.0699,7.0699,7.0704,7.0709,7.0702,7.0123,6.9392,6.9384,7.0013,7.0644,7.0292,7.0839,7.1188,6.9776,7.0438,7.1529,7.1521,7.2417,7.3312,7.3312,7.3264,7.2896,7.1792,7.1764,7.1736,7.1175,7.1477,7.1817,7.1817,7.1817,7.1811,7.1788,7.1806,7.1767,7.1725,7.1764,7.1758,7.1718,7.1683,7.1684,7.1606,7.1598,7.1598,7.1598,7.1598,7.1598,7.1598,7.1564,7.1676,7.195,7.2763,7.3562,7.4347,7.3806,7.3844,0.0,5.3203,5.3977,5.4732,5.3758,5.2782,5.3561,5.2507,0.0,5.2509,5.3405,5.4264,5.5123,5.6684,5.7816,5.7894,5.9347,6.0794,6.1681,6.3174,0.0,0.0,6.6092,0.0,0.0,0.0,0.0,0.0,0.0,0.0,0.0,6.9316,6.8574,6.6941,6.6902,6.6902,6.6902,6.6943,6.7333,6.8036,6.8199,6.9099,7.0545,6.9062,0.0,0.0,0.0,0.0,0.0,6.8674,6.8903,6.8357,7.0113,7.0309,6.9567,6.9567,7.0113,7.0777,7.0777,7.0699,7.0582,7.0467,6.9882,6.9218,6.9232,6.985,7.0426,6.9567,6.9957,7.0387,6.945,6.9918,7.0621,7.0699,7.2026,7.3315,7.3354,7.3342,7.3289,7.3208,7.2552,7.1975,7.1892,7.1872,7.1856,7.1817,7.1817,7.1817,7.1817,7.1817,7.1817,7.1817,7.1794,7.1758,7.1718,7.1683,7.1684,7.1606,7.1598,7.1598,7.1598,7.1598,7.1598,7.1598,7.158,7.1989,7.2803,7.3552,7.4347,7.5187,7.5121,7.5121,5.1473,0.0,5.1891,5.1425,5.1504,5.1581,0.0,5.1224,5.1659,5.2511,5.3405,5.4264,5.5123,5.6684,5.8009,5.8699,6.0271,6.172,6.2566,6.3045,0.0,6.4494,6.4179,0.0,0.0,0.0,0.0,0.0,0.0,0.0,0.0,6.8401,6.7937,6.6854,6.6809,6.6809,6.6815,6.7531,6.765,6.7216,6.8553,6.9375,6.9726,7.0,0.0,0.0,0.0,0.0,6.6928,6.8674,6.9294,6.9255,7.1011,7.1558,7.1402,7.1402,7.1519,7.1675,7.1675,7.0824,6.9505,6.8222,6.7631,6.7422,6.7395,6.8484,6.9528,6.8669,6.902,6.9333,6.781,6.8552,6.9879,7.0543,7.2026,7.3471,7.4095,7.42,7.3988,7.3349,7.3051,7.2672,7.195,7.2368,7.2557,7.1895,7.1817,7.1817,7.1817,7.1817,7.1817,7.1817,7.1788,7.1751,7.1718,7.1683,7.1684,7.1606,7.1598,7.1598,7.1598,7.1598,7.1598,7.1598,7.2123,7.2841,7.3704,7.3823,7.4657,7.6088,7.543,7.5469,5.1285,5.1672,5.1784,5.0921,5.1351,5.1777,5.0908,5.1066,5.1538,5.2001,5.278,5.3678,5.4537,5.6411,5.8087,5.8978,6.0544,6.2147,6.343,0.0,6.4219,6.4299,6.457,0.0,0.0,0.0,0.0,0.0,0.0,0.0,0.0,6.7303,6.7112,6.6266,6.6607,6.6807,6.6863,6.7336,6.7573,6.7497,6.8867,6.9687,7.0,7.0469,7.0429,0.0,0.0,0.0,6.7482,6.8833,6.9411,6.9567,7.1324,7.1987,7.1987,7.1987,7.1987,7.1987,7.1987,7.1134,6.9735,6.8021,6.7432,6.7305,6.6919,6.7464,6.8122,6.7654,6.8122,6.8474,6.7146,6.781,6.8903,6.9372,7.1128,7.2924,7.3783,7.3927,7.3875,7.3825,7.348,7.2906,7.1994,7.288,7.3258,7.1973,7.2128,7.2245,7.1856,7.1817,7.1811,7.18,7.1764,7.1732,7.1697,7.1653,7.1622,7.1598,7.1598,7.1598,7.1598,7.1598,7.1589,7.1603,7.2734,7.349,7.3974,7.4702,7.5508,7.6397,7.5933,7.5933,5.1562,5.2341,5.2806,5.1512,5.1978,5.2444,5.1419,5.1299,5.1494,5.1726,5.2507,5.3405,5.4381,5.6567,5.8441,5.918,6.0622,6.2262,6.3865,6.4606,6.4841,6.4375,6.5429,0.0,0.0,0.0,0.0,0.0,0.0,0.0,0.0,6.6175,6.6299,6.5608,6.6379,6.6856,6.6912,6.6907,6.7261,6.8008,6.9023,6.9844,7.0508,7.0781,7.082,0.0,0.0,0.0,6.8387,6.9225,6.9606,6.9762,7.1363,7.199,7.199,7.1987,7.199,7.199,7.1831,7.1324,7.0426,6.8825,6.82,6.7966,6.7224,6.6912,6.6795,6.6792,6.7339,6.7732,6.699,6.7459,6.8122,6.8279,7.0191,7.2221,7.3119,7.3147,7.3289,7.43,7.3566,7.2638,7.2165,7.3158,7.3492,7.2011,7.244,7.2635,7.1895,7.1817,7.1806,7.1815,7.1738,7.1704,7.1699,7.1622,7.1675,7.1792,7.1675,7.1598,7.1598,7.1598,7.1659,7.181,7.3268,7.4023,7.4126,7.5658,7.6397,7.6397,7.6397,7.6397,5.2304,5.3672,5.4179,5.1131,5.1557,5.2294,5.0686,5.0879,5.1815,5.329,5.4303,5.5396,5.6918,5.8753,6.0039,6.0182,6.099,6.1999,0.0,0.0,6.28,6.414,0.0,0.0,0.0,0.0,0.0,0.0,0.0,0.0,0.0,6.5334,6.5732,6.5582,6.6435,6.6907,6.6914,6.6909,6.6985,6.7107,6.8711,6.9531,6.9648,7.1133,7.1406,0.0,0.0,6.9872,6.9285,7.0123,7.0504,7.0582,7.1597,7.1995,7.2002,7.1993,7.1995,7.1885,7.117,7.0816,7.0543,6.9528,6.8708,6.8083,6.7927,6.7381,6.6792,6.6781,6.6904,6.6951,6.6834,6.7459,6.8279,6.902,7.0621,7.2221,7.3119,7.2678,7.2583,7.4203,7.2578,7.1424,7.2685,7.2524,7.2089,7.1856,7.1895,7.1934,7.1817,7.1817,7.1806,7.1809,7.1738,7.1704,7.1699,7.1622,7.1908,7.2647,7.2025,7.1598,7.1598,7.1598,7.1947,7.2669,7.3558,7.4353,7.508,7.599,7.6397,7.6397,7.6397,7.6397,5.1874,5.2929,5.3515,5.1953,5.3553,5.4917,5.2724,5.2877,5.3614,5.3922,5.4697,5.5669,5.6918,5.8948,6.07,6.1663,0.0,6.1975,6.2873,6.2644,0.0,0.0,0.0,0.0,0.0,0.0,0.0,0.0,0.0,0.0,0.0,0.0,6.5108,6.558,6.5538,6.5735,6.6171,6.5738,6.5973,6.6913,6.8202,6.8789,6.8789,7.0039,7.039,6.996,0.0,6.9088,6.8771,6.9652,6.9996,7.0113,7.148,7.1993,7.1956,7.1482,7.1602,7.1878,7.1014,7.1011,7.1245,7.0387,6.984,6.9333,6.8396,6.781,6.742,6.6943,6.679,6.6912,6.737,6.7805,6.8318,6.9176,7.0387,7.1516,7.2366,7.1852,7.1764,7.3458,7.2461,7.1541,7.2311,7.288,7.2908,7.1934,7.2195,7.2339,7.1872,7.1776,7.1751,7.1757,7.1736,7.1668,7.163,7.1614,7.1753,7.218,7.2258,7.2103,7.1636,7.2064,7.2474,7.2837,7.4092,7.4886,7.5242,7.6018,7.6397,7.6397,7.6397,7.6397,5.1327,5.2187,5.3007,5.3008,5.4843,5.6209,5.4408,5.4519,5.4867,5.4394,5.5168,5.6098,5.6762,5.8829,6.0854,6.217,6.1975,6.1936,6.2599,0.0,0.0,0.0,0.0,0.0,0.0,0.0,0.0,0.0,0.0,0.0,0.0,0.0,6.4717,6.5577,6.4951,6.4836,6.5271,6.484,6.5154,6.6289,6.7186,6.7694,6.7929,6.8749,6.9217,6.9371,6.87,6.8382,6.8451,6.9103,6.953,6.9845,7.1173,7.1836,7.1914,7.1253,7.1446,7.1909,7.1245,7.1441,7.187,7.1206,7.0855,7.0462,6.9093,6.8588,6.8276,6.7568,6.7414,6.7534,6.7991,6.8267,6.8624,6.9489,7.0345,7.1159,7.1771,7.1257,7.1129,7.2591,7.2179,7.1731,7.2121,7.3236,7.3648,7.2318,7.2684,7.2783,7.1874,7.1732,7.1704,7.1707,7.1699,7.1684,7.1606,7.1792,7.1831,7.1598,7.2413,7.253,7.1636,7.2452,7.2979,7.3139,7.4548,7.539,7.5542,7.6134,7.6397,7.6397,7.6397,7.6397,5.1165,5.2615,5.3906,5.3906,5.3476,5.3242,5.3862,5.4054,5.4323,5.505,5.6491,5.7621,5.7699,5.9173,6.0453,6.057,6.1166,6.1662,0.0,0.0,0.0,0.0,0.0,0.0,0.0,0.0,0.0,0.0,0.0,0.0,0.0,0.0,0.0,6.5577,6.5538,6.515,6.4412,6.515,6.515,6.449,6.5389,6.6207,6.7023,6.7843,6.8625,6.9403,6.9318,6.9314,6.9312,6.9377,6.9887,7.0601,7.0757,7.1304,7.2006,7.1938,7.1967,7.1987,7.1948,7.1948,7.1987,7.1948,7.1363,7.0696,7.0564,6.9946,6.9288,6.9178,6.9156,6.902,6.8276,6.8694,6.9546,7.0381,7.1234,7.1849,7.1888,7.1207,7.0875,7.1828,7.1297,7.1199,7.2757,7.3103,7.3136,7.3029,7.3061,7.2776,7.1842,7.1718,7.1704,7.1707,7.1699,7.1684,7.1606,7.2336,7.2452,7.1636,7.2413,7.253,7.1636,7.2452,7.326,7.4075,7.4877,7.571,7.6485,7.6416,7.6397,7.6397,7.6397,7.6397,5.0544,5.1913,5.332,5.3867,5.375,5.375,5.4607,5.5657,5.6512,5.6815,5.7777,5.8777,5.9315,6.0408,6.1186,6.1166,6.1861,6.2247,0.0,0.0,0.0,0.0,0.0,0.0,0.0,0.0,0.0,0.0,0.0,0.0,0.0,0.0,0.0,6.4748,6.3738,6.327,6.3503,6.327,6.2997,6.2684,6.4133,6.4955,6.5308,6.6164,6.6746,6.7053,6.7557,6.7785,6.782,6.8369,6.9113,7.0017,7.1077,7.17,7.1928,7.1386,7.1536,7.1831,7.0777,7.1089,7.1909,7.1363,7.1318,7.1348,7.0834,7.0437,7.004,6.9479,6.933,6.938,6.9667,6.9976,7.0402,7.127,7.1696,7.192,7.1893,7.1226,7.1023,7.2389,7.1944,7.1895,7.3609,7.3904,7.3924,7.3912,7.3412,7.2917,7.2535,7.1987,7.1653,7.1699,7.1676,7.1614,7.1598,7.2413,7.253,7.1675,7.2413,7.2763,7.2413,7.3268,7.4097,7.4887,7.5702,7.6232,7.6466,7.6421,7.6397,7.6397,7.6397,7.6397,5.0507,5.1835,5.332,5.418,5.4414,5.4726,5.5856,5.683,5.7645,5.8103,5.867,5.9274,5.9885,6.0471,6.0857,0.0,6.1771,0.0,0.0,0.0,0.0,0.0,0.0,0.0,0.0,0.0,0.0,0.0,0.0,0.0,0.0,0.0,0.0,0.0,6.2714,6.2248,6.2596,6.2288,6.1977,6.1702,6.2916,6.3622,6.3937,6.4791,6.5333,6.5641,6.6461,6.6811,6.6885,6.7479,6.838,6.9557,7.1008,7.159,7.1544,7.1231,7.1299,7.1441,7.0543,7.1008,7.1864,7.1276,7.1465,7.1767,7.0934,7.0813,7.0848,6.9974,6.9896,7.0255,7.0895,7.0856,7.0891,7.1718,7.1909,7.1897,7.1906,7.1209,7.1092,7.2763,7.2635,7.2752,7.4505,7.5033,7.5132,7.4808,7.4209,7.3635,7.3059,7.2423,7.1917,7.1676,7.1614,7.1598,7.1598,7.2142,7.2258,7.1636,7.2397,7.2738,7.2505,7.3544,7.4353,7.4867,7.5971,7.651,7.6432,7.6409,7.6397,7.6397,7.6397,7.6397,5.117,5.2656,5.4219,5.5078,5.5312,5.5778,5.7492,5.7218,5.7096,5.8755,5.9092,5.9117,5.9102,5.9045,0.0,5.9095,0.0,0.0,0.0,0.0,0.0,0.0,0.0,0.0,0.0,0.0,0.0,0.0,0.0,0.0,0.0,0.0,0.0,0.0,6.3008,6.2586,6.1697,6.2557,6.256,6.1709,6.1702,6.216,6.3008,6.3909,6.4772,6.5641,6.6422,6.6817,6.6904,6.6904,6.7884,6.949,7.0351,7.0701,7.077,7.1669,7.1423,7.0816,7.1675,7.194,7.1884,7.1884,7.1884,7.1721,7.0862,7.123,7.1721,7.0858,7.1213,7.1893,7.1889,7.1248,7.0844,7.169,7.1915,7.1897,7.1897,7.1234,7.1112,7.2757,7.3103,7.3648,7.5402,7.6415,7.6676,7.5749,7.5599,7.4972,7.3224,7.2943,7.2569,7.1675,7.1598,7.1598,7.1598,7.1598,7.1598,7.1598,7.2371,7.2461,7.1637,7.3142,7.4014,7.4014,7.5658,7.6488,7.6488,7.6432,7.6397,7.6397,7.6397,7.6397,5.1328,5.2656,5.4062,5.4335,5.5779,5.7262,5.7722,5.764,5.7748,5.8886,5.9589,5.9619,5.8367,5.9611,0.0,0.0,0.0,0.0,0.0,0.0,0.0,0.0,0.0,0.0,0.0,0.0,0.0,0.0,0.0,0.0,0.0,0.0,0.0,0.0,6.211,6.1954,6.1686,6.1959,6.1965,6.1701,6.1699,6.1852,6.2123,6.298,6.3841,6.4743,6.5608,6.6315,6.6943,6.7529,6.8042,6.871,7.0155,7.0347,6.9872,7.077,7.0525,6.9837,7.006,7.0561,7.1065,7.1065,7.1437,7.1846,7.1589,7.1702,7.1837,7.159,7.1707,7.1901,7.1848,7.1643,7.1526,7.1823,7.1901,7.1736,7.1131,7.1263,7.1653,7.2095,7.2674,7.3453,7.4583,7.5482,7.591,7.5631,7.5572,7.4895,7.3129,7.2951,7.2601,7.1684,7.1598,7.1598,7.1598,7.1598,7.187,7.2491,7.2646,7.2919,7.3344,7.4344,7.5196,7.5735,7.6256,7.6466,7.6432,7.6409,7.6397,7.6397,7.6397,7.6397,5.3281,5.4492,5.5702,5.6365,5.773,5.8974,5.9273,5.9072,5.8983,5.9495,5.9726,5.9602,5.8854,5.9438,0.0,0.0,0.0,0.0,0.0,0.0,0.0,0.0,0.0,0.0,0.0,0.0,0.0,0.0,0.0,0.0,0.0,0.0,0.0,0.0,6.1686,6.1688,6.1688,6.1692,6.1697,6.1702,6.1702,6.1702,6.1741,6.2601,6.3461,6.4364,6.558,6.6401,6.6946,6.7417,6.7849,6.828,6.9295,6.937,6.8974,6.9869,6.9624,6.894,6.9276,6.9731,7.0196,7.0547,7.0992,7.1399,7.1394,7.162,7.1833,7.1482,7.1633,7.1892,7.1838,7.1827,7.1822,7.1838,7.1843,7.1643,7.077,7.1014,7.1487,7.1744,7.2206,7.2986,7.4194,7.4814,7.5241,7.5553,7.5526,7.4994,7.3618,7.3448,7.299,7.1722,7.1908,7.1986,7.1636,7.1908,7.2327,7.2815,7.3394,7.3976,7.4489,7.4981,7.5443,7.5952,7.63,7.6432,7.6397,7.6397,7.6397,7.6397,7.6397,7.6397,5.6133,5.7226,5.8279,5.9763,6.0341,6.0718,6.1525,6.1083,6.0522,6.0506,5.9829,5.942,6.0058,5.8962,5.8139,0.0,0.0,0.0,0.0,0.0,0.0,0.0,0.0,0.0,0.0,0.0,0.0,0.0,0.0,0.0,0.0,0.0,0.0,6.1718,6.1692,6.1696,6.1696,6.1704,6.1708,0.0,6.1709,6.171,6.171,6.2531,6.3393,6.4413,6.6133,6.6914,6.6911,6.6914,6.7382,6.8082,6.8161,6.8118,6.8074,6.8964,6.872,6.812,6.8961,6.9295,6.9436,7.0333,7.0667,7.0693,7.0715,7.1265,7.1733,7.0957,7.1291,7.1897,7.1897,7.1838,7.1817,7.1817,7.1817,7.1544,7.0687,7.0609,7.0881,7.1466,7.17,7.2284,7.3876,7.4203,7.4567,7.5456,7.5587,7.5291,7.4442,7.4239,7.354,7.1908,7.2375,7.2452,7.1675,7.2413,7.2902,7.2935,7.4432,7.5312,7.5337,7.5271,7.5237,7.5237,7.6011,7.6397,7.6397,7.6397,7.6397,7.6397,7.6397,7.6397,5.6327,5.7225,5.7965,5.8269,5.9898,6.1488,6.1642,6.1504,6.1371,6.142,6.1212,6.0687,5.9494,5.9516,0.0,0.0,0.0,0.0,0.0,0.0,0.0,0.0,0.0,0.0,0.0,0.0,0.0,0.0,0.0,0.0,0.0,0.0,0.0,6.1718,6.1683,6.1683,6.1683,6.1696,6.1704,0.0,6.1713,6.1717,6.1718,6.1872,6.2811,6.4414,6.6133,6.6914,6.6911,6.6908,6.7023,6.7256,6.7876,6.7676,6.7205,6.8062,6.7822,6.7183,6.8089,6.8777,6.9432,7.0312,7.1029,7.1565,7.1608,7.1764,7.1867,7.1655,7.1759,7.1897,7.1897,7.1838,7.1817,7.1817,7.1817,7.1388,6.9913,7.0609,7.1193,7.0063,7.0881,7.1928,7.2289,7.288,7.3812,7.5308,7.6052,7.6152,7.5327,7.4628,7.3773,7.2724,7.218,7.1792,7.1636,7.2413,7.3182,7.3873,7.4837,7.5644,7.6292,7.6184,7.6127,7.6127,7.6281,7.6397,7.6397,7.6397,7.6397,7.6397,7.6397,7.6397,5.6988,5.8431,5.9793,6.0208,6.1647,6.2852,6.2423,6.1978,6.1651,6.1699,6.0659,5.9459,5.855,0.0,0.0,0.0,0.0,0.0,0.0,0.0,0.0,0.0,0.0,0.0,0.0,0.0,0.0,0.0,0.0,0.0,0.0,6.1718,6.1718,6.1718,6.2115,6.2117,6.169,6.2524,6.2726,6.2338,6.2733,6.2734,6.2305,6.2304,6.2812,6.3789,6.5508,6.6288,6.6322,6.6713,6.6865,6.6896,6.7322,6.7201,6.685,6.7314,6.7188,6.6937,6.7809,6.8063,6.8323,7.0069,7.0596,7.0775,7.1647,7.1915,7.1906,7.1901,7.1893,7.1915,7.1915,7.1858,7.1833,7.1822,7.1505,7.0881,6.9601,6.999,7.0336,6.9423,7.0275,7.1315,7.1673,7.2762,7.4001,7.5305,7.6182,7.6415,7.5599,7.5094,7.4317,7.3035,7.2491,7.2219,7.2219,7.3035,7.3881,7.4709,7.5517,7.6167,7.6531,7.6455,7.6397,7.6397,7.6397,7.6397,7.6397,7.6397,7.6397,7.6397,7.6397,7.6397,5.7256,5.9436,6.1692,6.2542,6.3555,6.3984,6.2811,6.2098,6.1543,6.1111,5.9357,5.7875,5.7758,0.0,0.0,0.0,0.0,0.0,0.0,0.0,0.0,0.0,0.0,0.0,0.0,0.0,0.0,0.0,0.0,0.0,6.1718,6.1718,6.164,6.1483,6.2197,6.2201,6.1461,6.3076,6.3551,6.3005,6.3867,6.3828,6.3008,6.3164,6.3203,6.332,6.4922,6.5701,6.5888,6.6439,6.6707,6.6809,6.6653,6.6692,6.6809,6.68,6.679,6.6931,6.7805,6.7668,6.7534,6.9865,7.0201,6.9996,7.1438,7.1867,7.1901,7.1905,7.1901,7.1885,7.1885,7.1911,7.1853,7.1633,7.0959,7.0185,6.9445,6.9289,6.9278,6.9212,7.0012,7.0927,7.1594,7.3076,7.4436,7.518,7.6104,7.6454,7.5793,7.5444,7.4706,7.3268,7.2996,7.291,7.2863,7.3834,7.4671,7.5323,7.6128,7.6591,7.6488,7.6444,7.6409,7.6397,7.6243,7.6243,7.6397,7.6243,7.6243,7.6397,7.6386,7.6386,5.561,5.8061,6.0785,6.1642,6.3086,6.367,6.1278,6.1182,6.0971,5.8772,5.8605,5.8597,0.0,0.0,0.0,0.0,0.0,0.0,0.0,0.0,0.0,0.0,0.0,0.0,0.0,0.0,0.0,0.0,0.0,0.0,6.1718,6.1718,6.1369,6.0588,6.0707,6.0707,6.0551,6.1539,6.2369,6.2999,6.3866,6.3828,6.3047,6.3789,6.414,6.418,6.5155,6.6011,6.6668,6.6039,6.6186,6.6719,6.6017,6.6173,6.6798,6.6798,6.6795,6.6907,6.7809,6.8457,6.9151,7.024,7.1004,7.151,7.1749,7.1827,7.1833,7.1901,7.1906,7.1901,7.1901,7.1897,7.1697,7.0931,7.0107,6.9445,6.9328,6.9289,6.9284,6.9284,7.0518,7.1556,7.1675,7.3068,7.4248,7.4356,7.5716,7.6648,7.657,7.5288,7.4278,7.4045,7.3346,7.2863,7.2819,7.4294,7.5246,7.5304,7.6108,7.6591,7.6488,7.6477,7.6455,7.6409,7.5662,7.5662,7.6397,7.5624,7.5662,7.6397,7.6338,7.635,5.6918,5.8866,6.05,6.089,6.2296,6.2878,6.0285,5.9918,5.9708,5.8137,5.7697,0.0,0.0,0.0,0.0,0.0,0.0,0.0,0.0,0.0,0.0,0.0,0.0,0.0,0.0,0.0,0.0,0.0,0.0,6.1718,6.1718,6.1718,6.1291,6.0432,6.0861,6.0666,5.969,6.1028,6.2369,6.3745,6.4609,6.4844,6.4453,6.4336,6.4023,6.3671,6.5545,6.6009,6.549,6.6034,6.5948,6.5392,6.5546,6.5819,6.617,6.6639,6.679,6.6977,6.8312,6.8682,6.8865,7.0663,7.1193,7.1193,7.1661,7.1817,7.1822,7.1892,7.1897,7.1897,7.1897,7.1897,7.1697,7.0814,6.9952,6.9167,6.866,6.8193,6.8104,6.9044,7.0537,7.1801,7.2291,7.3393,7.4356,7.4861,7.5949,7.6531,7.6104,7.4977,7.42,7.42,7.3424,7.3281,7.4168,7.4945,7.5585,7.5992,7.6348,7.651,7.6488,7.6455,7.6432,7.6397,7.6011,7.5779,7.5662,7.5779,7.5779,7.5662,7.6142,7.6079,5.7518,5.9081,5.9862,6.0291,6.154,6.2002,5.9602,5.8889,5.8449,0.0,5.6948,0.0,0.0,0.0,0.0,0.0,0.0,0.0,0.0,0.0,0.0,0.0,0.0,0.0,0.0,0.0,0.0,0.0,0.0,6.1598,6.1366,6.1369,6.0861,5.9768,6.0588,6.0312,5.8792,6.0952,6.2916,6.4644,6.5506,6.582,6.5586,6.5155,6.449,6.3784,6.5738,6.5966,6.5017,6.6067,6.5868,6.4963,6.5429,6.5702,6.5975,6.6597,6.6784,6.7003,6.8461,6.8674,6.8695,7.0814,7.1232,7.0998,7.1622,7.1817,7.1822,7.1843,7.1892,7.1897,7.1887,7.1892,7.1697,7.0814,7.0107,6.9284,6.7959,6.7686,6.7976,6.9001,7.0696,7.2088,7.2491,7.3307,7.4084,7.4744,7.5707,7.6086,7.5288,7.458,7.4106,7.389,7.3501,7.3709,7.4926,7.5469,7.5944,7.6493,7.6488,7.6466,7.6466,7.6421,7.6397,7.6397,7.6397,7.6088,7.543,7.5856,7.574,7.5109,7.5767,7.5654,5.5708,5.7268,5.8322,5.9999,6.1052,6.1201,5.9428,5.841,5.7623,5.6745,5.6546,0.0,0.0,0.0,0.0,0.0,0.0,0.0,0.0,0.0,0.0,0.0,0.0,0.0,0.0,0.0,0.0,0.0,0.0,6.1356,6.051,6.0471,5.969,5.7972,5.8792,5.8792,5.7894,6.1225,6.3808,6.5526,6.6432,6.6399,6.5622,6.6399,6.6279,6.5459,6.5615,6.6039,6.6616,6.5941,6.6053,6.66,6.5897,6.6053,6.6756,6.6781,6.6811,6.6925,6.7781,6.8583,6.9392,7.0346,7.1154,7.1739,7.1778,7.1817,7.1817,7.1783,7.1838,7.1892,7.1827,7.1838,7.1697,7.0814,7.057,6.9829,6.7296,6.8699,7.0164,6.9357,7.1205,7.2662,7.1808,7.2375,7.2996,7.3035,7.4429,7.5196,7.4386,7.4157,7.3798,7.3065,7.3657,7.4127,7.4063,7.5604,7.6493,7.6421,7.6409,7.6409,7.6409,7.6409,7.6397,7.6397,7.6397,7.6359,7.632,7.5546,7.516,7.5109,7.5101,7.5026,5.3504,5.5028,5.6276,5.6897,5.8106,5.8843,5.7654,5.7182,5.6866,5.6546,0.0,0.0,0.0,0.0,0.0,0.0,0.0,0.0,0.0,0.0,0.0,0.0,0.0,0.0,0.0,0.0,0.0,0.0,0.0,0.0,6.12,6.07,6.0119,5.9495,5.9222,5.8675,5.7816,6.0718,6.2752,6.3964,6.5962,6.6749,6.6437,6.6747,6.6432,6.5647,6.6147,6.6258,6.6058,6.629,6.5897,6.5236,6.5507,6.5736,6.6037,6.658,6.6805,6.6908,6.7734,6.8188,6.8695,7.0113,7.0754,7.1087,7.1616,7.1806,7.1788,7.1811,7.1827,7.1833,7.1822,7.1827,7.1638,7.0809,7.0152,6.9421,6.8505,6.9473,7.0421,7.0084,7.1131,7.1987,7.1645,7.2336,7.2918,7.2918,7.4312,7.4876,7.3497,7.3789,7.3974,7.3691,7.3963,7.4557,7.5575,7.6193,7.6488,7.6409,7.6397,7.6397,7.6397,7.6397,7.6397,7.6397,7.6397,7.6127,7.5585,7.5817,7.5662,7.5109,7.5639,7.5553,5.2333,5.3627,5.496,5.5814,5.6714,5.7455,5.7706,5.7122,5.658,5.6844,0.0,0.0,0.0,0.0,0.0,0.0,0.0,0.0,0.0,0.0,0.0,0.0,0.0,0.0,0.0,0.0,0.0,0.0,0.0,0.0,6.0768,6.0544,6.0393,6.0393,5.9256,5.867,5.8675,6.0675,6.2121,6.3021,6.5643,6.6857,6.686,6.6857,6.6541,6.6026,6.6561,6.6319,6.5616,6.6478,6.6126,6.5189,6.5772,6.5962,6.5988,6.6564,6.6783,6.6845,6.7369,6.775,6.8252,6.9668,7.0314,7.0692,7.1516,7.1788,7.1788,7.18,7.1811,7.1817,7.1817,7.1817,7.1661,7.1143,7.029,6.9714,6.9993,7.072,7.1089,7.018,7.135,7.2205,7.1295,7.1908,7.2569,7.288,7.407,7.4421,7.2965,7.3529,7.3878,7.3315,7.378,7.4528,7.5643,7.6211,7.6466,7.6409,7.6397,7.6397,7.6397,7.6397,7.6397,7.6397,7.6397,7.6127,7.5546,7.6103,7.5898,7.5086,7.5642,7.5542,0.0,0.0,0.0,5.6894,5.6991,5.7083,5.9542,5.8199,5.6654,5.7439,0.0,0.0,0.0,0.0,0.0,0.0,0.0,0.0,0.0,0.0,0.0,0.0,0.0,0.0,0.0,0.0,0.0,0.0,0.0,5.9973,5.918,5.9924,6.0393,6.0393,5.8699,5.8621,6.0354,6.1249,6.2147,6.3047,6.5585,6.6802,6.6811,6.68,6.6795,6.6756,6.6778,6.6304,6.5559,6.6421,6.6811,6.6811,6.6811,6.6811,6.6847,6.6767,6.675,6.6785,6.6756,6.7291,6.8143,6.8933,6.9802,7.0715,7.1466,7.1764,7.1811,7.1815,7.1794,7.1817,7.1817,7.1817,7.1811,7.1815,7.1147,7.0751,7.1491,7.2373,7.2249,6.9639,7.1816,7.3247,7.0712,7.1015,7.187,7.2724,7.3499,7.3685,7.2879,7.3501,7.3413,7.1822,7.3111,7.4102,7.4092,7.5552,7.6455,7.6409,7.6397,7.6397,7.6397,7.6397,7.6397,7.6397,7.6397,7.6397,7.6397,7.6338,7.5876,7.5026,7.4951,7.4911,5.1555,0.0,0.0,0.0,0.0,0.0,0.0,0.0,5.4782,5.5648,0.0,0.0,0.0,0.0,0.0,0.0,0.0,0.0,0.0,0.0,0.0,0.0,0.0,0.0,0.0,0.0,0.0,0.0,5.8253,5.8967,5.9987,6.0271,6.0388,6.0419,5.8697,5.8345,5.9441,6.0966,6.2142,6.3047,6.5585,6.6798,6.68,6.6798,6.6478,6.5881,6.6528,6.6315,6.5562,6.645,6.6811,6.6814,6.6787,6.7205,6.7727,6.7715,6.808,6.8476,6.7842,6.7798,6.8143,6.8933,6.9383,6.9876,7.1323,7.1751,7.1758,7.1794,7.1811,7.1817,7.1817,7.18,7.1815,7.1809,7.1576,7.1262,7.0859,7.1886,7.2376,7.0409,7.0316,7.0487,7.0316,7.051,7.0976,7.1831,7.3111,7.3472,7.2056,7.3094,7.3849,7.3364,7.3743,7.4518,7.5697,7.6184,7.6421,7.6409,7.6397,7.6397,7.6397,7.6397,7.6397,7.6397,7.6397,7.6397,7.6397,7.6338,7.6185,7.5953,7.5838,7.5771,5.1278,5.1619,5.2081,5.2422,0.0,0.0,5.4173,5.4324,5.4679,0.0,0.0,0.0,0.0,0.0,0.0,0.0,0.0,0.0,0.0,0.0,0.0,0.0,0.0,0.0,0.0,0.0,0.0,5.7232,5.7596,5.8384,5.9795,5.9876,5.9876,5.9873,5.8502,5.8033,5.8546,6.03,6.1392,6.1947,6.4869,6.6271,6.6271,6.6622,6.6492,6.6046,6.6541,6.6486,6.6035,6.6541,6.6748,6.6752,6.6808,6.7305,6.8015,6.7664,6.8032,6.8621,6.7764,6.7442,6.7665,6.8837,6.9214,6.952,7.1219,7.1745,7.1764,7.1788,7.1806,7.1817,7.1817,7.1794,7.1803,7.1751,7.1432,7.1109,7.0938,7.1109,7.1015,7.0036,7.0021,7.0083,6.9849,7.0083,7.0579,7.1456,7.2666,7.3123,7.2153,7.289,7.3335,7.3005,7.3568,7.4382,7.5326,7.6006,7.6397,7.6397,7.6397,7.6397,7.6397,7.6397,7.6397,7.6397,7.6397,7.6374,7.6313,7.6276,7.6225,7.6172,7.609,7.6048,5.1069,5.1113,5.1321,5.1921,0.0,0.0,5.4168,5.4513,5.5019,0.0,0.0,0.0,0.0,0.0,0.0,0.0,0.0,0.0,0.0,0.0,0.0,0.0,0.0,0.0,0.0,5.6527,5.6494,5.6509,5.7292,5.8195,5.9063,5.9014,5.9012,5.91,5.815,5.7679,5.7812,5.9516,6.0408,6.045,6.379,6.5418,6.5535,6.6315,6.6654,6.6707,6.6707,6.6693,6.6707,6.6688,6.6702,6.6711,6.6775,6.7274,6.7915,6.714,6.7394,6.8037,6.7141,6.6847,6.7097,6.8689,6.9208,6.9493,7.1184,7.1738,7.1806,7.1821,7.1794,7.1811,7.1811,7.1788,7.1751,7.1718,7.1099,7.0712,7.1334,7.0354,6.9306,6.915,7.0238,7.0743,6.9344,6.9694,7.0455,7.1335,7.2182,7.2686,7.2657,7.2686,7.2405,7.1707,7.3035,7.4023,7.4038,7.5503,7.6397,7.6397,7.6397,7.6397,7.6397,7.6397,7.6397,7.6397,7.6397,7.6338,7.6198,7.6198,7.6118,7.6015,7.6015,7.5938,0.0,0.0,0.0,0.0,0.0,0.0,5.0687,5.0914,5.1425,0.0,0.0,0.0,0.0,0.0,0.0,0.0,0.0,0.0,0.0,0.0,0.0,0.0,0.0,0.0,0.0,5.6553,5.6599,5.6563,5.7343,5.8165,5.9063,5.8439,5.839,5.9069,5.7584,5.7109,5.7801,5.9478,6.034,6.0432,6.3159,6.4836,6.5496,6.5691,6.61,6.6717,6.6717,6.6702,6.6719,6.6657,6.6652,6.6711,6.6775,6.7274,6.7993,6.7798,6.8291,6.8933,6.8037,6.7704,6.7837,6.8884,6.9168,6.9427,7.1198,7.1718,7.1751,7.1794,7.1794,7.1815,7.1782,7.1758,7.1718,7.1683,7.159,7.1264,7.0673,7.086,7.0704,6.9344,6.8801,6.8645,6.9034,6.9228,6.96,7.0451,7.1794,7.2444,7.1745,7.2277,7.2615,7.2407,7.3302,7.4193,7.4823,7.5829,7.6397,7.6397,7.6397,7.6397,7.6397,7.6397,7.6397,7.6397,7.6397,7.6338,7.6198,7.6198,7.6118,7.6015,7.6015,7.563,0.0,0.0,0.0,4.8244,0.0,0.0,0.0,4.9315,5.0403,5.2158,5.1442,5.1086,0.0,0.0,0.0,0.0,0.0,0.0,0.0,0.0,0.0,0.0,0.0,0.0,0.0,5.6558,5.6606,5.6606,5.6957,5.7385,5.7768,5.7377,5.7367,5.7772,5.695,5.6712,5.7134,5.8804,5.9662,5.9751,6.2703,6.4372,6.484,6.5688,6.6327,6.6691,6.6674,6.6663,6.6645,6.6594,6.6612,6.6657,6.6683,6.7496,6.8483,6.7652,6.8148,6.9089,6.7793,6.7298,6.7399,6.8255,6.8825,6.9402,7.07,7.1394,7.177,7.1788,7.1821,7.1803,7.1751,7.1718,7.1683,7.1707,7.1684,7.1622,7.1598,7.1598,7.1365,7.051,7.0005,6.9422,6.8606,6.8777,6.9179,6.9562,7.0981,7.191,7.1454,7.1763,7.2024,7.1992,7.2788,7.3435,7.3806,7.5005,7.574,7.574,7.6142,7.635,7.635,7.635,7.635,7.635,7.635,7.6288,7.6145,7.6145,7.609,7.6015,7.6015,7.5515,0.0,0.0,0.0,0.0,0.0,4.8049,0.0,0.0,0.0,5.1419,0.0,0.0,0.0,0.0,0.0,0.0,0.0,0.0,0.0,0.0,0.0,0.0,0.0,0.0,0.0,5.6792,5.676,5.6606,5.6604,5.6558,5.6509,5.6506,5.65,5.6517,5.6517,5.6514,5.6514,5.8176,5.8909,5.8792,6.2045,6.3634,6.3672,6.54,6.6201,6.6196,6.6471,6.6497,6.6381,6.653,6.6607,6.6614,6.6612,6.7579,6.8761,6.722,6.7636,6.8728,6.722,6.6645,6.6729,6.7619,6.8605,6.963,7.048,7.1225,7.1811,7.177,7.1797,7.179,7.1718,7.1675,7.1731,7.1879,7.1738,7.187,7.2918,7.2444,7.1784,7.1628,7.1589,7.0813,6.8451,6.8877,6.9416,6.9168,7.0438,7.1415,7.1366,7.1366,7.1366,7.1366,7.2169,7.2661,7.2607,7.4154,7.5109,7.5109,7.5886,7.6326,7.6326,7.6326,7.6313,7.6276,7.6288,7.6238,7.609,7.609,7.6062,7.6015,7.5822,7.5284,0.0,0.0,0.0,0.0,4.6364,0.0,0.0,0.0,4.7861,4.8844,0.0,0.0,0.0,0.0,0.0,0.0,0.0,0.0,0.0,0.0,0.0,0.0,0.0,0.0,0.0,0.0,5.7375,5.6643,5.6555,5.6509,5.6506,5.6506,5.6494,5.65,5.6496,5.6488,5.6515,5.8148,5.8611,5.7871,6.0594,6.188,6.1958,6.3642,6.4393,6.4486,6.5965,6.6146,6.5478,6.6227,6.6546,6.662,6.6614,6.7204,6.7937,6.6977,6.721,6.7898,6.6938,6.6607,6.6729,6.7619,6.9013,7.0512,7.1336,7.1692,7.1806,7.1745,7.1725,7.1711,7.1714,7.1676,7.18,7.2577,7.218,7.2064,7.3695,7.3311,7.247,7.1732,7.1529,7.0965,6.9259,7.0274,7.1007,7.0185,7.0825,7.1394,7.1313,7.1302,7.1302,7.1302,7.2076,7.2618,7.2607,7.4154,7.5109,7.5109,7.5933,7.6386,7.6386,7.6386,7.6338,7.6212,7.6276,7.6238,7.609,7.609,7.6062,7.5976,7.5207,7.4399,0.0,0.0,0.0,0.0,0.0,0.0,4.6547,0.0,4.6818,0.0,0.0,0.0,0.0,0.0,0.0,0.0,5.2146,0.0,0.0,0.0,0.0,0.0,0.0,0.0,0.0,0.0,0.0,0.0,0.0,5.6269,5.5753,5.6212,5.6507,5.6519,5.6519,5.6515,5.6507,5.7676,5.8066,5.7715,5.9854,6.1101,6.1646,6.2808,6.3636,6.4169,6.5316,6.5598,6.5326,6.6166,6.6516,6.6538,6.6553,6.7065,6.7726,6.6892,6.7118,6.7804,6.7463,6.7009,6.6772,6.8136,6.9454,7.0648,7.1446,7.1738,7.1751,7.1697,7.1683,7.1675,7.1638,7.1614,7.1831,7.2685,7.2608,7.2832,7.4515,7.4178,7.3305,7.2415,7.3035,7.2841,7.0192,7.0338,7.0669,7.0263,7.0844,7.1324,7.1302,7.1291,7.1291,7.1291,7.164,7.1833,7.1833,7.3419,7.4386,7.4386,7.5627,7.6326,7.6288,7.6288,7.6238,7.6145,7.6172,7.6131,7.602,7.602,7.5774,7.5245,7.4817,7.3957,4.6535,0.0,0.0,0.0,0.0,0.0,0.0,0.0,0.0,0.0,0.0,0.0,0.0,0.0,0.0,0.0,0.0,5.1973,0.0,0.0,0.0,0.0,0.0,0.0,0.0,0.0,0.0,0.0,0.0,0.0,5.523,5.6035,5.6484,5.6507,5.6507,5.6507,5.6507,5.7286,5.7598,5.7403,5.9109,6.0156,6.0585,6.1618,6.2289,6.2756,6.4245,6.476,6.4605,6.5965,6.6508,6.6508,6.6508,6.6897,6.7371,6.6772,6.7082,6.7759,6.7585,6.7221,6.7114,6.862,6.9745,7.0667,7.1471,7.1711,7.1704,7.1699,7.1692,7.1692,7.1614,7.1792,7.218,7.3035,7.3074,7.3407,7.536,7.4721,7.3607,7.3171,7.4092,7.4004,7.1048,7.0932,7.1087,7.0583,7.0968,7.1291,7.1291,7.1291,7.1291,7.1291,7.1291,7.1407,7.164,7.3032,7.4104,7.4518,7.563,7.6263,7.6172,7.6185,7.6159,7.6062,7.609,7.6048,7.5985,7.5731,7.5192,7.4317,7.4273,7.3475,0.0,0.0,0.0,4.6398,0.0,0.0,0.0,0.0,4.6507,0.0,0.0,0.0,0.0,0.0,4.9604,4.8759,5.0097,0.0,0.0,0.0,0.0,0.0,0.0,0.0,0.0,0.0,0.0,0.0,0.0,0.0,5.5209,5.6024,5.6484,5.6507,5.6507,5.6507,5.6507,5.7286,5.7325,5.6546,5.8233,5.8613,5.7873,5.9521,5.9847,5.9263,6.2606,6.3556,6.2973,6.546,6.6508,6.6508,6.6508,6.6508,6.6547,6.6508,6.7052,6.7674,6.6819,6.7082,6.7928,6.8829,6.9745,7.0661,7.1442,7.169,7.1704,7.1622,7.163,7.1692,7.1614,7.2219,7.3074,7.3967,7.3501,7.357,7.6095,7.4671,7.3073,7.3801,7.4014,7.3452,7.1657,7.2781,7.3323,7.1608,7.1334,7.1291,7.1291,7.1291,7.1291,7.1291,7.1291,7.164,7.2491,7.338,7.4556,7.612,7.6262,7.6238,7.6104,7.6159,7.6131,7.6015,7.6062,7.6058,7.5895,7.5125,7.424,7.3321,7.336,7.2899,0.0,0.0,4.8008,4.6557,0.0,0.0,0.0,0.0,0.0,0.0,0.0,0.0,0.0,0.0,4.8089,4.7806,4.871,4.9371,0.0,0.0,0.0,0.0,0.0,0.0,0.0,0.0,0.0,0.0,0.0,0.0,0.0,5.4843,5.5649,5.5645,5.6191,5.6498,5.6441,5.6714,5.6709,5.6456,5.6991,5.7414,5.7647,5.8225,5.8635,5.903,6.1317,6.2429,6.2857,6.4838,6.5965,6.6508,6.6508,6.6508,6.6508,6.6508,6.6703,6.6975,6.7247,6.8326,6.9554,6.9803,7.0518,7.1325,7.1552,7.163,7.1638,7.1606,7.1614,7.1622,7.1606,7.1403,7.1403,7.2258,7.266,7.3052,7.3878,7.3792,7.3315,7.2373,7.2672,7.2506,7.0782,7.2407,7.3541,7.2411,7.1721,7.1523,7.2104,7.164,7.1291,7.1291,7.18,7.2213,7.2568,7.3883,7.5163,7.6224,7.6301,7.6238,7.6104,7.6118,7.6076,7.6015,7.6005,7.6,7.5895,7.5042,7.4465,7.4128,7.2909,7.1896,4.8287,4.8582,0.0,4.7111,4.7037,0.0,4.7397,0.0,0.0,0.0,0.0,0.0,0.0,0.0,4.7545,4.6951,4.7584,4.8133,0.0,4.8638,0.0,0.0,0.0,0.0,0.0,0.0,0.0,0.0,0.0,0.0,0.0,0.0,5.5641,5.5632,5.6182,5.6441,5.6417,5.6417,5.6524,5.6814,5.6492,5.6803,5.7576,5.7268,5.745,5.8078,6.0067,6.1419,6.2391,6.4364,6.5732,6.6508,6.6454,6.6493,6.6508,6.6508,6.6695,6.699,6.7596,6.8925,7.037,7.0316,7.0906,7.1653,7.1606,7.1589,7.162,7.1598,7.1598,7.1598,7.1598,7.117,7.0898,7.1481,7.1991,7.2452,7.2686,7.2686,7.2404,7.1528,7.1556,7.1352,7.0219,7.164,7.2811,7.2274,7.1932,7.1833,7.2104,7.191,7.164,7.133,7.2032,7.2677,7.3032,7.4595,7.5758,7.6225,7.6238,7.6185,7.6062,7.6048,7.6034,7.6015,7.6015,7.5917,7.5848,7.4996,7.4559,7.4458,7.2623,7.1535]}]]